[[{"header":{"parameterUnit":"m.s-1","parameterCategory":1,"la1":31.0,"la2":29.5877,"lo1":-88.7671,"lo2":-86.6584,"dy":0.0162,"dx":0.0185,"nx":115,"ny":88,"refTime":"2023-08-02T18:00:00:Z","depth":0,"parameterNumber":2,"parameterNumberName":"U-component_of_WINDS"},"data":[0.0,0.0,0.0,0.0,0.0,0.0,0.0,0.0,0.0,0.0,0.0,0.0,0.0,0.0,0.0,0.0,0.0,0.0,0.0,0.0,0.0,0.0,0.0,0.0,0.0,0.0,0.0,0.0,0.0,0.0,0.0,0.0,0.0,0.0,0.0,0.0,0.0,0.0,0.0,0.0,0.0,0.0,0.0,0.0,0.0,0.0,0.0,0.0,0.0,0.0,0.0,0.0,0.0,0.0,0.0,0.0,0.0,0.0,0.0,0.0,0.0,0.0,0.0,0.0,0.0,0.0,0.0,0.0,0.0,0.0,0.0,0.0,0.0,0.0,0.0,0.0,0.0,0.0,0.0,0.0,0.0,0.0,0.0,0.0,0.0,0.0,0.0,0.0,0.0,0.0,0.0,0.0,0.0,0.0,0.0,0.0,0.0,0.0,0.0,0.0,0.0,0.0,0.0,0.0,0.0,0.0,0.0,0.0,0.0,0.0,0.0,0.0,0.0,0.0,0.0,0.0,0.0,0.0,0.0,0.0,0.0,0.0,0.0,0.0,0.0,0.0,0.0,0.0,0.0,0.0,0.0,0.0,0.0,0.0,0.0,0.0,0.0,0.0,0.0,0.0,0.0,0.0,0.0,0.0,0.0,0.0,0.0,0.0,0.0,0.0,0.0,0.0,0.0,0.0,0.0,0.0,0.0,0.0,0.0,0.0,0.0,0.0,0.0,0.0,0.0,0.0,0.0,0.0,0.0,0.0,0.0,0.0,0.0,0.0,0.0,0.0,0.0,0.0,0.0,0.0,0.0,0.0,0.0,0.0,0.0,0.0,0.0,0.0,0.0,0.0,0.0,0.0,0.0,0.0,0.0,0.0,0.0,0.0,0.0,0.0,0.0,0.0,0.0,0.0,0.0,0.0,0.0,0.0,0.0,0.0,0.0,0.0,0.0,0.0,0.0,0.0,0.0,0.0,0.0,0.0,0.0,0.0,0.0,0.0,0.0,0.0,0.0,0.0,0.0,0.0,0.0,0.0,0.0,0.0,0.0,0.0,0.0,0.0,0.0,0.0,0.0,0.0,0.0,0.0,0.0,0.0,0.0,0.0,0.0,0.0,0.0,0.0,0.0,0.0,0.0,0.0,0.0,0.0,0.0,0.0,0.0,0.0,0.0,0.0,0.0,0.0,0.0,0.0,0.0,0.0,0.0,0.0,0.0,0.0,0.0,0.0,0.0,0.0,0.0,0.0,0.0,0.0,0.0,0.0,0.0,0.0,0.0,0.0,0.0,0.0,0.0,0.0,0.0,0.0,0.0,0.0,0.0,0.0,0.0,0.0,0.0,0.0,0.0,0.0,0.0,0.0,0.0,0.0,0.0,0.0,0.0,0.0,0.0,0.0,0.0,0.0,0.0,0.0,0.0,0.0,0.0,0.0,0.0,0.0,0.0,0.0,0.0,0.0,0.0,0.0,0.0,0.0,0.0,0.0,0.0,0.0,0.0,0.0,0.0,0.0,0.0,0.0,0.0,0.0,0.0,0.0,0.0,0.0,0.0,0.0,0.0,0.0,0.0,0.0,0.0,0.0,0.0,0.0,0.0,0.0,0.0,0.0,0.0,0.0,0.0,0.0,0.0,0.0,0.0,0.0,0.0,0.0,0.0,0.0,0.0,0.0,0.0,0.0,0.0,0.0,0.0,0.0,0.0,0.0,0.0,0.0,0.0,0.0,0.0,0.0,0.0,0.0,0.0,0.0,0.0,0.0,0.0,0.0,0.0,0.0,0.0,0.0,0.0,0.0,0.0,0.0,0.0,0.0,0.0,0.0,0.0,0.0,0.0,0.0,0.0,0.0,0.0,0.0,0.0,0.0,0.0,0.0,0.0,0.0,0.0,0.0,0.0,0.0,0.0,0.0,0.0,0.0,0.0,0.0,0.0,0.0,0.0,0.0,0.0,0.0,0.0,0.0,0.0,0.0,0.0,0.0,0.0,0.0,0.0,0.0,0.0,0.0,0.0,0.0,0.0,0.0,0.0,0.0,0.0,0.0,0.0,0.0,0.0,0.0,0.0,0.0,0.0,0.0,0.0,0.0,0.0,0.0,0.0,0.0,0.0,0.0,0.0,0.0,0.0,0.0,0.0,0.0,0.0,0.0,0.0,0.0,0.0,0.0,0.0,0.0,0.0,0.0,0.0,0.0,0.0,0.0,0.0,0.0,0.0,0.0,0.0,0.0,0.0,0.0,0.0,0.0,0.0,0.0,0.0,0.0,0.0,0.0,0.0,0.0,0.0,0.0,0.0,0.0,0.0,0.0,0.0,0.0,0.0,0.0,0.0,0.0,0.0,0.0,0.0,0.0,0.0,0.0,0.0,0.0,0.0,0.0,0.0,0.0,0.0,0.0,0.0,0.0,0.0,0.0,0.0,0.0,0.0,0.0,0.0,0.0,0.0,0.0,0.0,0.0,0.0,0.0,0.0,0.0,0.0,0.0,0.0,0.0,0.0,0.0,0.0,0.0,0.0,0.0,0.0,0.0,0.0,0.0,0.0,0.0,0.0,0.0,0.0,0.0,0.0,0.0,0.0,0.0,0.0,0.0,0.0,0.0,0.0,0.0,0.0,0.0,0.0,0.0,0.0,0.0,0.0,0.0,0.0,0.0,0.0,0.0,0.0,0.0,0.0,0.0,0.0,0.0,0.0,0.0,0.0,0.0,0.0,0.0,0.0,0.0,0.0,0.0,0.0,0.0,0.0,0.0,0.0,0.0,0.0,0.0,0.0,0.0,0.0,0.0,0.0,0.0,0.0,0.0,0.0,0.0,0.0,0.0,0.0,0.0,0.0,0.0,0.0,0.0,0.0,0.0,0.0,0.0,0.0,0.0,0.0,0.0,0.0,0.0,0.0,0.0,0.0,0.0,0.0,0.0,0.0,0.0,0.0,0.0,0.0,0.0,0.0,0.0,0.0,0.0,0.0,0.0,0.0,0.0,0.0,0.0,0.0,0.0,0.0,0.0,0.0,0.0,0.0,0.0,0.0,0.0,0.0,0.0,0.0,0.0,0.0,0.0,0.0,0.0,0.0,0.0,0.0,0.0,0.0,0.0,0.0,0.0,0.0,0.0,0.0,0.0,0.0,0.0,0.0,0.0,0.0,0.0,0.0,0.0,0.0,0.0,0.0,0.0,0.0,0.0,0.0,0.0,0.0,0.0,0.0,0.0,0.0,0.0,0.0,0.0,0.0,0.0,0.0,0.0,0.0,0.0,0.0,0.0,0.0,0.0,0.0,0.0,0.0,0.0,0.0,0.0,0.0,0.0,0.0,0.0,0.0,0.0,0.0,0.0,0.0,0.0,0.0,0.0,0.0,0.0,0.0,0.0,0.0,0.0,0.0,0.0,0.0,0.0,0.0,0.0,0.0,0.0,0.0,0.0,0.0,0.0,0.0,0.0,0.0,0.0,0.0,0.0,0.0,0.0,0.0,0.0,0.0,0.0,0.0,0.0,0.0,0.0,0.0,0.0,0.0,0.0,0.0,0.0,0.0,0.0,0.0,0.0,0.0,0.0,0.0,0.0,0.0,0.0,0.0,0.0,0.0,0.0,0.0,0.0,0.0,0.0,0.0,0.0,0.0,0.0,0.0,0.0,0.0,0.0,0.0,0.0,0.0,0.0,0.0,0.0,0.0,0.0,0.0,0.0,0.0,0.0,0.0,0.0,0.0,0.0,0.0,0.0,0.0,0.0,0.0,0.0,0.0,0.0,0.0,0.0,0.0,0.0,0.0,0.0,0.0,0.0,0.0,0.0,0.0,0.0,0.0,0.0,0.0,0.0,0.0,0.0,0.0,0.0,0.0,0.0,0.0,0.0,0.0,0.0,0.0,0.0,0.0,0.0,0.0,0.0,0.0,0.0,0.0,0.0,0.0,0.0,0.0,0.0,0.0,0.0,0.0,0.0,0.0,0.0,0.0,0.0,0.0,0.0,0.0,0.0,0.0,0.0,0.0,0.0,0.0,0.0,0.0,0.0,0.0,0.0,0.0,0.0,0.0,0.0,0.0,0.0,0.0,0.0,0.0,0.0,0.0,0.0,0.0,0.0,0.0,0.0,0.0,0.0,0.0,0.0,0.0,0.0,0.0,0.0,0.0,0.0,0.0,0.0,0.0,0.0,0.0,0.0,0.0,0.0,0.0,0.0,0.0,0.0,0.0,0.0,0.0,0.0,0.0,0.0,0.0,0.0,0.0,0.0,0.0,0.0,0.0,0.0,0.0,0.0,0.0,0.0,0.0,0.0,-2.7073,0.0,0.0,0.0,0.0,0.0,0.0,0.0,0.0,0.0,0.0,0.0,0.0,0.0,0.0,0.0,0.0,0.0,0.0,0.0,0.0,0.0,0.0,0.0,0.0,0.0,0.0,0.0,0.0,0.0,0.0,0.0,0.0,0.0,0.0,0.0,0.0,0.0,0.0,0.0,0.0,0.0,0.0,0.0,0.0,0.0,0.0,0.0,0.0,0.0,0.0,0.0,0.0,0.0,0.0,0.0,0.0,0.0,0.0,0.0,0.0,0.0,0.0,0.0,0.0,0.0,0.0,0.0,0.0,0.0,0.0,0.0,0.0,0.0,0.0,0.0,0.0,0.0,0.0,0.0,0.0,0.0,0.0,0.0,0.0,0.0,0.0,0.0,0.0,0.0,0.0,0.0,0.0,0.0,0.0,0.0,0.0,0.0,0.0,0.0,0.0,0.0,0.0,0.0,0.0,0.0,0.0,0.0,0.0,0.0,0.0,-3.0982,-3.0095,-3.0541,-2.9664,-2.7323,0.0,0.0,0.0,0.0,0.0,0.0,0.0,0.0,0.0,0.0,0.0,0.0,0.0,0.0,0.0,0.0,0.0,0.0,0.0,0.0,0.0,0.0,0.0,0.0,0.0,0.0,0.0,0.0,0.0,0.0,0.0,0.0,0.0,0.0,0.0,0.0,0.0,0.0,0.0,0.0,0.0,0.0,0.0,0.0,0.0,0.0,0.0,0.0,0.0,0.0,0.0,0.0,0.0,0.0,0.0,0.0,0.0,0.0,0.0,0.0,0.0,0.0,0.0,0.0,0.0,0.0,0.0,0.0,0.0,0.0,0.0,0.0,0.0,0.0,0.0,0.0,0.0,0.0,0.0,0.0,0.0,0.0,0.0,0.0,0.0,0.0,0.0,0.0,0.0,0.0,0.0,0.0,0.0,0.0,0.0,0.0,0.0,0.0,0.0,0.0,0.0,0.0,0.0,0.0,0.0,0.0,0.0,0.0,0.0,0.0,0.0,0.0,-3.1476,-3.0462,-2.801,0.0,0.0,0.0,0.0,0.0,0.0,0.0,0.0,0.0,0.0,0.0,0.0,0.0,0.0,0.0,0.0,0.0,0.0,0.0,0.0,0.0,0.0,0.0,0.0,0.0,0.0,0.0,0.0,0.0,0.0,0.0,0.0,0.0,0.0,0.0,0.0,0.0,0.0,0.0,0.0,0.0,0.0,0.0,0.0,0.0,0.0,0.0,0.0,0.0,0.0,0.0,0.0,0.0,0.0,0.0,0.0,0.0,0.0,0.0,0.0,0.0,0.0,0.0,0.0,0.0,0.0,0.0,0.0,0.0,0.0,0.0,0.0,0.0,0.0,0.0,0.0,0.0,0.0,0.0,0.0,0.0,0.0,0.0,0.0,0.0,0.0,0.0,0.0,0.0,0.0,0.0,0.0,0.0,0.0,0.0,0.0,0.0,0.0,0.0,0.0,0.0,0.0,0.0,0.0,0.0,0.0,0.0,0.0,0.0,0.0,-3.2318,-3.279,-3.3642,0.0,-2.9973,0.0,0.0,0.0,0.0,0.0,0.0,0.0,0.0,0.0,0.0,0.0,0.0,0.0,0.0,0.0,0.0,0.0,0.0,0.0,0.0,0.0,0.0,0.0,0.0,0.0,0.0,0.0,0.0,0.0,0.0,0.0,0.0,0.0,0.0,0.0,0.0,0.0,0.0,0.0,0.0,0.0,0.0,0.0,0.0,0.0,0.0,0.0,0.0,0.0,0.0,0.0,0.0,0.0,0.0,0.0,0.0,0.0,0.0,0.0,0.0,0.0,0.0,0.0,0.0,0.0,0.0,0.0,0.0,0.0,0.0,0.0,0.0,0.0,0.0,0.0,0.0,0.0,0.0,0.0,0.0,0.0,0.0,0.0,0.0,0.0,0.0,0.0,0.0,0.0,0.0,0.0,0.0,0.0,0.0,0.0,0.0,0.0,0.0,0.0,0.0,0.0,0.0,0.0,0.0,0.0,0.0,0.0,0.0,0.0,0.0,-3.3535,-3.2664,-3.2145,-3.1137,0.0,0.0,0.0,0.0,0.0,0.0,0.0,0.0,0.0,0.0,0.0,0.0,0.0,0.0,0.0,0.0,0.0,0.0,0.0,0.0,0.0,0.0,0.0,0.0,0.0,0.0,0.0,0.0,0.0,0.0,0.0,0.0,0.0,0.0,0.0,0.0,0.0,0.0,0.0,0.0,0.0,0.0,0.0,0.0,0.0,0.0,0.0,0.0,0.0,0.0,0.0,0.0,0.0,0.0,0.0,0.0,0.0,0.0,0.0,0.0,0.0,0.0,0.0,0.0,0.0,0.0,0.0,0.0,0.0,0.0,0.0,0.0,0.0,0.0,0.0,0.0,0.0,0.0,0.0,0.0,0.0,0.0,0.0,0.0,0.0,0.0,0.0,0.0,0.0,0.0,0.0,0.0,0.0,0.0,0.0,0.0,0.0,0.0,0.0,0.0,0.0,0.0,0.0,0.0,0.0,0.0,0.0,0.0,0.0,0.0,-3.3922,-3.4268,-3.3086,-3.2057,-3.0616,-2.8744,0.0,0.0,0.0,0.0,0.0,0.0,0.0,0.0,0.0,0.0,0.0,0.0,0.0,0.0,0.0,0.0,0.0,0.0,0.0,0.0,0.0,0.0,0.0,0.0,0.0,0.0,0.0,0.0,0.0,0.0,0.0,0.0,0.0,0.0,0.0,0.0,0.0,0.0,0.0,0.0,0.0,0.0,0.0,0.0,0.0,0.0,0.0,0.0,0.0,0.0,0.0,0.0,0.0,0.0,0.0,0.0,0.0,0.0,0.0,0.0,0.0,0.0,0.0,0.0,0.0,0.0,0.0,0.0,0.0,0.0,0.0,0.0,0.0,0.0,0.0,0.0,0.0,0.0,0.0,0.0,0.0,0.0,0.0,0.0,0.0,0.0,0.0,0.0,0.0,0.0,0.0,0.0,0.0,0.0,0.0,0.0,0.0,0.0,0.0,0.0,0.0,0.0,0.0,0.0,0.0,0.0,0.0,0.0,-3.6858,-3.5059,-3.4194,-3.4699,-3.4859,-3.2649,0.0,0.0,0.0,0.0,0.0,0.0,0.0,0.0,0.0,0.0,0.0,0.0,0.0,0.0,0.0,0.0,0.0,0.0,0.0,0.0,0.0,0.0,0.0,0.0,0.0,0.0,0.0,0.0,0.0,0.0,0.0,0.0,0.0,0.0,0.0,0.0,0.0,0.0,0.0,0.0,0.0,0.0,0.0,0.0,0.0,0.0,0.0,0.0,0.0,0.0,0.0,0.0,0.0,0.0,0.0,0.0,0.0,0.0,0.0,0.0,0.0,0.0,0.0,0.0,0.0,0.0,0.0,0.0,0.0,0.0,0.0,0.0,0.0,0.0,0.0,0.0,0.0,0.0,0.0,0.0,0.0,0.0,0.0,0.0,0.0,0.0,0.0,0.0,0.0,0.0,0.0,0.0,0.0,0.0,0.0,0.0,0.0,0.0,0.0,0.0,0.0,0.0,0.0,0.0,0.0,0.0,0.0,0.0,0.0,-3.2888,-3.3144,-3.4683,-3.7414,-3.3578,-3.0682,0.0,0.0,0.0,0.0,0.0,0.0,0.0,0.0,0.0,0.0,0.0,0.0,0.0,0.0,0.0,0.0,0.0,0.0,0.0,0.0,0.0,0.0,0.0,0.0,0.0,0.0,0.0,0.0,0.0,0.0,0.0,0.0,0.0,0.0,0.0,0.0,0.0,0.0,0.0,0.0,0.0,0.0,0.0,0.0,0.0,0.0,0.0,0.0,0.0,0.0,0.0,0.0,0.0,0.0,0.0,0.0,0.0,0.0,0.0,0.0,0.0,0.0,0.0,0.0,0.0,0.0,0.0,0.0,0.0,0.0,0.0,0.0,0.0,0.0,0.0,0.0,0.0,0.0,0.0,0.0,0.0,0.0,0.0,0.0,0.0,0.0,0.0,0.0,0.0,0.0,0.0,0.0,0.0,0.0,0.0,0.0,0.0,0.0,0.0,0.0,0.0,0.0,0.0,0.0,0.0,0.0,0.0,0.0,0.0,-3.1647,0.0,-3.5718,-3.6957,-3.3051,-2.989,0.0,0.0,0.0,0.0,0.0,0.0,0.0,0.0,0.0,0.0,0.0,0.0,0.0,0.0,0.0,0.0,0.0,0.0,0.0,0.0,0.0,0.0,0.0,0.0,0.0,0.0,0.0,0.0,0.0,0.0,0.0,0.0,0.0,0.0,0.0,0.0,0.0,0.0,0.0,0.0,0.0,0.0,0.0,0.0,0.0,0.0,0.0,0.0,0.0,0.0,0.0,0.0,0.0,0.0,0.0,0.0,0.0,0.0,0.0,0.0,0.0,0.0,0.0,0.0,0.0,0.0,0.0,0.0,0.0,0.0,0.0,0.0,0.0,0.0,0.0,0.0,0.0,0.0,0.0,0.0,0.0,0.0,0.0,0.0,0.0,0.0,0.0,0.0,0.0,0.0,0.0,0.0,0.0,0.0,0.0,0.0,0.0,0.0,0.0,0.0,0.0,0.0,0.0,0.0,0.0,0.0,0.0,0.0,-3.0872,-3.409,-3.7361,-3.718,-3.3256,-3.366,-3.0569,0.0,0.0,0.0,0.0,0.0,0.0,0.0,0.0,0.0,0.0,0.0,0.0,0.0,0.0,0.0,0.0,0.0,0.0,0.0,0.0,0.0,0.0,0.0,0.0,0.0,0.0,0.0,0.0,0.0,0.0,0.0,0.0,0.0,0.0,0.0,0.0,0.0,0.0,0.0,0.0,0.0,0.0,0.0,0.0,0.0,0.0,0.0,0.0,0.0,0.0,0.0,0.0,0.0,0.0,0.0,0.0,0.0,0.0,0.0,0.0,0.0,0.0,0.0,0.0,0.0,0.0,0.0,0.0,0.0,0.0,0.0,0.0,0.0,0.0,0.0,0.0,0.0,0.0,0.0,0.0,0.0,0.0,0.0,0.0,0.0,0.0,0.0,0.0,0.0,0.0,0.0,0.0,0.0,0.0,0.0,0.0,0.0,0.0,0.0,0.0,0.0,0.0,0.0,0.0,0.0,0.0,0.0,0.0,0.0,-3.334,-3.6045,-3.7719,-3.7957,-3.3282,-3.0685,0.0,0.0,0.0,0.0,0.0,0.0,0.0,0.0,0.0,0.0,0.0,0.0,0.0,0.0,0.0,0.0,0.0,0.0,0.0,0.0,0.0,0.0,0.0,0.0,0.0,0.0,0.0,0.0,0.0,0.0,0.0,0.0,0.0,0.0,0.0,0.0,0.0,0.0,0.0,0.0,0.0,0.0,0.0,0.0,0.0,0.0,0.0,0.0,0.0,0.0,0.0,0.0,0.0,0.0,0.0,0.0,0.0,0.0,0.0,0.0,0.0,0.0,0.0,0.0,0.0,0.0,0.0,0.0,0.0,0.0,0.0,0.0,0.0,0.0,0.0,0.0,0.0,0.0,0.0,0.0,0.0,0.0,0.0,0.0,0.0,0.0,0.0,0.0,0.0,0.0,0.0,0.0,0.0,0.0,0.0,0.0,0.0,0.0,0.0,0.0,0.0,0.0,0.0,0.0,0.0,0.0,0.0,0.0,0.0,-3.5907,-3.8248,-3.9681,-4.0035,-3.4763,-3.1891,-3.1743,0.0,0.0,0.0,0.0,0.0,0.0,0.0,0.0,0.0,0.0,0.0,0.0,0.0,0.0,0.0,0.0,0.0,0.0,0.0,0.0,0.0,0.0,0.0,0.0,0.0,0.0,0.0,0.0,0.0,0.0,0.0,0.0,0.0,0.0,0.0,0.0,0.0,0.0,0.0,0.0,0.0,0.0,0.0,0.0,0.0,0.0,0.0,0.0,0.0,0.0,0.0,0.0,0.0,0.0,0.0,0.0,0.0,0.0,0.0,0.0,0.0,0.0,0.0,0.0,0.0,0.0,0.0,0.0,0.0,0.0,0.0,0.0,0.0,0.0,0.0,0.0,0.0,0.0,0.0,0.0,0.0,0.0,0.0,0.0,0.0,0.0,0.0,0.0,0.0,0.0,0.0,0.0,0.0,0.0,0.0,0.0,0.0,0.0,0.0,0.0,0.0,0.0,0.0,0.0,0.0,0.0,0.0,0.0,-4.0887,-4.3327,-4.3028,-3.9912,-3.7738,-3.4122,0.0,0.0,0.0,0.0,0.0,0.0,0.0,0.0,0.0,0.0,0.0,0.0,0.0,0.0,0.0,0.0,0.0,0.0,0.0,0.0,0.0,0.0,0.0,0.0,0.0,0.0,0.0,0.0,0.0,0.0,0.0,0.0,0.0,0.0,0.0,0.0,0.0,0.0,0.0,0.0,0.0,0.0,0.0,0.0,0.0,0.0,0.0,0.0,0.0,0.0,0.0,0.0,0.0,0.0,0.0,0.0,0.0,0.0,0.0,0.0,0.0,0.0,0.0,0.0,0.0,0.0,0.0,0.0,0.0,0.0,0.0,0.0,0.0,0.0,0.0,0.0,0.0,0.0,0.0,0.0,0.0,0.0,0.0,0.0,0.0,0.0,0.0,0.0,0.0,0.0,0.0,0.0,0.0,0.0,0.0,0.0,0.0,0.0,0.0,0.0,0.0,0.0,0.0,0.0,0.0,0.0,0.0,0.0,0.0,-4.342,-4.648,-4.7048,-4.4874,-3.9596,-3.6295,0.0,0.0,0.0,0.0,0.0,0.0,0.0,0.0,0.0,0.0,0.0,0.0,0.0,0.0,0.0,0.0,0.0,0.0,0.0,0.0,0.0,0.0,0.0,0.0,0.0,0.0,0.0,0.0,0.0,0.0,0.0,0.0,0.0,0.0,0.0,0.0,0.0,0.0,0.0,0.0,0.0,0.0,0.0,0.0,0.0,0.0,0.0,0.0,0.0,0.0,0.0,0.0,0.0,0.0,0.0,0.0,0.0,0.0,0.0,0.0,0.0,0.0,0.0,0.0,0.0,0.0,0.0,0.0,0.0,0.0,0.0,0.0,0.0,0.0,0.0,0.0,0.0,0.0,0.0,0.0,0.0,0.0,0.0,0.0,0.0,0.0,0.0,0.0,0.0,0.0,0.0,0.0,0.0,0.0,0.0,0.0,0.0,0.0,0.0,0.0,0.0,0.0,0.0,0.0,0.0,0.0,0.0,0.0,-4.1298,-4.5557,-4.8461,-4.9298,-4.7971,-4.3085,-3.9315,0.0,0.0,0.0,0.0,0.0,0.0,0.0,0.0,0.0,0.0,0.0,0.0,0.0,0.0,0.0,0.0,0.0,0.0,0.0,0.0,0.0,0.0,0.0,0.0,0.0,0.0,0.0,0.0,0.0,0.0,0.0,0.0,0.0,0.0,0.0,0.0,0.0,0.0,0.0,0.0,0.0,0.0,0.0,0.0,0.0,0.0,0.0,0.0,0.0,0.0,0.0,0.0,0.0,0.0,0.0,0.0,0.0,0.0,0.0,0.0,0.0,0.0,0.0,0.0,0.0,0.0,0.0,0.0,0.0,0.0,0.0,0.0,0.0,0.0,0.0,0.0,0.0,0.0,0.0,0.0,0.0,0.0,0.0,0.0,0.0,0.0,0.0,0.0,0.0,0.0,0.0,0.0,0.0,0.0,0.0,0.0,0.0,0.0,0.0,0.0,0.0,0.0,0.0,0.0,0.0,0.0,0.0,0.0,-4.2956,-4.7109,-4.9492,-5.0288,-4.9375,-4.6845,-4.247,0.0,0.0,0.0,0.0,0.0,0.0,0.0,0.0,0.0,0.0,0.0,0.0,0.0,0.0,0.0,0.0,0.0,0.0,0.0,0.0,0.0,0.0,0.0,0.0,0.0,0.0,0.0,0.0,0.0,0.0,0.0,0.0,0.0,0.0,0.0,0.0,0.0,0.0,0.0,0.0,0.0,0.0,0.0,0.0,0.0,0.0,0.0,0.0,0.0,0.0,0.0,0.0,0.0,0.0,0.0,0.0,0.0,0.0,0.0,0.0,0.0,0.0,0.0,0.0,0.0,0.0,0.0,0.0,0.0,0.0,0.0,0.0,0.0,0.0,0.0,0.0,0.0,0.0,0.0,0.0,0.0,0.0,0.0,0.0,0.0,0.0,0.0,0.0,0.0,0.0,0.0,0.0,0.0,0.0,0.0,0.0,0.0,0.0,0.0,0.0,0.0,0.0,0.0,0.0,0.0,0.0,0.0,0.0,-4.4283,-4.7154,-4.9589,-5.0405,-4.9423,-4.6259,-4.267,0.0,0.0,0.0,0.0,0.0,0.0,0.0,0.0,0.0,0.0,0.0,0.0,0.0,0.0,0.0,0.0,0.0,0.0,0.0,0.0,0.0,0.0,0.0,0.0,0.0,0.0,0.0,0.0,0.0,0.0,0.0,0.0,0.0,0.0,0.0,0.0,0.0,0.0,0.0,0.0,0.0,0.0,0.0,0.0,0.0,0.0,0.0,0.0,-2.0484,0.0,0.0,0.0,0.0,0.0,0.0,0.0,0.0,0.0,0.0,0.0,0.0,0.0,0.0,0.0,0.0,0.0,0.0,0.0,0.0,0.0,0.0,0.0,0.0,0.0,0.0,0.0,0.0,0.0,0.0,0.0,0.0,0.0,0.0,0.0,0.0,0.0,0.0,0.0,0.0,0.0,0.0,0.0,0.0,0.0,0.0,0.0,0.0,0.0,0.0,0.0,0.0,0.0,0.0,0.0,0.0,0.0,0.0,0.0,-4.525,-4.7742,-4.9819,-5.0621,-4.9942,-4.7471,-4.3951,0.0,0.0,0.0,0.0,0.0,0.0,0.0,0.0,0.0,0.0,0.0,0.0,0.0,0.0,0.0,0.0,0.0,0.0,0.0,0.0,0.0,0.0,0.0,0.0,0.0,0.0,0.0,0.0,0.0,0.0,0.0,0.0,0.0,0.0,0.0,0.0,0.0,0.0,0.0,0.0,0.0,0.0,0.0,0.0,0.0,0.0,0.0,0.0,0.0,0.0,0.0,0.0,0.0,0.0,0.0,0.0,0.0,0.0,0.0,0.0,0.0,0.0,0.0,0.0,0.0,0.0,0.0,0.0,0.0,0.0,0.0,0.0,0.0,0.0,0.0,0.0,0.0,0.0,0.0,0.0,0.0,0.0,0.0,0.0,0.0,0.0,0.0,0.0,0.0,0.0,0.0,0.0,0.0,0.0,0.0,0.0,0.0,0.0,0.0,0.0,0.0,0.0,0.0,0.0,0.0,0.0,0.0,-4.2268,-4.5758,-4.8421,-5.0072,-5.0858,-5.0683,-4.9009,-4.5393,-3.9727,0.0,0.0,0.0,0.0,0.0,0.0,0.0,0.0,0.0,0.0,0.0,0.0,0.0,0.0,0.0,0.0,0.0,0.0,0.0,0.0,0.0,0.0,0.0,0.0,0.0,0.0,0.0,0.0,0.0,0.0,0.0,0.0,0.0,0.0,0.0,0.0,0.0,0.0,-2.2963,-2.4138,0.0,0.0,0.0,0.0,0.0,0.0,0.0,0.0,-2.1955,0.0,0.0,0.0,0.0,0.0,0.0,0.0,0.0,0.0,0.0,0.0,0.0,0.0,0.0,0.0,0.0,0.0,0.0,0.0,0.0,0.0,0.0,0.0,0.0,0.0,0.0,0.0,0.0,0.0,0.0,0.0,0.0,0.0,0.0,0.0,0.0,0.0,0.0,0.0,0.0,0.0,0.0,0.0,0.0,0.0,0.0,0.0,0.0,0.0,0.0,0.0,0.0,0.0,0.0,0.0,0.0,-4.1292,-4.2968,-4.5297,-4.8427,-5.0124,-5.0889,-5.0654,-4.9009,-4.5643,-4.0554,0.0,0.0,0.0,0.0,0.0,0.0,0.0,0.0,0.0,0.0,0.0,0.0,0.0,0.0,0.0,0.0,0.0,0.0,0.0,0.0,0.0,0.0,0.0,0.0,0.0,0.0,0.0,0.0,0.0,0.0,0.0,0.0,0.0,0.0,0.0,0.0,0.0,0.0,0.0,-2.5462,-2.5709,0.0,0.0,0.0,0.0,0.0,0.0,0.0,0.0,-2.1849,0.0,0.0,0.0,0.0,0.0,0.0,0.0,0.0,0.0,0.0,0.0,0.0,0.0,0.0,0.0,0.0,0.0,0.0,0.0,0.0,0.0,0.0,0.0,0.0,0.0,0.0,0.0,0.0,0.0,0.0,0.0,0.0,0.0,0.0,0.0,0.0,0.0,0.0,0.0,0.0,0.0,0.0,0.0,0.0,0.0,0.0,0.0,0.0,0.0,0.0,0.0,0.0,0.0,0.0,0.0,-4.0077,-4.4098,-4.6863,-4.8373,-5.0066,-5.0662,-5.001,-4.749,-4.4162,0.0,0.0,0.0,0.0,0.0,0.0,0.0,0.0,0.0,0.0,0.0,0.0,0.0,0.0,0.0,0.0,0.0,0.0,0.0,0.0,0.0,0.0,0.0,0.0,0.0,0.0,0.0,0.0,0.0,0.0,0.0,0.0,0.0,0.0,0.0,0.0,0.0,0.0,0.0,0.0,-2.5801,-2.6259,-2.5959,0.0,0.0,0.0,0.0,0.0,0.0,-2.1716,-2.1652,0.0,0.0,0.0,0.0,0.0,0.0,0.0,0.0,0.0,0.0,0.0,0.0,0.0,0.0,0.0,0.0,0.0,0.0,0.0,0.0,0.0,0.0,0.0,0.0,0.0,0.0,0.0,0.0,0.0,0.0,0.0,0.0,0.0,0.0,0.0,0.0,0.0,0.0,0.0,0.0,0.0,0.0,0.0,0.0,0.0,0.0,0.0,0.0,0.0,0.0,0.0,0.0,0.0,0.0,0.0,-3.8425,-4.4499,-4.7889,-4.8326,-4.9997,-5.0408,-4.9365,-4.6413,-4.3085,0.0,0.0,0.0,0.0,0.0,0.0,0.0,0.0,0.0,0.0,0.0,0.0,0.0,0.0,0.0,0.0,0.0,0.0,0.0,0.0,0.0,0.0,0.0,0.0,0.0,0.0,0.0,0.0,0.0,0.0,0.0,0.0,0.0,0.0,0.0,0.0,0.0,0.0,0.0,0.0,0.0,-2.6838,-2.6249,-2.4392,0.0,0.0,0.0,0.0,-2.2006,-2.2377,0.0,0.0,0.0,0.0,0.0,0.0,0.0,0.0,0.0,0.0,0.0,0.0,0.0,0.0,0.0,0.0,0.0,0.0,0.0,0.0,0.0,0.0,0.0,0.0,0.0,0.0,0.0,0.0,0.0,0.0,0.0,0.0,0.0,0.0,0.0,0.0,0.0,0.0,0.0,0.0,0.0,0.0,0.0,0.0,0.0,0.0,0.0,0.0,0.0,0.0,0.0,0.0,0.0,0.0,0.0,0.0,-3.8281,-4.2707,-4.6028,-4.8241,-4.9997,-5.0428,-4.9423,-4.7567,-4.4297,0.0,0.0,0.0,0.0,0.0,0.0,0.0,0.0,0.0,0.0,0.0,0.0,0.0,0.0,0.0,0.0,0.0,0.0,0.0,0.0,0.0,0.0,0.0,0.0,0.0,0.0,0.0,0.0,0.0,0.0,0.0,0.0,0.0,0.0,0.0,0.0,0.0,0.0,0.0,0.0,0.0,-2.7876,-2.5136,-2.528,-2.5205,0.0,0.0,-2.3879,-2.4987,-2.5174,0.0,0.0,0.0,0.0,0.0,0.0,0.0,0.0,0.0,0.0,0.0,0.0,0.0,0.0,0.0,0.0,0.0,0.0,0.0,0.0,0.0,0.0,0.0,0.0,0.0,0.0,0.0,0.0,0.0,0.0,0.0,0.0,0.0,0.0,0.0,0.0,0.0,0.0,0.0,0.0,0.0,0.0,0.0,0.0,0.0,0.0,0.0,0.0,0.0,0.0,0.0,0.0,0.0,0.0,0.0,-3.4923,-3.8181,-4.3266,-4.6646,-4.8144,-4.9406,-4.9602,-4.8682,-4.6124,-4.2566,0.0,0.0,0.0,0.0,0.0,0.0,0.0,0.0,0.0,0.0,0.0,0.0,0.0,0.0,0.0,0.0,0.0,0.0,0.0,0.0,0.0,0.0,0.0,0.0,0.0,0.0,0.0,0.0,0.0,0.0,0.0,0.0,0.0,0.0,0.0,0.0,0.0,0.0,0.0,0.0,0.0,0.0,-2.6634,-2.6044,0.0,0.0,0.0,-2.45,-2.475,0.0,0.0,0.0,0.0,0.0,0.0,0.0,0.0,0.0,0.0,0.0,0.0,0.0,0.0,0.0,0.0,0.0,0.0,0.0,0.0,0.0,0.0,0.0,0.0,0.0,0.0,0.0,0.0,0.0,0.0,0.0,0.0,0.0,0.0,0.0,0.0,0.0,0.0,0.0,0.0,0.0,0.0,0.0,0.0,0.0,0.0,0.0,0.0,0.0,0.0,0.0,0.0,0.0,0.0,0.0,0.0,0.0,-3.8034,-4.3713,-4.7003,-4.7798,-4.8644,-4.8682,-4.7769,-4.4932,0.0,0.0,0.0,0.0,0.0,0.0,0.0,0.0,0.0,0.0,0.0,0.0,0.0,0.0,0.0,0.0,0.0,0.0,0.0,0.0,0.0,0.0,0.0,0.0,0.0,0.0,0.0,-1.9919,0.0,0.0,0.0,0.0,0.0,0.0,0.0,0.0,0.0,0.0,0.0,0.0,0.0,0.0,-2.621,-2.7148,-2.6484,-2.6069,0.0,0.0,-2.5122,-2.4567,-2.475,-2.392,0.0,0.0,0.0,0.0,0.0,0.0,0.0,0.0,0.0,0.0,0.0,0.0,0.0,0.0,0.0,0.0,0.0,0.0,0.0,0.0,0.0,0.0,0.0,0.0,0.0,0.0,0.0,0.0,0.0,0.0,0.0,0.0,0.0,0.0,0.0,0.0,0.0,0.0,0.0,0.0,0.0,0.0,0.0,0.0,0.0,0.0,0.0,0.0,0.0,0.0,0.0,0.0,0.0,0.0,0.0,-3.8027,-4.3082,-4.6103,-4.6962,-4.775,-4.7798,-4.6981,-4.5182,-4.1854,0.0,0.0,0.0,0.0,0.0,0.0,0.0,0.0,0.0,0.0,0.0,0.0,0.0,0.0,0.0,0.0,0.0,0.0,0.0,0.0,0.0,0.0,0.0,0.0,0.0,0.0,0.0,0.0,0.0,0.0,0.0,0.0,0.0,0.0,0.0,0.0,0.0,0.0,0.0,0.0,0.0,-2.6444,-2.497,-2.6357,-2.7266,0.0,0.0,-2.6394,-2.5603,-2.6559,-2.5776,-2.0848,0.0,0.0,0.0,0.0,0.0,0.0,0.0,0.0,0.0,0.0,0.0,0.0,0.0,0.0,0.0,0.0,0.0,0.0,0.0,0.0,0.0,0.0,0.0,0.0,0.0,0.0,0.0,0.0,0.0,0.0,0.0,0.0,0.0,0.0,0.0,0.0,0.0,0.0,0.0,0.0,0.0,0.0,0.0,0.0,0.0,0.0,0.0,0.0,0.0,0.0,0.0,0.0,0.0,-3.3781,-3.777,-4.2135,-4.5105,-4.6587,-4.6798,-4.6787,-4.6655,-4.4959,-4.1763,0.0,0.0,0.0,0.0,0.0,0.0,0.0,0.0,0.0,0.0,0.0,0.0,0.0,0.0,0.0,0.0,0.0,0.0,0.0,0.0,0.0,0.0,0.0,0.0,0.0,0.0,0.0,0.0,-2.2556,-2.2449,-2.1142,0.0,0.0,0.0,0.0,0.0,0.0,0.0,0.0,0.0,0.0,-2.5588,-2.5668,-2.6718,0.0,0.0,-2.5882,-2.5846,-2.5471,-2.4766,-2.3338,-2.0719,-1.9081,0.0,0.0,0.0,0.0,0.0,0.0,0.0,0.0,0.0,0.0,0.0,0.0,0.0,0.0,0.0,0.0,0.0,0.0,0.0,0.0,0.0,0.0,0.0,0.0,0.0,0.0,0.0,0.0,0.0,0.0,0.0,0.0,0.0,0.0,0.0,0.0,0.0,0.0,0.0,0.0,0.0,0.0,0.0,0.0,0.0,0.0,0.0,0.0,0.0,0.0,0.0,0.0,-3.3242,-3.7534,-4.1298,-4.411,-4.5943,-4.5801,-4.5843,-4.6061,-4.4685,-4.1787,0.0,0.0,0.0,0.0,0.0,0.0,0.0,0.0,0.0,0.0,0.0,0.0,0.0,0.0,0.0,0.0,0.0,0.0,0.0,0.0,0.0,0.0,0.0,0.0,0.0,0.0,0.0,0.0,-2.3449,-2.2902,-2.0922,0.0,0.0,0.0,0.0,0.0,0.0,0.0,0.0,0.0,0.0,-2.5061,-2.5768,-2.6252,-2.608,-2.4713,-2.4789,-2.482,-2.4324,-2.3329,-2.2003,-2.032,0.0,0.0,0.0,0.0,0.0,0.0,0.0,0.0,0.0,0.0,0.0,0.0,0.0,0.0,0.0,0.0,0.0,0.0,0.0,0.0,0.0,0.0,0.0,0.0,0.0,0.0,0.0,0.0,0.0,0.0,0.0,0.0,0.0,0.0,0.0,0.0,0.0,0.0,0.0,0.0,0.0,0.0,0.0,0.0,0.0,0.0,0.0,0.0,0.0,0.0,0.0,0.0,0.0,-3.3174,-3.7258,-4.0666,-4.3166,-4.4781,-4.4826,-4.4965,-4.5199,-4.435,-4.2064,-3.8136,0.0,0.0,0.0,0.0,0.0,0.0,0.0,0.0,0.0,0.0,0.0,0.0,0.0,0.0,0.0,0.0,0.0,0.0,0.0,0.0,0.0,0.0,0.0,0.0,0.0,0.0,-2.1937,-2.1964,-2.1355,0.0,0.0,0.0,0.0,0.0,0.0,0.0,0.0,0.0,0.0,-2.4181,-2.5109,-2.4691,-2.4664,-2.427,-2.2993,-2.3382,-2.3379,-2.212,-2.2836,-2.2603,0.0,0.0,0.0,0.0,0.0,0.0,0.0,0.0,0.0,0.0,0.0,0.0,0.0,0.0,0.0,0.0,0.0,0.0,0.0,0.0,0.0,0.0,0.0,0.0,0.0,0.0,0.0,-3.0574,-2.8936,0.0,0.0,0.0,0.0,0.0,0.0,0.0,0.0,0.0,0.0,0.0,-3.6955,-3.7885,0.0,0.0,0.0,0.0,0.0,0.0,0.0,0.0,0.0,0.0,0.0,0.0,-3.4169,-3.7902,-4.0993,-4.3203,-4.4482,-4.436,-4.4465,-4.4919,-4.4181,-4.1783,-3.7564,0.0,0.0,0.0,0.0,0.0,0.0,0.0,0.0,0.0,0.0,0.0,0.0,0.0,0.0,0.0,0.0,0.0,0.0,0.0,0.0,0.0,0.0,0.0,0.0,0.0,-2.2374,0.0,0.0,0.0,0.0,0.0,0.0,0.0,0.0,0.0,0.0,0.0,-2.356,-2.4751,-2.4836,-2.4652,-2.4303,-2.4071,-2.356,0.0,0.0,0.0,0.0,0.0,0.0,0.0,0.0,0.0,0.0,0.0,0.0,0.0,0.0,-1.7336,-1.5338,-1.54,-1.5679,-1.5268,0.0,0.0,0.0,0.0,0.0,0.0,0.0,0.0,0.0,0.0,0.0,0.0,0.0,0.0,0.0,0.0,-3.2116,0.0,0.0,0.0,0.0,0.0,0.0,0.0,0.0,-3.8373,-4.0176,-4.0468,-4.1381,-4.1034,0.0,-3.9275,-3.6519,0.0,0.0,0.0,0.0,0.0,0.0,0.0,0.0,-3.5045,-3.8515,-4.1289,-4.3218,-4.4213,-4.4075,-4.425,-4.475,-4.3704,-4.1634,-3.8439,-3.4621,-3.1496,0.0,0.0,0.0,0.0,0.0,0.0,0.0,0.0,0.0,0.0,0.0,0.0,0.0,0.0,0.0,0.0,0.0,0.0,0.0,0.0,0.0,0.0,0.0,-2.3468,0.0,0.0,0.0,0.0,0.0,0.0,0.0,0.0,0.0,-2.3105,-2.392,-2.4909,-2.5891,-2.5312,-2.4567,-2.4026,0.0,0.0,0.0,0.0,0.0,0.0,0.0,-1.9878,-1.8885,-1.8449,-1.8046,-1.761,-1.7923,-1.8196,-1.8043,0.0,0.0,-1.6179,-1.6464,-1.6868,-1.6473,-1.6997,-1.763,-1.8022,-1.8114,-1.8179,0.0,0.0,0.0,0.0,0.0,0.0,0.0,0.0,-3.8581,-3.8519,0.0,-3.6687,0.0,0.0,0.0,0.0,0.0,0.0,0.0,0.0,-4.3641,-4.5316,-4.4587,-4.4495,-4.3997,-4.316,-4.3761,-4.2317,-3.8823,-3.4084,0.0,0.0,0.0,0.0,0.0,0.0,-3.5851,-3.9063,-4.1511,-4.3166,-4.3968,-4.4002,-4.426,-4.4704,-4.3088,-4.1703,-4.0627,-3.7596,-3.436,-3.0947,-2.8124,0.0,0.0,0.0,0.0,0.0,0.0,0.0,0.0,0.0,0.0,0.0,0.0,0.0,0.0,0.0,0.0,0.0,0.0,0.0,0.0,-2.3831,0.0,0.0,0.0,0.0,0.0,0.0,0.0,0.0,0.0,0.0,-2.3254,-2.5246,-2.6718,-2.6197,0.0,0.0,0.0,0.0,-2.0995,-1.9978,-1.9743,-1.9753,-1.966,-2.0062,-2.0049,-1.9138,0.0,0.0,-1.8265,-1.8428,-1.8622,-1.8163,-1.8119,-1.8043,-1.7977,-1.8019,-1.8104,-1.8076,-1.8141,-1.8578,-1.9525,-1.9695,-1.9867,-4.5767,0.0,0.0,0.0,0.0,-4.1177,-4.2325,-4.4531,-4.3912,-4.2989,-4.1814,-4.0759,0.0,0.0,0.0,0.0,0.0,0.0,-3.9951,-4.1418,-4.3208,-4.4462,-4.5306,-4.5201,-4.495,-4.4591,-4.4758,-4.3999,-4.2364,-4.0463,-3.6511,-3.0857,0.0,0.0,0.0,0.0,-3.8563,-4.0752,-4.2575,-4.3643,-4.4005,-4.4177,-4.4316,-4.444,-4.3491,-4.2328,-4.1023,-3.8853,-3.6312,-3.3386,-3.0675,0.0,0.0,0.0,0.0,0.0,0.0,0.0,0.0,0.0,0.0,0.0,0.0,0.0,0.0,0.0,0.0,0.0,0.0,0.0,-2.2768,-2.442,-2.5168,0.0,0.0,0.0,0.0,0.0,0.0,0.0,0.0,0.0,-2.629,-2.6721,-2.7062,0.0,0.0,-2.4598,-2.4023,-2.2116,-2.072,-2.0752,0.0,0.0,0.0,-1.9496,-1.9684,-1.9049,-1.9465,-1.9766,-1.9429,-1.9533,-1.9649,-1.9507,-1.9213,-1.8905,-1.8602,-1.8633,-1.8742,-1.8803,-1.9384,-2.0009,-2.0347,-2.0438,-2.0478,-5.1,-4.7731,-4.6037,-4.5526,-4.5793,-4.5278,-4.6032,-4.7579,-4.7057,-4.6454,-4.5796,-4.4632,-4.2636,-4.0042,-3.8178,0.0,0.0,0.0,-4.195,-4.3582,-4.4072,-4.4778,-4.563,-4.5526,-4.5419,-4.5279,-4.5197,-4.4895,-4.4303,-4.3965,-4.11,-3.5956,0.0,0.0,-3.5179,-3.786,-4.0145,-4.1906,-4.328,-4.4017,-4.4166,-4.4519,-4.4397,-4.3717,-4.3433,-4.2595,-4.1054,-3.931,-3.737,-3.5245,-3.2257,-2.9288,0.0,0.0,0.0,0.0,0.0,0.0,0.0,0.0,0.0,0.0,0.0,-1.8177,-1.711,0.0,0.0,0.0,-2.042,-2.2159,-2.4842,-2.622,0.0,0.0,0.0,0.0,0.0,0.0,0.0,-2.865,-2.8902,-2.8708,-2.8049,-2.7998,-2.7718,-2.6865,-2.5669,-2.4531,-2.3531,0.0,-2.0673,-2.0459,-2.0118,-1.9612,-1.9058,-1.9259,-1.953,-1.9514,-1.9449,-1.9725,-2.0204,-2.0047,-1.9846,-1.9977,-1.9562,-1.9037,-1.8742,-1.8703,-1.8735,-1.8972,-1.9708,-2.0385,-2.0649,-2.0699,-2.0674,-5.5128,-5.5423,-5.2358,-5.0626,-4.9892,-4.9892,-4.9405,-4.8626,-4.8626,-4.9078,-4.9685,-4.8125,-4.6517,-4.4829,-4.1746,0.0,0.0,-4.3276,-4.4386,-4.5822,-4.5808,-4.5814,-4.578,-4.5661,-4.5518,-4.5419,-4.5352,-4.5262,-4.5154,-4.5269,-4.4043,-4.1518,-3.9717,-3.8845,-3.8875,-3.9768,-4.1061,-4.2723,-4.3718,-4.4303,-4.4484,-4.4966,-4.4451,-4.2923,-4.301,-4.2371,-4.084,-3.9109,-3.7618,-3.6329,-3.3115,-2.9957,-2.7056,0.0,0.0,0.0,0.0,0.0,0.0,0.0,0.0,0.0,0.0,0.0,0.0,0.0,0.0,0.0,-2.2777,0.0,-2.7455,-2.8457,0.0,0.0,0.0,-2.9227,-2.8904,-2.9726,-3.0482,-3.0919,0.0,0.0,-2.8953,0.0,-2.8563,-2.6383,-2.5629,-2.4636,-2.2696,-2.1762,-2.0769,-1.9766,-1.9381,-1.9292,-1.9265,-1.9277,-1.95,-2.0048,-1.958,-1.9481,-2.039,-2.0047,-1.9626,-2.0009,-1.9386,-1.8742,-1.8709,-1.8384,-1.8286,-1.8893,-1.9448,-1.9991,-2.0549,-2.0699,-2.0662,-5.6753,-5.6266,-5.52,-5.3498,-5.1554,-5.1567,-5.1167,-5.0474,-5.0435,-5.024,-4.9854,-4.9445,-4.8347,-4.6732,-4.5984,-4.5487,-4.5168,-4.5356,-4.5652,-4.6016,-4.5982,-4.5865,-4.5725,-4.5658,-4.5563,-4.5482,-4.5528,-4.5516,-4.5492,-4.5568,-4.5115,-4.4204,-4.3702,-4.2288,-4.008,-4.1581,-4.2903,-4.3808,-4.4266,-4.4663,-4.5019,-4.5236,-4.4699,-4.3303,-4.2084,-4.0976,-3.993,-3.8136,-3.6569,-3.5255,-3.3739,-3.1465,-2.825,-2.5366,0.0,0.0,0.0,0.0,0.0,0.0,0.0,0.0,0.0,-2.0558,-1.8407,0.0,-2.2519,0.0,-2.468,-2.6033,-2.6471,-2.7957,0.0,0.0,-3.1526,-3.2494,-3.2866,-3.3498,-3.3762,-3.3334,-3.3062,-3.2316,-3.0906,-3.0394,-2.9145,-2.6524,-2.5647,-2.4898,-2.3806,-2.2226,-2.1126,-2.0692,-1.9883,-1.9292,-1.9292,-1.9292,-1.9423,-1.9731,-1.9626,-1.9627,-1.9946,-1.9967,-1.9944,-2.0042,-1.9638,-1.9146,-1.8753,-1.8324,-1.8278,-1.8881,-1.941,-1.9991,-2.0574,-2.0699,-2.0687,-5.7966,-5.7297,-5.6731,-5.5247,-5.3246,-5.2937,-5.2375,-5.163,-5.1277,-5.0906,-5.0497,-5.0169,-4.9302,-4.8074,-4.7701,-4.7263,-4.6713,-4.632,-4.6128,-4.6098,-4.6052,-4.5988,-4.5866,-4.5757,-4.5691,-4.5633,-4.5645,-4.5619,-4.5614,-4.567,-4.5596,-4.5367,-4.5358,-4.4422,-4.2654,-4.3391,-4.4031,-4.4411,-4.4787,-4.5138,-4.5478,-4.5206,-4.4181,-4.2362,-4.1745,-4.0472,-3.8436,-3.7655,-3.6454,-3.4708,-3.3271,-3.1251,-2.8453,-2.6077,-2.3911,0.0,0.0,0.0,0.0,0.0,0.0,0.0,0.0,0.0,0.0,0.0,-2.3726,0.0,-2.6271,-2.7516,-2.8378,-3.0349,-3.1845,-3.2502,-3.4461,-3.5632,-3.5363,-3.574,-3.5754,-3.507,-3.4089,-3.2946,-3.1616,-3.0601,-2.8946,-2.6126,-2.548,-2.4802,-2.3401,-2.2021,-2.1088,-2.0779,-1.9923,-1.9341,-1.9429,-1.9341,-1.9513,-1.9966,-1.9465,-1.9255,-2.0035,-1.9745,-1.9528,-1.9933,-1.954,-1.9026,-1.875,-1.813,-1.7969,-1.8774,-1.9239,-1.9734,-2.0524,-2.0699,-2.0674,-5.8776,-5.8291,-5.7464,-5.625,-5.482,-5.4103,-5.3238,-5.2297,-5.167,-5.1352,-5.1286,-5.0642,-4.9805,-4.8867,-4.8105,-4.7614,-4.7304,-4.6542,-4.6191,-4.6128,-4.6118,-4.6115,-4.6112,-4.5931,-4.5843,-4.5841,-4.5792,-4.5744,-4.568,-4.5725,-4.5751,-4.5738,-4.5757,-4.5613,-4.5367,-4.4978,-4.4794,-4.4829,-4.5246,-4.5606,-4.5862,-4.5067,-4.3524,-4.1356,-4.1462,-4.0142,-3.7142,-3.7276,-3.6453,-3.4312,-3.2487,-3.0522,-2.8303,-2.6341,-2.456,0.0,-2.2372,0.0,0.0,0.0,0.0,0.0,0.0,0.0,0.0,-2.3866,-2.4822,-2.6675,-2.7885,-2.9294,-3.1073,-3.3356,-3.4651,-3.4442,-3.6828,-3.794,-3.6719,-3.6827,-3.6741,-3.5948,-3.4584,-3.3131,-3.1651,-3.0432,-2.8695,-2.6231,-2.5622,-2.4861,-2.2905,-2.189,-2.1126,-2.043,-1.9814,-1.9508,-1.9627,-1.9508,-1.9643,-2.0226,-1.9469,-1.8914,-2.0334,-1.9611,-1.9054,-1.9792,-1.9409,-1.8818,-1.872,-1.7923,-1.7695,-1.8629,-1.8869,-1.9311,-2.0359,-2.0699,-2.0649,-5.9088,-5.856,-5.763,-5.6746,-5.587,-5.5136,-5.3942,-5.2539,-5.2395,-5.1964,-5.1366,-5.123,-5.0332,-4.8945,-4.873,-4.789,-4.6542,-4.6347,-4.6268,-4.6265,-4.6206,-4.6171,-4.6169,-4.6076,-4.6066,-4.6117,-4.6111,-4.6106,-4.6074,-4.6095,-4.6036,-4.5946,-4.5946,-4.5854,-4.5706,0.0,0.0,0.0,-4.5721,-4.5804,-4.5785,-4.5081,-4.4117,-4.2908,-4.0277,0.0,-3.776,-3.6094,-3.4567,-3.3347,-3.2952,0.0,0.0,0.0,0.0,0.0,0.0,0.0,0.0,0.0,0.0,0.0,-2.482,-2.5311,-2.5185,-2.7576,-2.9166,-2.9194,-3.0243,-3.0799,-3.048,-3.2583,-3.3981,-3.4028,-3.619,-3.7262,-3.6226,-3.6795,-3.669,-3.4917,-3.4623,-3.3755,-3.1771,-3.1176,-2.9947,-2.7313,-2.6655,-2.5864,-2.4358,-2.2857,-2.1797,-2.1262,-2.0479,-1.9942,-2.0137,-1.9981,-1.9829,-1.9621,-1.9735,-1.9579,-1.9522,-1.9746,-1.978,-2.0064,-1.9638,-1.9113,-1.8783,-1.7962,-1.7472,-1.814,-1.8326,-1.883,-2.0357,-2.0699,-2.0649,-5.9946,0.0,-5.8384,-5.7573,0.0,-5.6043,-5.5025,-5.3873,-5.302,-5.2193,-5.1365,-5.0976,-5.0331,-4.9492,-4.8633,-4.7793,-4.6914,-4.6504,-4.6289,-4.6289,-4.6266,-4.6243,-4.6243,-4.621,-4.6223,-4.6248,-4.6233,-4.6235,-4.62,-4.6203,-4.6179,-4.6085,-4.6105,-4.6067,-4.5996,-4.5957,-4.5957,-4.5985,-4.5975,-4.5963,-4.5957,-4.5117,-4.4036,-4.2767,0.0,0.0,0.0,0.0,0.0,0.0,0.0,0.0,0.0,0.0,0.0,-2.652,-2.6982,-2.6721,-2.5516,-2.6465,-2.7148,-2.7008,-2.8685,-2.9213,-2.7976,-2.9737,-3.0951,-3.1062,-3.1815,-3.2257,-3.2216,-3.4006,-3.5237,-3.5333,-3.6927,-3.7672,-3.6874,-3.7068,-3.6868,-3.5678,-3.482,-3.3684,-3.2065,-3.1033,-2.9668,-2.7443,-2.6677,-2.6062,-2.4957,-2.3632,-2.2521,-2.1993,-2.1489,-2.1068,-2.0934,-2.1029,-2.0827,-2.034,-2.0169,-2.0106,-1.9883,-1.9743,-1.9758,-1.9955,-1.9529,-1.8971,-1.8676,-1.7726,-1.7144,-1.7859,-1.7953,-1.8363,-1.9867,-2.0428,-2.0562,-6.0754,-6.0001,-5.9095,-5.8304,-5.756,-5.6722,-5.5853,-5.4928,0.0,0.0,0.0,-5.0683,-5.0214,-4.9843,-4.8436,-4.7633,-4.7301,-4.6598,-4.6266,-4.6266,-4.6247,-4.6266,-4.6266,-4.6266,-4.6268,-4.6269,-4.6249,-4.623,-4.6171,-4.6152,-4.6152,-4.6132,-4.6152,-4.615,-4.6119,-4.5947,-4.5956,-4.61,-4.6009,-4.5991,-4.6081,-4.5035,-4.3746,-4.2218,-4.1578,-4.0043,-3.7459,-3.7841,-3.6719,-3.3821,-3.3409,-3.2312,-3.0266,-2.979,-2.9462,-2.9265,-3.0342,-3.029,-2.876,-3.0206,-3.0858,-3.0107,-3.1926,-3.2466,-3.0887,-3.1365,-3.1951,-3.258,-3.2997,-3.3437,-3.4061,-3.5538,-3.6514,-3.6536,-3.7545,-3.79,-3.7184,-3.7105,-3.6778,-3.6091,-3.4659,-3.3392,-3.2238,-3.08,-2.9188,-2.7524,-2.6816,-2.6057,-2.5252,-2.4143,-2.3117,-2.2649,-2.2387,-2.2226,-2.1935,-2.2086,-2.2014,-2.1083,-2.0702,-2.0554,-2.0369,-1.9868,-1.9662,-2.0009,-1.942,-1.9004,-1.8684,-1.7731,-1.7077,-1.7808,-1.7678,-1.7845,-1.9263,-1.9991,-2.0256,-6.0856,-6.0269,-5.9282,-5.8461,-5.7709,-5.6907,-5.5604,-5.4042,-5.3123,-5.2192,-5.1301,-5.1182,-5.0316,-4.892,-4.8644,-4.7719,-4.6326,-4.6186,-4.6131,0.0,-4.6128,-4.6128,-4.6147,-4.6131,-4.6125,-4.6115,-4.6079,-4.6022,-4.6029,-4.5974,-4.5938,-4.5942,-4.5938,-4.5906,-4.5861,-4.577,-4.5735,-4.5768,-4.5741,-4.5747,-4.5749,-4.4606,-4.3525,-4.2529,-4.068,-3.9117,-3.7945,-3.7618,-3.6897,-3.5735,-3.5471,-3.4602,-3.302,-3.2198,-3.1489,-3.0813,-3.1418,-3.1452,-3.0672,-3.1384,-3.2084,-3.2531,-3.291,-3.2975,-3.2765,-3.3323,-3.3742,-3.3838,-3.3881,-3.3971,-3.4159,-3.5161,-3.5864,-3.5902,-3.6431,-3.65,-3.5836,-3.5904,-3.5582,-3.4376,-3.3662,-3.2897,-3.1836,-3.0599,-2.9563,-2.8716,-2.767,-2.6939,-2.5931,-2.4623,-2.3618,-2.3398,-2.3117,-2.2872,-2.2798,-2.2835,-2.2506,-2.1352,-2.1199,-2.0918,-2.0118,-1.9886,-1.9841,-2.0063,-1.9899,-1.9571,-1.8923,-1.8231,-1.776,-1.7646,-1.7482,-1.7857,-1.8939,-1.945,-1.9745,-6.1334,-6.1013,-6.0109,-5.9234,-5.8411,-5.7051,-5.5755,-5.4494,-5.3662,-5.2528,-5.1299,-5.0825,-4.9901,-4.8703,-4.8197,-4.7307,-4.6112,-4.6105,-4.6118,-4.6118,-4.6118,-4.6118,-4.6118,-4.6118,-4.6114,-4.6084,-4.6013,-4.5992,-4.5978,-4.5925,-4.5905,-4.5899,-4.5875,-4.5777,-4.5713,-4.5629,-4.5566,-4.5475,-4.563,-4.5679,-4.5688,-4.5079,-4.425,-4.3155,-4.16,-4.0244,-3.9078,-3.8327,-3.7323,-3.5984,-3.5862,-3.5079,-3.3557,-3.3107,-3.2664,-3.2211,-3.2801,-3.2857,-3.2129,-3.2756,-3.3429,-3.4004,-3.4085,-3.4133,-3.4275,-3.4178,-3.4151,-3.43,-3.4407,-3.461,-3.488,-3.5571,-3.5989,-3.6032,-3.6322,-3.6125,-3.5364,-3.5171,-3.4717,-3.3627,-3.3005,-3.239,-3.1597,-3.0661,-2.9825,-2.9188,-2.8078,-2.6973,-2.6302,-2.5276,-2.4515,-2.4527,-2.436,-2.4059,-2.372,-2.4011,-2.3564,-2.2237,-2.1969,-2.1433,-2.0411,-2.005,-1.9876,-1.9787,-2.0001,-1.9952,-1.9257,-1.8849,-1.8472,-1.8238,-1.794,-1.8264,-1.9089,-1.9634,-1.9862,-6.1705,-6.1598,-6.0739,-5.9759,-5.867,-5.7283,-5.6088,-5.505,-5.4169,-5.2944,-5.155,-5.0644,-4.9699,-4.8662,-4.7969,-4.7073,-4.6154,-4.606,-4.6067,-4.6024,-4.6044,-4.6044,-4.6044,-4.6024,-4.6024,-4.6039,-4.5979,-4.5934,-4.5924,-4.59,-4.5846,-4.5834,-4.5769,-4.5676,-4.5566,-4.5512,-4.5419,-4.5328,-4.5438,-4.5481,-4.5491,-4.5274,-4.4573,-4.3395,-4.2527,-4.1365,-3.9863,-3.9079,-3.7959,-3.6468,-3.6248,-3.5607,-3.4435,-3.4133,-3.3939,-3.3814,-3.4247,-3.4278,-3.3678,-3.4136,-3.4634,-3.4977,-3.5095,-3.5171,-3.5251,-3.4771,-3.4456,-3.465,-3.4873,-3.5161,-3.5526,-3.6028,-3.6343,-3.6402,-3.6502,-3.6153,-3.5232,-3.4886,-3.4347,-3.3357,-3.255,-3.1893,-3.1451,-3.0642,-2.9806,-2.9035,-2.7971,-2.704,-2.6461,-2.5873,-2.5488,-2.5312,-2.5312,-2.5052,-2.4516,-2.4696,-2.4376,-2.3049,-2.2564,-2.1833,-2.0884,-2.0291,-1.9925,-1.9741,-2.0017,-2.0064,-1.9629,-1.9365,-1.9105,-1.8846,-1.8551,-1.8648,-1.9426,-1.9864,-2.0041,-6.1663,-6.1484,-6.0703,-5.9332,-5.794,-5.7638,-5.6628,-5.5104,-5.4188,-5.3244,-5.2264,-5.1445,-5.0156,-4.873,-4.853,-4.7536,-4.6008,-4.5912,-4.5906,-4.5841,-4.5828,-4.5848,-4.5841,-4.5835,-4.5848,-4.5828,-4.584,-4.5786,-4.5723,-4.5708,-4.5679,-4.5618,-4.5566,-4.5465,-4.541,-4.54,-4.5359,-4.5297,-4.5026,-4.4884,-4.4861,-4.4402,-4.3636,-4.2631,-4.2222,-4.1188,-3.9636,-3.9366,-3.8898,-3.8036,-3.756,-3.7253,-3.6999,-3.6394,-3.5874,-3.5569,-3.5596,-3.5498,-3.5199,-3.552,-3.5577,-3.5385,-3.5616,-3.5666,-3.5436,-3.5328,-3.5214,-3.5207,-3.5368,-3.5526,-3.5616,-3.6131,-3.6485,-3.6501,-3.662,-3.6377,-3.5356,-3.5039,-3.4495,-3.3415,-3.2138,-3.1444,-3.1395,-3.0319,-2.9216,-2.8738,-2.8147,-2.7438,-2.6803,-2.6339,-2.5716,-2.538,-2.5288,-2.5228,-2.5027,-2.4763,-2.4306,-2.364,-2.2823,-2.2001,-2.121,-2.0684,-2.0299,-2.025,-2.0375,-2.0396,-1.9884,-1.9555,-1.9569,-1.927,-1.9081,-1.9006,-1.9378,-1.9796,-2.0005,-6.1665,-6.1562,-6.1211,-6.0046,-5.8467,-5.7866,-5.6938,-5.5714,-5.4333,-5.3508,-5.3015,-5.1785,-5.0497,-4.934,-4.8837,-4.7901,-4.6732,-4.6151,-4.5912,-4.5854,-4.5833,-4.5807,-4.5807,-4.5807,-4.5807,-4.58,-4.581,-4.5673,-4.5473,-4.5264,-4.514,-4.5137,-4.5063,-4.4996,-4.4919,-4.4879,-4.4819,-4.4764,-4.4471,-4.4336,-4.4336,-4.4279,-4.3904,-4.3243,-4.2621,-4.1857,-4.0835,-4.0329,-3.9571,-3.8582,-3.8311,-3.7644,-3.6497,-3.6055,-3.5523,-3.4926,-3.5074,-3.5176,-3.5033,-3.5581,-3.5842,-3.5688,-3.582,-3.5864,-3.5803,-3.5454,-3.5412,-3.5856,-3.5776,-3.5754,-3.611,-3.6423,-3.647,-3.611,-3.6088,-3.5654,-3.4337,-3.3891,-3.3305,-3.2403,-3.1484,-3.0918,-3.0887,-3.0094,-2.9189,-2.8657,-2.8263,-2.7729,-2.6749,-2.6227,-2.5585,-2.4675,-2.4398,-2.4542,-2.4711,-2.4422,-2.3938,-2.3396,-2.2702,-2.2006,-2.1478,-2.1197,-2.0969,-2.0862,-2.1346,-2.141,-2.0843,-2.0998,-2.1054,-2.0334,-1.9946,-1.9986,-1.9898,-2.0245,-2.0358,-6.1639,-6.1571,-6.1561,-6.0519,-5.8841,-5.8207,-5.7301,-5.6175,-5.4699,-5.3947,-5.3559,-5.2173,-5.1047,-5.0212,-4.934,-4.8371,-4.7305,-4.6558,-4.6119,-4.5912,-4.5821,-4.5807,-4.5807,-4.5807,-4.5807,-4.58,-4.5817,-4.5629,-4.5275,-4.4958,-4.4788,-4.4788,-4.4745,-4.4669,-4.4585,-4.4552,-4.4465,-4.4402,-4.4136,-4.4005,-4.4036,-4.4072,-4.3946,-4.3539,-4.3008,-4.2385,-4.1723,-4.1144,-4.0239,-3.8976,-3.8886,-3.8024,-3.6218,-3.5814,-3.5213,-3.432,-3.4461,-3.4624,-3.4641,-3.5229,-3.5628,-3.5736,-3.5901,-3.6153,-3.6301,-3.608,-3.6042,-3.6341,-3.6281,-3.6336,-3.6485,-3.6473,-3.6237,-3.5871,-3.569,-3.489,-3.3889,-3.3189,-3.2614,-3.1927,-3.1037,-3.022,-2.9975,-2.9505,-2.8984,-2.863,-2.8361,-2.7892,-2.6764,-2.6246,-2.562,-2.4476,-2.4092,-2.3938,-2.4191,-2.3881,-2.3433,-2.3115,-2.264,-2.2268,-2.1783,-2.1747,-2.1692,-2.1726,-2.2485,-2.2435,-2.143,-2.1646,-2.1838,-2.1041,-2.0623,-2.0484,-2.0181,-2.058,-2.0428,-6.1582,-6.1504,-6.1446,-6.0372,-5.8784,-5.8681,-5.7787,-5.6233,-5.5301,-5.4465,-5.3656,-5.2717,-5.1882,-5.1047,-5.0212,-4.8932,-4.7486,-4.7178,-4.6681,-4.6016,-4.5866,-4.5807,-4.5807,-4.5807,-4.5807,-4.5807,-4.58,-4.5626,-4.5285,-4.4958,-4.4788,-4.4776,-4.4676,-4.4656,-4.4546,-4.4484,-4.4452,-4.4318,-4.4091,-4.3974,-4.3942,-4.3634,-4.341,-4.3268,-4.3178,-4.2687,-4.1868,-4.165,-4.0908,-3.9425,-3.9335,-3.8593,-3.7079,-3.631,-3.5413,-3.4391,-3.4218,-3.4226,-3.4265,-3.4673,-3.5063,-3.5412,-3.6103,-3.6648,-3.7088,-3.7309,-3.7147,-3.6574,-3.6897,-3.7042,-3.6719,-3.6212,-3.604,-3.6372,-3.5491,-3.4736,-3.434,-3.3452,-3.282,-3.2361,-3.1047,-2.9802,-2.8845,-2.8557,-2.8623,-2.8497,-2.8278,-2.7827,-2.7171,-2.6636,-2.6052,-2.5283,-2.4444,-2.373,-2.3781,-2.3384,-2.3083,-2.2957,-2.2824,-2.2793,-2.2647,-2.2537,-2.2469,-2.2395,-2.2518,-2.2308,-2.1678,-2.1368,-2.1251,-2.0846,-2.0575,-2.0385,-2.0385,-2.0393,-2.0355,-6.1512,-6.1422,-6.0819,-5.9885,-5.8797,-5.8253,-5.736,-5.6253,-5.5378,-5.4504,-5.365,-5.2795,-5.196,-5.1183,-5.0872,-5.0089,-4.8912,-4.7816,-4.7081,-4.6681,-4.6145,-4.5847,-4.5807,-4.5807,-4.5807,-4.5807,-4.58,-4.5519,-4.5044,-4.4701,-4.4457,-4.4308,-4.4225,-4.4151,-4.4075,-4.3983,-4.3886,-4.3825,-4.3714,-4.3649,-4.3651,-4.3464,-4.3305,-4.3142,-4.3123,-4.2922,-4.2466,-4.1958,-4.1198,-4.0148,-3.9659,-3.8593,-3.6923,-3.5419,-3.4182,-3.3282,-3.3507,-3.3768,-3.391,-3.5029,-3.5847,-3.604,-3.6916,-3.725,-3.7073,-3.7137,-3.7077,-3.6797,-3.687,-3.7041,-3.7052,-3.6344,-3.5666,-3.5405,-3.5132,-3.4676,-3.4163,-3.3837,-3.3731,-3.3466,-3.2193,-3.0766,-2.9566,-2.9125,-2.8845,-2.8439,-2.8253,-2.7699,-2.6791,-2.634,-2.5873,-2.4816,-2.4086,-2.3616,-2.3658,-2.2952,-2.2556,-2.2831,-2.2922,-2.3241,-2.3292,-2.331,-2.3301,-2.3331,-2.3148,-2.2472,-2.1979,-2.1289,-2.1103,-2.0844,-2.0561,-2.0723,-2.0623,-2.0965,-2.0997,-6.1309,-6.0967,-6.0372,-5.9438,-5.8389,-5.7852,-5.7114,-5.6272,-5.567,-5.4776,-5.3733,-5.3067,-5.2232,-5.1338,-5.1202,-5.0911,-5.0153,-4.8513,-4.7532,-4.7158,-4.6319,-4.588,-4.5847,-4.584,-4.5814,-4.5793,-4.5661,-4.5416,-4.5012,-4.4618,-4.4318,-4.4132,-4.3958,-4.3835,-4.3804,-4.3751,-4.3699,-4.3682,-4.3728,-4.3777,-4.3714,-4.3631,-4.3566,-4.3427,-4.334,-4.3142,-4.2883,-4.2375,-4.156,-4.0601,-4.0021,-3.8813,-3.6716,-3.4951,-3.3714,-3.3069,-3.3243,-3.3559,-3.3895,-3.5058,-3.598,-3.6552,-3.7324,-3.7633,-3.7332,-3.7492,-3.7445,-3.7252,-3.7319,-3.7499,-3.7146,-3.6541,-3.5932,-3.5504,-3.5224,-3.4853,-3.4411,-3.4314,-3.4021,-3.3448,-3.2668,-3.1461,-3.0104,-2.932,-2.8783,-2.8303,-2.8066,-2.7414,-2.6678,-2.6216,-2.588,-2.4818,-2.4332,-2.4041,-2.3892,-2.3367,-2.2996,-2.3183,-2.3411,-2.3717,-2.391,-2.3998,-2.4034,-2.4129,-2.3736,-2.2965,-2.2205,-2.1456,-2.1073,-2.0863,-2.1057,-2.1264,-2.1434,-2.1732,-2.1588,-6.0882,-6.0209,-6.0079,-5.9069,-5.7774,-5.7541,-5.7055,-5.635,-5.6253,-5.5242,-5.3792,-5.3636,-5.2678,-5.1455,-5.1202,-5.1183,-5.0788,-4.9231,-4.8107,-4.7383,-4.6389,-4.5906,-4.5893,-4.5893,-4.5854,-4.5793,-4.5488,-4.5333,-4.5236,-4.4762,-4.4452,-4.4346,-4.4064,-4.3947,-4.3818,-4.3974,-4.4002,-4.4033,-4.4192,-4.4299,-4.4374,-4.4102,-4.3983,-4.3983,-4.3777,-4.3425,-4.2957,-4.2829,-4.205,-4.0709,-4.0401,-3.9157,-3.6753,-3.5308,-3.442,-3.4053,-3.3653,-3.3801,-3.4413,-3.4754,-3.5688,-3.666,-3.7272,-3.7875,-3.8224,-3.8559,-3.8479,-3.7961,-3.8085,-3.8073,-3.7142,-3.6779,-3.6701,-3.7017,-3.5917,-3.5313,-3.5262,-3.4791,-3.3777,-3.2741,-3.2423,-3.1686,-3.0136,-2.9052,-2.8426,-2.8137,-2.7637,-2.7212,-2.6945,-2.6562,-2.6194,-2.577,-2.5118,-2.458,-2.4263,-2.393,-2.3767,-2.3679,-2.3927,-2.4176,-2.4247,-2.4334,-2.4187,-2.4169,-2.3454,-2.2696,-2.2021,-2.1389,-2.145,-2.1375,-2.164,-2.1783,-2.1888,-2.2011,-2.1963,-6.0351,-5.9963,-5.8843,-5.8104,-5.7522,-5.6978,-5.6524,-5.6311,-5.6311,-5.5326,-5.3928,-5.3714,-5.2782,-5.1494,-5.1202,-5.1202,-5.1047,-4.9443,-4.8441,-4.7977,-4.6665,-4.5937,-4.5906,-4.59,-4.586,-4.5773,-4.5653,-4.5491,-4.5304,-4.5066,-4.4872,-4.4663,-4.4511,-4.4407,-4.4318,-4.4365,-4.4336,-4.426,-4.4181,-4.4177,-4.4275,-4.3965,-4.3841,-4.3931,-4.3791,-4.3612,-4.3441,-4.2755,-4.174,-4.0564,-4.0021,-3.8864,-3.7168,-3.6403,-3.586,-3.5309,-3.51,-3.5072,-3.5426,-3.6082,-3.6625,-3.7289,-3.804,-3.8312,-3.8146,-3.8229,-3.8191,-3.7912,-3.8039,-3.7908,-3.7705,-3.7295,-3.6904,-3.6521,-3.6292,-3.6007,-3.5873,-3.5756,-3.4882,-3.3396,-3.3139,-3.2283,-3.0513,-2.9235,-2.8488,-2.801,-2.7386,-2.6953,-2.6881,-2.6632,-2.6204,-2.5879,-2.5439,-2.509,-2.4708,-2.4465,-2.4379,-2.4205,-2.435,-2.4465,-2.4565,-2.4523,-2.4361,-2.3857,-2.3151,-2.2496,-2.1834,-2.1662,-2.1801,-2.1874,-2.2053,-2.2123,-2.2123,-2.2165,-2.2193,-5.9729,-5.9069,-5.8046,-5.7405,-5.7094,-5.6505,-5.6311,-5.6233,-5.5942,-5.5009,-5.3831,-5.3345,-5.2465,-5.1416,-5.1202,-5.1202,-5.1047,-4.9707,-4.8905,-4.8382,-4.681,-4.6005,-4.5938,-4.5906,-4.586,-4.58,-4.5761,-4.5648,-4.5454,-4.5313,-4.5129,-4.4943,-4.4751,-4.4643,-4.4599,-4.4612,-4.4585,-4.4533,-4.453,-4.4517,-4.4517,-4.426,-4.4132,-4.4158,-4.4075,-4.3971,-4.382,-4.292,-4.1915,-4.0838,-3.9786,-3.8642,-3.7644,-3.7325,-3.6955,-3.6507,-3.6266,-3.623,-3.6593,-3.719,-3.7741,-3.8079,-3.8688,-3.8729,-3.8098,-3.7894,-3.7894,-3.7894,-3.7789,-3.7728,-3.7676,-3.738,-3.6732,-3.597,-3.6378,-3.6468,-3.6128,-3.5906,-3.4985,-3.3499,-3.2852,-3.1938,-3.0593,-2.919,-2.848,-2.789,-2.728,-2.6794,-2.6753,-2.6633,-2.6326,-2.6029,-2.5743,-2.5397,-2.5061,-2.4948,-2.4948,-2.4806,-2.4708,-2.4765,-2.4793,-2.4609,-2.4429,-2.3607,-2.2843,-2.248,-2.1893,-2.2203,-2.2411,-2.2457,-2.248,-2.2609,-2.2669,-2.2646,-2.2659,-5.9037,-5.7658,-5.7541,-5.7029,-5.6408,-5.6311,-5.6311,-5.6175,-5.5417,-5.4563,-5.3669,-5.2873,-5.2018,-5.1358,-5.1202,-5.1202,-5.1027,-5.0237,-4.9299,-4.8347,-4.6987,-4.615,-4.5974,-4.5925,-4.586,-4.5819,-4.5783,-4.5739,-4.5648,-4.5475,-4.5273,-4.5201,-4.4915,-4.4682,-4.4739,-4.4776,-4.4856,-4.4868,-4.5065,-4.5087,-4.4912,-4.4883,-4.4676,-4.4508,-4.4341,-4.4167,-4.3856,-4.3014,-4.2132,-4.1142,-3.9654,-3.8753,-3.8472,-3.8037,-3.7698,-3.7507,-3.7063,-3.7325,-3.7755,-3.7821,-3.8094,-3.8651,-3.8758,-3.8692,-3.7888,-3.7671,-3.7684,-3.7657,-3.7363,-3.7154,-3.7046,-3.6794,-3.6258,-3.5701,-3.598,-3.6114,-3.5841,-3.5258,-3.4151,-3.2824,-3.1929,-3.1199,-3.0204,-2.885,-2.8207,-2.7805,-2.7306,-2.6989,-2.6779,-2.6659,-2.6459,-2.6165,-2.588,-2.5522,-2.5118,-2.5005,-2.5005,-2.5033,-2.4963,-2.5034,-2.4759,-2.4481,-2.4182,-2.3366,-2.2811,-2.2428,-2.2338,-2.2644,-2.2844,-2.2844,-2.2949,-2.3142,-2.3112,-2.2978,-2.2844,-5.8007,-5.7541,-5.6919,-5.6505,-5.6311,-5.6311,-5.6311,-5.6194,-5.5378,-5.4504,-5.363,-5.2776,-5.196,-5.126,-5.1202,-5.1202,-5.1008,-5.0328,-4.9421,-4.8522,-4.7492,-4.6552,-4.604,-4.5919,-4.586,-4.5807,-4.581,-4.5765,-4.568,-4.5629,-4.555,-4.5475,-4.5312,-4.5211,-4.5211,-4.5208,-4.5216,-4.5132,-4.4988,-4.4707,-4.4334,-4.4499,-4.4339,-4.3825,-4.3713,-4.3605,-4.3381,-4.2112,-4.1097,-4.0436,-3.9527,-3.8931,-3.8851,-3.8734,-3.8614,-3.8544,-3.8493,-3.8469,-3.8544,-3.8191,-3.8061,-3.8186,-3.8209,-3.7856,-3.7108,-3.7021,-3.7015,-3.6883,-3.6347,-3.5993,-3.6105,-3.5745,-3.5236,-3.5025,-3.5107,-3.5173,-3.4973,-3.448,-3.3535,-3.2033,-3.1615,-3.0871,-2.9717,-2.8841,-2.8207,-2.7913,-2.7519,-2.7093,-2.6884,-2.6779,-2.658,-2.6165,-2.5811,-2.5508,-2.523,-2.5061,-2.5033,-2.5118,-2.5147,-2.5273,-2.4736,-2.4067,-2.3663,-2.3082,-2.2937,-2.2601,-2.2787,-2.3091,-2.3157,-2.3172,-2.3194,-2.3253,-2.3112,-2.2978,-2.2838,-5.7386,-5.7017,-5.6505,-5.6311,-5.6311,-5.6311,-5.6311,-5.6136,-5.5378,-5.4504,-5.3656,-5.2776,-5.196,-5.1241,-5.1202,-5.1202,-5.1125,-5.0678,-4.9784,-4.8502,-4.7279,-4.643,-4.5976,-4.5906,-4.5874,-4.5807,-4.5805,-4.5761,-4.5688,-4.5676,-4.5654,-4.5586,-4.555,-4.5476,-4.5381,-4.5409,-4.5359,-4.5267,-4.5079,-4.4642,-4.392,-4.4052,-4.3899,-4.3478,-4.3316,-4.3182,-4.2656,-4.1492,-4.0536,-3.9974,-3.9449,-3.9188,-3.918,-3.9142,-3.9129,-3.9115,-3.9082,-3.8971,-3.8581,-3.8135,-3.7745,-3.7466,-3.7392,-3.6965,-3.6402,-3.6197,-3.6197,-3.6129,-3.5462,-3.5293,-3.5304,-3.4765,-3.4236,-3.3978,-3.3919,-3.4005,-3.4305,-3.381,-3.2743,-3.1604,-3.1009,-3.0658,-2.9252,-2.8779,-2.8352,-2.7963,-2.761,-2.7207,-2.691,-2.6832,-2.6657,-2.6213,-2.5984,-2.5781,-2.5589,-2.5438,-2.5342,-2.5397,-2.5228,-2.5378,-2.4866,-2.4034,-2.3687,-2.3362,-2.3107,-2.2979,-2.3187,-2.3334,-2.3348,-2.3348,-2.3363,-2.3201,-2.3046,-2.2622,-2.2541,-5.7017,-5.6311,-5.6311,-5.6311,-5.6311,-5.6311,-5.6311,-5.6136,-5.5359,-5.4504,-5.365,-5.2776,-5.196,-5.1222,-5.1202,-5.1202,-5.1202,-5.1105,-5.0037,-4.8541,-4.7026,-4.6008,-4.5962,-4.5905,-4.5874,-4.5821,-4.5807,-4.5764,-4.5712,-4.5688,-4.566,-4.5631,-4.555,-4.5457,-4.5429,-4.5409,-4.5359,-4.5307,-4.5256,-4.4565,-4.3726,-4.3632,-4.3473,-4.2803,-4.2744,-4.2337,-4.1717,-4.0966,-4.0315,-3.9646,-3.9533,-3.9431,-3.9391,-3.9275,-3.917,-3.9115,-3.9064,-3.8785,-3.8042,-3.7819,-3.7387,-3.676,-3.6556,-3.6203,-3.5603,-3.5491,-3.5584,-3.5311,-3.4881,-3.4714,-3.4635,-3.4006,-3.3567,-3.3294,-3.2971,-3.3109,-3.3403,-3.3119,-3.2137,-3.0795,-3.0555,-3.0075,-2.9387,-2.8826,-2.8487,-2.8183,-2.7795,-2.7433,-2.7078,-2.6884,-2.6622,-2.6225,-2.6119,-2.6136,-2.5959,-2.5808,-2.5775,-2.5716,-2.5409,-2.53,-2.5074,-2.4476,-2.4093,-2.374,-2.3402,-2.329,-2.3443,-2.3508,-2.3486,-2.3325,-2.3186,-2.3025,-2.2797,-2.2178,-2.1888,-5.6466,-5.6311,-5.6311,-5.6311,-5.6311,-5.6311,-5.6311,-5.6233,-5.5378,-5.4504,-5.365,-5.2795,-5.196,-5.1202,-5.1208,-5.1202,-5.1163,-5.1047,-5.027,-4.8522,-4.6798,-4.6058,-4.5966,-4.5923,-4.5886,-4.5848,-4.5821,-4.5798,-4.5773,-4.5715,-4.5676,-4.5665,-4.5568,-4.5457,-4.541,-4.54,-4.5359,-4.5317,-4.5277,-4.4426,-4.3259,-4.3315,-4.2911,-4.17,-4.1454,-4.0985,-4.0303,-3.9946,-3.9777,-3.9621,-3.9495,-3.9418,-3.9373,-3.9229,-3.9147,-3.9115,-3.9064,-3.8748,-3.7968,-3.7299,-3.6612,-3.59,-3.5714,-3.5417,-3.4655,-3.5169,-3.507,-3.4586,-3.4184,-3.4083,-3.3929,-3.368,-3.3408,-3.316,-3.2896,-3.2691,-3.2597,-3.2298,-3.1673,-3.1032,-3.0723,-3.0414,-2.956,-2.938,-2.8982,-2.8487,-2.8052,-2.767,-2.7342,-2.7023,-2.6743,-2.6458,-2.6097,-2.6068,-2.5872,-2.5771,-2.5781,-2.5779,-2.5541,-2.5248,-2.502,-2.4596,-2.4098,-2.3814,-2.3643,-2.3629,-2.3588,-2.3505,-2.3417,-2.322,-2.2972,-2.268,-2.2315,-2.1711,-2.122,-5.6311,-5.6311,-5.6311,-5.6311,-5.6311,-5.6311,-5.6311,-5.6136,-5.5378,-5.4504,-5.3662,-5.2805,-5.2,-5.1242,-5.1203,-5.1203,-5.0964,-5.0281,-4.9512,-4.8289,-4.6851,-4.603,-4.5969,-4.5935,-4.5893,-4.59,-4.584,-4.5805,-4.5788,-4.5743,-4.5684,-4.5682,-4.5605,-4.5495,-4.5419,-4.5419,-4.536,-4.5317,-4.5277,-4.4533,-4.3361,-4.2955,-4.2439,-4.1124,-4.0797,-4.0553,-4.0253,-3.9796,-3.9646,-3.9583,-3.9482,-3.9405,-3.9405,-3.9288,-3.9202,-3.9115,-3.9082,-3.8469,-3.7559,-3.6891,-3.6166,-3.5008,-3.4884,-3.4667,-3.4413,-3.4765,-3.4686,-3.4222,-3.3965,-3.3807,-3.3549,-3.3577,-3.3491,-3.322,-3.299,-3.2702,-3.2386,-3.2056,-3.1654,-3.1162,-3.0945,-3.058,-3.014,-2.9815,-2.9341,-2.8772,-2.8606,-2.8207,-2.7599,-2.73,-2.72,-2.6852,-2.6262,-2.5936,-2.5698,-2.5619,-2.5658,-2.5651,-2.5597,-2.528,-2.5025,-2.45,-2.3933,-2.3763,-2.3622,-2.3613,-2.358,-2.346,-2.3319,-2.3197,-2.289,-2.2384,-2.1823,-2.1216,-2.0805,-5.6311,-5.6311,-5.6311,-5.6311,-5.6311,-5.6311,-5.6311,-5.6194,-5.5534,-5.4699,-5.3701,-5.2955,-5.2251,-5.1386,-5.1215,-5.122,-5.0763,-4.9552,-4.87,-4.8432,-4.6819,-4.6129,-4.5991,-4.5947,-4.5905,-4.5906,-4.5847,-4.5805,-4.5795,-4.575,-4.5692,-4.569,-4.5612,-4.5531,-4.5457,-4.54,-4.538,-4.5338,-4.5288,-4.4761,-4.3677,-4.2879,-4.1879,-4.0748,-4.0497,-4.0478,-4.0253,-3.9908,-3.9608,-3.9589,-3.9476,-3.9412,-3.9405,-3.9346,-3.9288,-3.9101,-3.9101,-3.8339,-3.7206,-3.6643,-3.603,-3.4401,-3.4246,-3.427,-3.4318,-3.4379,-3.4308,-3.4117,-3.3895,-3.3726,-3.3549,-3.3619,-3.353,-3.3294,-3.3099,-3.2814,-3.2487,-3.2162,-3.1785,-3.1468,-3.1276,-3.0965,-3.0502,-3.0102,-2.9579,-2.9143,-2.902,-2.867,-2.801,-2.7413,-2.7188,-2.668,-2.5953,-2.5425,-2.5175,-2.5137,-2.5206,-2.5303,-2.5363,-2.5144,-2.4844,-2.4302,-2.3783,-2.3701,-2.3581,-2.3595,-2.3445,-2.3191,-2.3103,-2.3108,-2.2452,-2.1559,-2.1061,-2.0706,-2.036,-5.6311,-5.6311,-5.6311,-5.6311,-5.6311,-5.6311,-5.6311,-5.6272,-5.6058,-5.5145,-5.3804,-5.3577,-5.2572,-5.1556,-5.1256,-5.1288,-5.0852,-4.9554,-4.868,-4.838,-4.6951,-4.6066,-4.5997,-4.5964,-4.5929,-4.5893,-4.5841,-4.5807,-4.5798,-4.5746,-4.568,-4.5676,-4.5629,-4.5559,-4.5485,-4.5429,-4.5371,-4.5359,-4.5298,-4.475,-4.3764,-4.2692,-4.1501,-4.0121,-3.9946,-3.9927,-3.9871,-3.9721,-3.9608,-3.9608,-3.952,-3.9457,-3.9386,-3.9275,-3.9175,-3.9096,-3.899,-3.8247,-3.6996,-3.6625,-3.5813,-3.4692,-3.4245,-3.4281,-3.4316,-3.4381,-3.4245,-3.3985,-3.3753,-3.3577,-3.3591,-3.3657,-3.3597,-3.3394,-3.3172,-3.2928,-3.2621,-3.2353,-3.2073,-3.1783,-3.1634,-3.1447,-3.0988,-3.0543,-3.0123,-2.9667,-2.9371,-2.8839,-2.8109,-2.7395,-2.6802,-2.6146,-2.5404,-2.4937,-2.4533,-2.4569,-2.4618,-2.4725,-2.4791,-2.4748,-2.4395,-2.3969,-2.3674,-2.3852,-2.3715,-2.355,-2.3325,-2.3002,-2.2766,-2.2673,-2.1702,-2.0651,-2.048,-2.0313,-1.9749,-5.6311,-5.6311,-5.6311,-5.6311,-5.6311,-5.6311,-5.6311,-5.6233,-5.5806,-5.4931,-5.3941,-5.3322,-5.2507,-5.1554,-5.1339,-5.1319,-5.0837,-4.9508,-4.8764,-4.8325,-4.6988,-4.6071,-4.6002,-4.5989,-4.596,-4.5905,-4.5861,-4.5821,-4.58,-4.5727,-4.5688,-4.5684,-4.5637,-4.554,-4.5457,-4.5419,-4.538,-4.5339,-4.525,-4.4761,-4.3611,-4.2406,-4.0866,-3.9995,-3.9608,-3.9608,-3.9608,-3.9608,-3.9608,-3.9596,-3.9514,-3.9501,-3.9431,-3.9333,-3.9202,-3.9073,-3.8762,-3.8018,-3.6848,-3.6365,-3.5454,-3.4518,-3.4293,-3.434,-3.4351,-3.434,-3.4209,-3.3908,-3.3698,-3.3577,-3.3661,-3.3758,-3.3748,-3.3662,-3.3451,-3.322,-3.2959,-3.2687,-3.2404,-3.2108,-3.1911,-3.1693,-3.1507,-3.1086,-3.0666,-3.0246,-2.9777,-2.9051,-2.8259,-2.7474,-2.6732,-2.6361,-2.5742,-2.5087,-2.4724,-2.4641,-2.4599,-2.4599,-2.4594,-2.4533,-2.4513,-2.4313,-2.4313,-2.442,-2.4142,-2.3749,-2.3188,-2.2834,-2.2532,-2.2198,-2.1357,-2.0635,-2.0249,-1.9855,-1.9472,-5.6297,-5.6311,-5.6311,-5.6311,-5.6311,-5.6311,-5.6304,-5.6155,-5.5591,-5.4772,-5.3794,-5.3178,-5.2398,-5.1603,-5.1397,-5.1349,-5.1128,-4.9517,-4.8791,-4.8342,-4.6971,-4.6084,-4.6007,-4.6,-4.5972,-4.5943,-4.5906,-4.5867,-4.58,-4.5727,-4.5688,-4.5684,-4.5618,-4.554,-4.5457,-4.5429,-4.537,-4.5339,-4.5258,-4.4712,-4.3308,-4.1794,-4.0428,-3.9683,-3.9608,-3.9608,-3.9608,-3.9608,-3.9608,-3.9596,-3.9546,-3.9495,-3.9482,-3.9431,-3.9315,-3.909,-3.8524,-3.7761,-3.6849,-3.6304,-3.5584,-3.4465,-3.4347,-3.4416,-3.4416,-3.4293,-3.4099,-3.386,-3.3716,-3.3643,-3.3712,-3.3834,-3.3895,-3.3895,-3.3762,-3.3583,-3.3306,-3.3001,-3.2685,-3.242,-3.2162,-3.1948,-3.173,-3.1564,-3.1145,-3.0543,-3.0079,-2.927,-2.8473,-2.7597,-2.696,-2.6824,-2.6302,-2.5498,-2.5104,-2.4993,-2.4985,-2.5005,-2.5001,-2.4962,-2.4997,-2.4997,-2.4958,-2.4803,-2.4502,-2.4045,-2.338,-2.297,-2.2984,-2.2576,-2.142,-2.0737,-2.052,-2.0154,-1.9739,-5.6319,-5.6317,-5.6317,-5.6311,-5.6298,-5.6298,-5.6309,-5.6272,-5.6097,-5.5259,-5.3883,-5.3666,-5.2753,-5.1693,-5.1401,-5.1386,-5.0857,-4.966,-4.8739,-4.8436,-4.7003,-4.6102,-4.6012,-4.6002,-4.5994,-4.5966,-4.5917,-4.5867,-4.5807,-4.5754,-4.5708,-4.5692,-4.5627,-4.5577,-4.5522,-4.5438,-4.5419,-4.539,-4.531,-4.4388,-4.275,-4.1515,-4.0546,-3.9858,-3.9608,-3.9608,-3.9608,-3.9608,-3.9608,-3.9589,-3.9546,-3.9508,-3.9482,-3.9444,-3.9405,-3.936,-3.9117,-3.8544,-3.715,-3.6429,-3.5769,-3.4666,-3.442,-3.4473,-3.4404,-3.4288,-3.4074,-3.3926,-3.378,-3.3726,-3.3793,-3.3855,-3.3928,-3.3959,-3.39,-3.3775,-3.3592,-3.3184,-3.2876,-3.2636,-3.2369,-3.2144,-3.1948,-3.1803,-3.1604,-3.0966,-3.0291,-2.9486,-2.8665,-2.7791,-2.6889,-2.6623,-2.6437,-2.5692,-2.5465,-2.5365,-2.5408,-2.5427,-2.5484,-2.5481,-2.5497,-2.5497,-2.5173,-2.4997,-2.4764,-2.4744,-2.4477,-2.4167,-2.384,-2.3082,-2.2094,-2.1438,-2.0968,-2.0546,-2.0277,-5.6391,-5.6359,-5.6305,-5.6305,-5.6314,-5.6309,-5.6315,-5.6206,-5.5802,-5.4971,-5.3938,-5.3355,-5.2492,-5.1555,-5.139,-5.1394,-5.1023,-4.9599,-4.8774,-4.836,-4.7092,-4.6134,-4.6022,-4.5997,-4.5986,-4.5983,-4.596,-4.5918,-4.5854,-4.5783,-4.5731,-4.5711,-4.5662,-4.5622,-4.5549,-4.5467,-4.5419,-4.5236,-4.477,-4.38,-4.2523,-4.1475,-4.0551,-3.9677,-3.9608,-3.9608,-3.9608,-3.9608,-3.9608,-3.9589,-3.9571,-3.9558,-3.954,-3.9514,-3.952,-3.9464,-3.8996,-3.8159,-3.7032,-3.6104,-3.5268,-3.4779,-3.4473,-3.442,-3.4305,-3.4233,-3.4074,-3.382,-3.378,-3.3793,-3.3855,-3.3947,-3.4023,-3.4055,-3.4016,-3.3926,-3.3762,-3.3375,-3.3032,-3.2798,-3.2571,-3.2404,-3.2197,-3.2039,-3.1775,-3.1202,-3.0474,-2.9671,-2.8815,-2.7962,-2.7048,-2.6222,-2.6042,-2.5766,-2.5735,-2.5726,-2.5799,-2.589,-2.6157,-2.612,-2.6082,-2.5956,-2.5663,-2.5607,-2.5626,-2.5591,-2.5538,-2.5029,-2.4395,-2.3639,-2.2858,-2.2366,-2.1926,-2.1889,-2.1606,-5.6484,-5.6416,-5.6364,-5.6324,-5.6309,-5.631,-5.6338,-5.6252,-5.5512,-5.4679,-5.3771,-5.283,-5.1962,-5.1527,-5.1394,-5.1375,-5.1258,-4.9599,-4.8913,-4.8178,-4.7177,-4.6228,-4.6056,-4.6022,-4.6007,-4.5989,-4.5978,-4.5943,-4.5893,-4.5833,-4.5776,-4.5708,-4.5679,-4.564,-4.555,-4.5476,-4.5419,-4.5331,-4.4482,-4.3485,-4.2428,-4.151,-4.0587,-3.9914,-3.9608,-3.9608,-3.9608,-3.9608,-3.9608,-3.9608,-3.9589,-3.9596,-3.9596,-3.9596,-3.9596,-3.9339,-3.8701,-3.7746,-3.6824,-3.5932,-3.4877,-3.4592,-3.4561,-3.4509,-3.4356,-3.4328,-3.4233,-3.3934,-3.3829,-3.3868,-3.3947,-3.4049,-3.4086,-3.4136,-3.4148,-3.4049,-3.3908,-3.3578,-3.3361,-3.3262,-3.3019,-3.2705,-3.2502,-3.2294,-3.1933,-3.1409,-3.0673,-2.9806,-2.8855,-2.7873,-2.7304,-2.6436,-2.6384,-2.6244,-2.6191,-2.6209,-2.6245,-2.6263,-2.6522,-2.659,-2.6434,-2.6347,-2.6171,-2.624,-2.6258,-2.6133,-2.5866,-2.5384,-2.4917,-2.4545,-2.4095,-2.3418,-2.3017,-2.3001,-2.2914,-5.6484,-5.6489,-5.6423,-5.6391,-5.6389,-5.64,-5.643,-5.628,-5.55,-5.4621,-5.3572,-5.2347,-5.1546,-5.1414,-5.1375,-5.1375,-5.1258,-4.9579,-4.8879,-4.8142,-4.7156,-4.6277,-4.6091,-4.6075,-4.6042,-4.5997,-4.5994,-4.5966,-4.5925,-4.5887,-4.5812,-4.5715,-4.5695,-4.5646,-4.5586,-4.5532,-4.5458,-4.5265,-4.4581,-4.3624,-4.2636,-4.17,-4.0783,-3.9926,-3.9658,-3.9608,-3.9608,-3.9608,-3.9608,-3.9608,-3.9608,-3.9608,-3.9608,-3.9614,-3.9626,-3.9156,-3.8164,-3.7351,-3.6708,-3.601,-3.5379,-3.4867,-3.4687,-3.4699,-3.4513,-3.4424,-3.4321,-3.4173,-3.3985,-3.3972,-3.4036,-3.4099,-3.4136,-3.4173,-3.4209,-3.4173,-3.4055,-3.3855,-3.368,-3.3666,-3.339,-3.2965,-3.2556,-3.2279,-3.1869,-3.1341,-3.0005,-2.9093,-2.8355,-2.752,-2.7384,-2.6973,-2.6973,-2.6875,-2.6792,-2.6742,-2.6556,-2.647,-2.6607,-2.6624,-2.6572,-2.6537,-2.6451,-2.6381,-2.6311,-2.6258,-2.6187,-2.5799,-2.5589,-2.567,-2.5352,-2.4579,-2.4033,-2.3847,-2.385,-5.6482,-5.6482,-5.6469,-5.644,-5.6404,-5.6393,-5.6124,-5.5608,-5.4769,-5.3617,-5.2409,-5.1707,-5.1394,-5.1394,-5.1355,-5.1082,-5.0496,-4.9403,-4.861,-4.7777,-4.6844,-4.6245,-4.6123,-4.6113,-4.6071,-4.6007,-4.5986,-4.5989,-4.598,-4.5925,-4.5848,-4.5771,-4.5735,-4.5679,-4.5629,-4.555,-4.5467,-4.5351,-4.5004,-4.4338,-4.3368,-4.2401,-4.1453,-4.0575,-3.9764,-3.9658,-3.9608,-3.9608,-3.9608,-3.9608,-3.9608,-3.9608,-3.9633,-3.9631,-3.9411,-3.8971,-3.7811,-3.7139,-3.6486,-3.5805,-3.5068,-3.499,-3.4888,-3.4869,-3.463,-3.4513,-3.4333,-3.4166,-3.4061,-3.4061,-3.4086,-3.4136,-3.4185,-3.4233,-3.4245,-3.4245,-3.4123,-3.3943,-3.3889,-3.3818,-3.3437,-3.3,-3.258,-3.2187,-3.1751,-3.119,-2.9745,-2.8483,-2.7879,-2.7469,-2.7419,-2.7326,-2.7261,-2.7135,-2.704,-2.6908,-2.6792,-2.6725,-2.6674,-2.6657,-2.6623,-2.6537,-2.6451,-2.6399,-2.6312,-2.624,-2.6221,-2.6203,-2.6066,-2.5875,-2.5844,-2.5693,-2.5199,-2.4713,-2.4634,-5.6484,-5.6492,-5.6488,-5.6455,-5.6429,-5.6445,-5.5953,-5.5126,-5.4335,-5.2983,-5.1414,-5.1394,-5.1394,-5.1355,-5.1043,-5.0748,-4.9948,-4.8972,-4.8183,-4.7416,-4.6762,-4.6261,-4.6142,-4.6106,-4.6089,-4.6022,-4.5997,-4.598,-4.5991,-4.5943,-4.5874,-4.5814,-4.5761,-4.5719,-4.5665,-4.5559,-4.5438,-4.5429,-4.5301,-4.4876,-4.3877,-4.2924,-4.198,-4.1021,-4.013,-3.9693,-3.965,-3.9626,-3.9608,-3.9608,-3.9608,-3.9608,-3.9626,-3.9543,-3.9213,-3.8535,-3.7778,-3.7009,-3.6195,-3.5428,-3.4907,-3.4955,-3.5029,-3.4898,-3.4711,-3.4609,-3.4461,-3.4191,-3.4117,-3.4093,-3.4124,-3.4185,-3.4233,-3.4269,-3.4305,-3.4286,-3.4113,-3.3938,-3.3969,-3.3962,-3.338,-3.2597,-3.2246,-3.1746,-3.103,-3.0493,-2.9478,-2.8493,-2.8123,-2.7803,-2.7701,-2.7582,-2.7463,-2.7308,-2.7135,-2.7006,-2.6875,-2.6725,-2.6691,-2.6674,-2.6623,-2.6555,-2.6451,-2.6365,-2.6311,-2.6239,-2.6203,-2.6185,-2.6026,-2.583,-2.5888,-2.5999,-2.5803,-2.5287,-2.5258,-5.65,-5.6492,-5.6457,-5.6448,-5.6399,-5.6468,-5.5916,-5.4879,-5.4101,-5.2878,-5.1472,-5.1394,-5.1394,-5.1238,-5.069,-5.0163,-4.9636,-4.8445,-4.7604,-4.7231,-4.6644,-4.6289,-4.6219,-4.6165,-4.6111,-4.6022,-4.5997,-4.5986,-4.5983,-4.5923,-4.5886,-4.5867,-4.581,-4.5735,-4.5693,-4.5504,-4.541,-4.541,-4.5339,-4.4779,-4.3939,-4.3028,-4.2115,-4.1203,-4.0235,-3.9743,-3.972,-3.9679,-3.9674,-3.9662,-3.9662,-3.9662,-3.9662,-3.9686,-3.9281,-3.8452,-3.77,-3.6929,-3.6177,-3.5363,-3.5068,-3.5092,-3.5153,-3.5028,-3.4936,-3.4812,-3.4569,-3.4274,-3.4209,-3.4161,-3.4185,-3.4245,-3.43,-3.4335,-3.4351,-3.4325,-3.4172,-3.3764,-3.375,-3.3646,-3.2785,-3.1967,-3.1685,-3.1214,-3.0368,-2.9663,-2.8933,-2.8468,-2.8219,-2.8051,-2.7911,-2.7844,-2.7683,-2.758,-2.7415,-2.7135,-2.6957,-2.6808,-2.6708,-2.6691,-2.6657,-2.6606,-2.6503,-2.6382,-2.6294,-2.6241,-2.6222,-2.6185,-2.6063,-2.599,-2.6045,-2.6117,-2.5972,-2.5881,-2.5754,-5.6492,-5.6441,-5.5886,-5.5633,-5.5628,-5.5641,-5.4853,-5.3533,-5.2659,-5.1941,-5.1492,-5.1394,-5.1394,-5.1121,-5.0455,-4.9753,-4.905,-4.8269,-4.7469,-4.6729,-4.6417,-4.6303,-4.6217,-4.6187,-4.615,-4.608,-4.6027,-4.6002,-4.5986,-4.5922,-4.5911,-4.5874,-4.5798,-4.5727,-4.5682,-4.5577,-4.5504,-4.5438,-4.5304,-4.4919,-4.3965,-4.3052,-4.2153,-4.1263,-4.0339,-3.9856,-3.9826,-3.9796,-3.9773,-3.9773,-3.9754,-3.9766,-3.9777,-3.9811,-3.9256,-3.8333,-3.7499,-3.69,-3.602,-3.5263,-3.5215,-3.522,-3.5229,-3.5107,-3.486,-3.4803,-3.4588,-3.4363,-3.4233,-3.4197,-3.4257,-3.4281,-3.4316,-3.4416,-3.445,-3.442,-3.424,-3.3627,-3.3302,-3.3131,-3.2534,-3.2006,-3.1619,-3.0844,-2.9965,-2.9631,-2.9071,-2.8636,-2.8355,-2.8183,-2.8047,-2.8006,-2.7926,-2.7855,-2.7695,-2.7367,-2.7119,-2.6957,-2.6808,-2.6708,-2.6674,-2.6623,-2.6555,-2.6434,-2.6347,-2.6278,-2.624,-2.6221,-2.6203,-2.6185,-2.6185,-2.6185,-2.6097,-2.6061,-2.6061,-5.6487,-5.6394,-5.5571,-5.5017,-5.4786,-5.4779,-5.3962,-5.2688,-5.1794,-5.1394,-5.1394,-5.1394,-5.118,-5.0768,-5.0026,-4.9187,-4.8349,-4.751,-4.704,-4.6319,-4.6302,-4.6267,-4.6226,-4.6206,-4.615,-4.6106,-4.6071,-4.6042,-4.5997,-4.5953,-4.5917,-4.5887,-4.5778,-4.5723,-4.5679,-4.5612,-4.5504,-4.5343,-4.5103,-4.4584,-4.3758,-4.2924,-4.1959,-4.127,-4.058,-3.9965,-3.9943,-3.9922,-3.99,-3.99,-3.99,-3.99,-3.9914,-3.9566,-3.9135,-3.8318,-3.7389,-3.6703,-3.5675,-3.5339,-3.5281,-3.5324,-3.535,-3.5132,-3.4851,-3.4803,-3.4577,-3.4374,-3.4245,-3.4269,-3.4316,-3.4328,-3.4404,-3.4503,-3.4506,-3.4506,-3.4326,-3.3743,-3.3432,-3.3186,-3.256,-3.2057,-3.1463,-3.0511,-2.959,-2.944,-2.9297,-2.8907,-2.8559,-2.8458,-2.8342,-2.8303,-2.821,-2.8134,-2.7911,-2.7532,-2.7305,-2.7119,-2.6973,-2.6825,-2.6657,-2.6606,-2.6554,-2.652,-2.6434,-2.6364,-2.6276,-2.6239,-2.6203,-2.6185,-2.6185,-2.6185,-2.6185,-2.6185,-2.6185,-5.6409,-5.6288,-5.5494,-5.458,-5.3953,-5.3847,-5.3352,-5.2567,-5.1767,-5.1394,-5.1394,-5.1316,-5.0906,-5.0065,-4.9189,-4.8408,-4.7684,-4.6827,-4.6475,-4.6339,-4.6302,-4.6249,-4.6238,-4.6203,-4.6167,-4.6127,-4.6108,-4.6056,-4.6002,-4.5958,-4.595,-4.59,-4.5824,-4.5758,-4.5695,-4.5447,-4.5302,-4.5007,-4.4662,-4.4077,-4.3311,-4.2354,-4.1628,-4.1045,-4.0548,-4.0184,-4.0086,-4.0026,-3.9984,-3.9962,-3.9943,-3.9914,-3.9705,-3.9201,-3.8982,-3.8403,-3.736,-3.6339,-3.5538,-3.5354,-3.535,-3.5391,-3.5412,-3.5163,-3.4935,-3.4803,-3.4599,-3.4431,-3.4305,-3.434,-3.4386,-3.4439,-3.4484,-3.4528,-3.4561,-3.4505,-3.4422,-3.413,-3.3904,-3.3412,-3.2606,-3.1944,-3.1224,-3.0328,-2.9791,-2.9697,-2.9577,-2.9256,-2.8973,-2.8973,-2.885,-2.8773,-2.8633,-2.843,-2.8161,-2.7865,-2.7648,-2.7517,-2.718,-2.7004,-2.6808,-2.6674,-2.6657,-2.6623,-2.6537,-2.6433,-2.6292,-2.6221,-2.6203,-2.6185,-2.6185,-2.6185,-2.6185,-2.6185,-2.6185,-5.4652,-5.4558,-5.3722,-5.3201,-5.2922,-5.2398,-5.2007,-5.1728,-5.1492,-5.1394,-5.1355,-5.0729,-5.0319,-4.9987,-4.8621,-4.7938,-4.7354,-4.6827,-4.6436,-4.6302,-4.6302,-4.6277,-4.6249,-4.6216,-4.6183,-4.6169,-4.6134,-4.608,-4.6002,-4.5978,-4.5931,-4.5893,-4.5831,-4.5781,-4.5468,-4.5057,-4.4836,-4.4449,-4.4106,-4.3436,-4.2671,-4.1772,-4.1189,-4.0702,-4.0492,-4.0225,-4.0205,-4.0195,-4.0166,-4.0186,-4.0196,-4.0196,-4.012,-3.9938,-3.9677,-3.8174,-3.7159,-3.6243,-3.5556,-3.5372,-3.5412,-3.5448,-3.5468,-3.5239,-3.4969,-3.4774,-3.4662,-3.4526,-3.4439,-3.4483,-3.4526,-3.4577,-3.4628,-3.466,-3.468,-3.4643,-3.454,-3.4295,-3.4059,-3.3746,-3.2922,-3.2314,-3.1509,-3.0698,-3.0242,-3.0087,-2.984,-2.95,-2.9283,-2.9251,-2.9178,-2.9067,-2.8964,-2.8713,-2.8583,-2.8347,-2.8129,-2.7908,-2.7545,-2.7241,-2.7133,-2.7006,-2.6875,-2.6708,-2.6537,-2.6398,-2.6239,-2.6203,-2.6185,-2.6185,-2.6185,-2.6185,-2.6185,-2.6185,-2.6185,-5.3888,-5.3779,-5.2974,-5.2438,-5.2065,-5.1611,-5.1394,-5.1394,-5.1394,-5.1258,-5.0848,-5.0358,-4.9733,-4.8953,-4.8055,-4.7411,-4.6983,-4.6593,-4.6302,-4.6302,-4.6302,-4.63,-4.6275,-4.6247,-4.6228,-4.62,-4.6153,-4.6107,-4.6032,-4.5983,-4.595,-4.5899,-4.5859,-4.5571,-4.5287,-4.497,-4.4306,-4.3673,-4.3047,-4.2533,-4.1923,-4.1265,-4.0711,-4.0444,-4.032,-4.031,-4.031,-4.031,-4.031,-4.031,-4.0317,-4.0316,-4.0325,-4.033,-3.9301,-3.7947,-3.7433,-3.6503,-3.5743,-3.5462,-3.5475,-3.5489,-3.5463,-3.5311,-3.5165,-3.5024,-3.486,-3.4716,-3.4676,-3.4675,-3.4705,-3.4725,-3.4774,-3.4812,-3.4822,-3.4822,-3.4614,-3.4387,-3.4188,-3.4017,-3.3525,-3.2938,-3.219,-3.1329,-3.0619,-3.0371,-2.9975,-2.9506,-2.9334,-2.9283,-2.924,-2.9163,-2.9096,-2.8964,-2.8839,-2.8663,-2.8373,-2.8088,-2.7808,-2.7562,-2.7444,-2.7213,-2.6957,-2.6725,-2.6503,-2.6381,-2.6258,-2.6221,-2.6185,-2.6185,-2.6185,-2.6185,-2.6185,-2.6185,-2.6185,-5.3654,-5.356,-5.2828,-5.2079,-5.146,-5.1395,-5.1336,-5.1297,-5.1221,-5.0867,-5.0202,-4.9909,-4.8974,-4.8057,-4.7434,-4.6963,-4.6651,-4.6341,-4.6302,-4.6302,-4.6302,-4.6302,-4.6302,-4.6298,-4.6262,-4.6231,-4.6192,-4.6137,-4.6093,-4.6041,-4.5955,-4.5911,-4.5893,-4.562,-4.5155,-4.5132,-4.4326,-4.2934,-4.2338,-4.1865,-4.144,-4.084,-4.0326,-4.0317,-4.0318,-4.031,-4.032,-4.031,-4.0319,-4.0317,-4.0344,-4.0362,-4.0413,-4.0381,-3.9042,-3.8239,-3.7954,-3.7098,-3.6279,-3.583,-3.5657,-3.5573,-3.5416,-3.5395,-3.5326,-3.5149,-3.4959,-3.4915,-3.4878,-3.4878,-3.4906,-3.4915,-3.4952,-3.4961,-3.4961,-3.4961,-3.4865,-3.4715,-3.4631,-3.4442,-3.4169,-3.361,-3.3149,-3.2323,-3.1237,-3.0793,-3.0044,-2.951,-2.9527,-2.9466,-2.9442,-2.937,-2.9182,-2.9104,-2.8893,-2.8688,-2.8464,-2.821,-2.8034,-2.7808,-2.7666,-2.7367,-2.7021,-2.6825,-2.664,-2.6452,-2.6329,-2.6259,-2.6222,-2.6185,-2.6185,-2.6185,-2.6185,-2.6203,-2.6185,-5.1924,-5.1932,-5.1752,-5.1555,-5.1425,-5.139,-5.1008,-5.0429,-5.0409,-5.025,-4.9893,-4.8804,-4.8042,-4.7551,-4.6912,-4.6502,-4.638,-4.6305,-4.6302,-4.6302,-4.6302,-4.6302,-4.6302,-4.63,-4.6269,-4.6233,-4.6198,-4.6177,-4.6106,-4.6051,-4.5986,-4.5911,-4.5841,-4.5498,-4.5119,-4.5097,-4.3921,-4.2402,-4.2048,-4.1462,-4.0877,-4.0673,-4.0389,-4.037,-4.0372,-4.0363,-4.0382,-4.0372,-4.0381,-4.0398,-4.0432,-4.0455,-4.0465,-4.0492,-3.9873,-3.8991,-3.8698,-3.7859,-3.6922,-3.6299,-3.6112,-3.5739,-3.556,-3.5547,-3.5451,-3.5216,-3.5114,-3.5087,-3.5095,-3.5122,-3.513,-3.5138,-3.5138,-3.5138,-3.5138,-3.5138,-3.5138,-3.5106,-3.5064,-3.4909,-3.4707,-3.4377,-3.3966,-3.3175,-3.2102,-3.1067,-3.0037,-2.9533,-2.9851,-2.9942,-2.9927,-2.9789,-2.934,-2.9167,-2.9044,-2.8846,-2.8676,-2.8608,-2.8507,-2.8228,-2.7894,-2.753,-2.7178,-2.6989,-2.6792,-2.6657,-2.6504,-2.633,-2.6294,-2.6258,-2.6239,-2.6257,-2.6239,-2.6221,-2.6203,-5.1281,-5.131,-5.1373,-5.1386,-5.1346,-5.1005,-5.0531,-5.0026,-4.9342,-4.8988,-4.8926,-4.8029,-4.7403,-4.7108,-4.6488,-4.6293,-4.6288,-4.6291,-4.6287,-4.6303,-4.6305,-4.6303,-4.6303,-4.6302,-4.6296,-4.6264,-4.6209,-4.618,-4.6142,-4.6071,-4.6021,-4.5877,-4.5699,-4.5215,-4.4871,-4.4141,-4.3332,-4.2035,-4.1901,-4.1413,-4.0646,-4.0482,-4.0449,-4.0441,-4.0424,-4.0415,-4.0407,-4.0407,-4.0424,-4.0449,-4.0491,-4.0531,-4.0523,-4.0539,-4.0137,-3.9543,-3.9094,-3.8626,-3.7456,-3.6813,-3.6548,-3.6,-3.5651,-3.5626,-3.5626,-3.5438,-3.5431,-3.5431,-3.5431,-3.5457,-3.5438,-3.5438,-3.5438,-3.5438,-3.5438,-3.5438,-3.5438,-3.5431,-3.5411,-3.5352,-3.5199,-3.5101,-3.4636,-3.4001,-3.3054,-3.2637,-3.1402,-3.0697,-3.0819,-3.0731,-3.0623,-3.0474,-3.0196,-2.9843,-2.9757,-2.94,-2.8952,-2.8929,-2.8881,-2.852,-2.8102,-2.7704,-2.7346,-2.7257,-2.7099,-2.6938,-2.6791,-2.6607,-2.6435,-2.6399,-2.638,-2.6345,-2.6328,-2.6293,-2.6276,-5.1238,-5.1296,-5.1381,-5.1308,-5.1133,-5.0445,-4.9934,-4.9504,-4.8274,-4.7551,-4.7493,-4.745,-4.6942,-4.6533,-4.6299,-4.6296,-4.6295,-4.6297,-4.6294,-4.629,-4.6291,-4.6288,-4.6305,-4.6302,-4.6298,-4.6271,-4.6238,-4.6212,-4.6189,-4.6126,-4.5988,-4.5834,-4.5153,-4.4362,-4.3718,-4.3189,-4.2677,-4.1877,-4.1514,-4.1362,-4.0931,-4.0519,-4.0507,-4.0474,-4.0438,-4.0413,-4.0405,-4.0432,-4.0438,-4.0479,-4.0527,-4.0546,-4.0569,-4.0557,-4.0297,-3.9874,-3.9746,-3.8897,-3.7822,-3.7326,-3.6745,-3.6157,-3.5883,-3.569,-3.569,-3.569,-3.5679,-3.5679,-3.5679,-3.5673,-3.5654,-3.566,-3.566,-3.5648,-3.5648,-3.5648,-3.5668,-3.5687,-3.5656,-3.5631,-3.5571,-3.5509,-3.5097,-3.4505,-3.4069,-3.3708,-3.3301,-3.2814,-3.2378,-3.2107,-3.1921,-3.1767,-3.1559,-3.1171,-3.0509,-2.9945,-2.9386,-2.9017,-2.8905,-2.8639,-2.8321,-2.788,-2.7634,-2.7631,-2.7482,-2.7269,-2.7112,-2.697,-2.6791,-2.6623,-2.6606,-2.6623,-2.6572,-2.6537,-2.6416,-5.1249,-5.1211,-5.1351,-5.0975,-5.031,-5.0115,-4.935,-4.8161,-4.779,-4.7245,-4.6737,-4.656,-4.6383,-4.6302,-4.6305,-4.6304,-4.6301,-4.6302,-4.6301,-4.63,-4.6296,-4.6293,-4.629,-4.6305,-4.6302,-4.6275,-4.624,-4.6212,-4.6187,-4.6123,-4.6022,-4.5853,-4.506,-4.4482,-4.4253,-4.3537,-4.2531,-4.1783,-4.1479,-4.1412,-4.0856,-4.0561,-4.0508,-4.0492,-4.0492,-4.0492,-4.0492,-4.0492,-4.0535,-4.0546,-4.0441,-4.0393,-4.0342,-4.0311,-4.0158,-4.0159,-4.0056,-3.9515,-3.8626,-3.7999,-3.734,-3.6392,-3.6074,-3.5702,-3.5702,-3.5698,-3.5693,-3.5698,-3.5693,-3.5702,-3.5683,-3.5693,-3.5693,-3.5681,-3.569,-3.5684,-3.5684,-3.5668,-3.5656,-3.5577,-3.5502,-3.5398,-3.5218,-3.4683,-3.4249,-3.388,-3.3524,-3.3104,-3.3092,-3.31,-3.312,-3.2996,-3.2815,-3.172,-3.0746,-3.0367,-2.9863,-2.9389,-2.8929,-2.8718,-2.8417,-2.8014,-2.7826,-2.7922,-2.7808,-2.7622,-2.7454,-2.7346,-2.7162,-2.7005,-2.694,-2.6925,-2.6842,-2.6708,-2.6555]},{"header":{"parameterUnit":"m.s-1","parameterCategory":1,"la1":31.0,"la2":29.5877,"lo1":-88.7671,"lo2":-86.6584,"dy":0.0162,"dx":0.0185,"nx":115,"ny":88,"refTime":"2023-08-02T18:00:00:Z","depth":0,"parameterNumber":3,"parameterNumberName":"V-component_of_WINDS"},"data":[0.0,0.0,0.0,0.0,0.0,0.0,0.0,0.0,0.0,0.0,0.0,0.0,0.0,0.0,0.0,0.0,0.0,0.0,0.0,0.0,0.0,0.0,0.0,0.0,0.0,0.0,0.0,0.0,0.0,0.0,0.0,0.0,0.0,0.0,0.0,0.0,0.0,0.0,0.0,0.0,0.0,0.0,0.0,0.0,0.0,0.0,0.0,0.0,0.0,0.0,0.0,0.0,0.0,0.0,0.0,0.0,0.0,0.0,0.0,0.0,0.0,0.0,0.0,0.0,0.0,0.0,0.0,0.0,0.0,0.0,0.0,0.0,0.0,0.0,0.0,0.0,0.0,0.0,0.0,0.0,0.0,0.0,0.0,0.0,0.0,0.0,0.0,0.0,0.0,0.0,0.0,0.0,0.0,0.0,0.0,0.0,0.0,0.0,0.0,0.0,0.0,0.0,0.0,0.0,0.0,0.0,0.0,0.0,0.0,0.0,0.0,0.0,0.0,0.0,0.0,0.0,0.0,0.0,0.0,0.0,0.0,0.0,0.0,0.0,0.0,0.0,0.0,0.0,0.0,0.0,0.0,0.0,0.0,0.0,0.0,0.0,0.0,0.0,0.0,0.0,0.0,0.0,0.0,0.0,0.0,0.0,0.0,0.0,0.0,0.0,0.0,0.0,0.0,0.0,0.0,0.0,0.0,0.0,0.0,0.0,0.0,0.0,0.0,0.0,0.0,0.0,0.0,0.0,0.0,0.0,0.0,0.0,0.0,0.0,0.0,0.0,0.0,0.0,0.0,0.0,0.0,0.0,0.0,0.0,0.0,0.0,0.0,0.0,0.0,0.0,0.0,0.0,0.0,0.0,0.0,0.0,0.0,0.0,0.0,0.0,0.0,0.0,0.0,0.0,0.0,0.0,0.0,0.0,0.0,0.0,0.0,0.0,0.0,0.0,0.0,0.0,0.0,0.0,0.0,0.0,0.0,0.0,0.0,0.0,0.0,0.0,0.0,0.0,0.0,0.0,0.0,0.0,0.0,0.0,0.0,0.0,0.0,0.0,0.0,0.0,0.0,0.0,0.0,0.0,0.0,0.0,0.0,0.0,0.0,0.0,0.0,0.0,0.0,0.0,0.0,0.0,0.0,0.0,0.0,0.0,0.0,0.0,0.0,0.0,0.0,0.0,0.0,0.0,0.0,0.0,0.0,0.0,0.0,0.0,0.0,0.0,0.0,0.0,0.0,0.0,0.0,0.0,0.0,0.0,0.0,0.0,0.0,0.0,0.0,0.0,0.0,0.0,0.0,0.0,0.0,0.0,0.0,0.0,0.0,0.0,0.0,0.0,0.0,0.0,0.0,0.0,0.0,0.0,0.0,0.0,0.0,0.0,0.0,0.0,0.0,0.0,0.0,0.0,0.0,0.0,0.0,0.0,0.0,0.0,0.0,0.0,0.0,0.0,0.0,0.0,0.0,0.0,0.0,0.0,0.0,0.0,0.0,0.0,0.0,0.0,0.0,0.0,0.0,0.0,0.0,0.0,0.0,0.0,0.0,0.0,0.0,0.0,0.0,0.0,0.0,0.0,0.0,0.0,0.0,0.0,0.0,0.0,0.0,0.0,0.0,0.0,0.0,0.0,0.0,0.0,0.0,0.0,0.0,0.0,0.0,0.0,0.0,0.0,0.0,0.0,0.0,0.0,0.0,0.0,0.0,0.0,0.0,0.0,0.0,0.0,0.0,0.0,0.0,0.0,0.0,0.0,0.0,0.0,0.0,0.0,0.0,0.0,0.0,0.0,0.0,0.0,0.0,0.0,0.0,0.0,0.0,0.0,0.0,0.0,0.0,0.0,0.0,0.0,0.0,0.0,0.0,0.0,0.0,0.0,0.0,0.0,0.0,0.0,0.0,0.0,0.0,0.0,0.0,0.0,0.0,0.0,0.0,0.0,0.0,0.0,0.0,0.0,0.0,0.0,0.0,0.0,0.0,0.0,0.0,0.0,0.0,0.0,0.0,0.0,0.0,0.0,0.0,0.0,0.0,0.0,0.0,0.0,0.0,0.0,0.0,0.0,0.0,0.0,0.0,0.0,0.0,0.0,0.0,0.0,0.0,0.0,0.0,0.0,0.0,0.0,0.0,0.0,0.0,0.0,0.0,0.0,0.0,0.0,0.0,0.0,0.0,0.0,0.0,0.0,0.0,0.0,0.0,0.0,0.0,0.0,0.0,0.0,0.0,0.0,0.0,0.0,0.0,0.0,0.0,0.0,0.0,0.0,0.0,0.0,0.0,0.0,0.0,0.0,0.0,0.0,0.0,0.0,0.0,0.0,0.0,0.0,0.0,0.0,0.0,0.0,0.0,0.0,0.0,0.0,0.0,0.0,0.0,0.0,0.0,0.0,0.0,0.0,0.0,0.0,0.0,0.0,0.0,0.0,0.0,0.0,0.0,0.0,0.0,0.0,0.0,0.0,0.0,0.0,0.0,0.0,0.0,0.0,0.0,0.0,0.0,0.0,0.0,0.0,0.0,0.0,0.0,0.0,0.0,0.0,0.0,0.0,0.0,0.0,0.0,0.0,0.0,0.0,0.0,0.0,0.0,0.0,0.0,0.0,0.0,0.0,0.0,0.0,0.0,0.0,0.0,0.0,0.0,0.0,0.0,0.0,0.0,0.0,0.0,0.0,0.0,0.0,0.0,0.0,0.0,0.0,0.0,0.0,0.0,0.0,0.0,0.0,0.0,0.0,0.0,0.0,0.0,0.0,0.0,0.0,0.0,0.0,0.0,0.0,0.0,0.0,0.0,0.0,0.0,0.0,0.0,0.0,0.0,0.0,0.0,0.0,0.0,0.0,0.0,0.0,0.0,0.0,0.0,0.0,0.0,0.0,0.0,0.0,0.0,0.0,0.0,0.0,0.0,0.0,0.0,0.0,0.0,0.0,0.0,0.0,0.0,0.0,0.0,0.0,0.0,0.0,0.0,0.0,0.0,0.0,0.0,0.0,0.0,0.0,0.0,0.0,0.0,0.0,0.0,0.0,0.0,0.0,0.0,0.0,0.0,0.0,0.0,0.0,0.0,0.0,0.0,0.0,0.0,0.0,0.0,0.0,0.0,0.0,0.0,0.0,0.0,0.0,0.0,0.0,0.0,0.0,0.0,0.0,0.0,0.0,0.0,0.0,0.0,0.0,0.0,0.0,0.0,0.0,0.0,0.0,0.0,0.0,0.0,0.0,0.0,0.0,0.0,0.0,0.0,0.0,0.0,0.0,0.0,0.0,0.0,0.0,0.0,0.0,0.0,0.0,0.0,0.0,0.0,0.0,0.0,0.0,0.0,0.0,0.0,0.0,0.0,0.0,0.0,0.0,0.0,0.0,0.0,0.0,0.0,0.0,0.0,0.0,0.0,0.0,0.0,0.0,0.0,0.0,0.0,0.0,0.0,0.0,0.0,0.0,0.0,0.0,0.0,0.0,0.0,0.0,0.0,0.0,0.0,0.0,0.0,0.0,0.0,0.0,0.0,0.0,0.0,0.0,0.0,0.0,0.0,0.0,0.0,0.0,0.0,0.0,0.0,0.0,0.0,0.0,0.0,0.0,0.0,0.0,0.0,0.0,0.0,0.0,0.0,0.0,0.0,0.0,0.0,0.0,0.0,0.0,0.0,0.0,0.0,0.0,0.0,0.0,0.0,0.0,0.0,0.0,0.0,0.0,0.0,0.0,0.0,0.0,0.0,0.0,0.0,0.0,0.0,0.0,0.0,0.0,0.0,0.0,0.0,0.0,0.0,0.0,0.0,0.0,0.0,0.0,0.0,0.0,0.0,0.0,0.0,0.0,0.0,0.0,0.0,0.0,0.0,0.0,0.0,0.0,0.0,0.0,0.0,0.0,0.0,0.0,0.0,0.0,0.0,0.0,0.0,0.0,0.0,0.0,0.0,0.0,0.0,0.0,0.0,0.0,0.0,0.0,0.0,0.0,0.0,0.0,0.0,0.0,0.0,0.0,0.0,0.0,0.0,0.0,0.0,0.0,0.0,0.0,0.0,0.0,0.0,0.0,0.0,0.0,0.0,0.0,0.0,0.0,0.0,0.0,0.0,0.0,0.0,0.0,0.0,0.0,0.0,0.0,0.0,0.0,0.0,0.0,0.0,0.0,0.0,0.0,0.0,0.0,0.0,0.0,0.0,0.0,0.0,0.0,0.0,0.0,0.0,0.0,0.0,0.0,0.0,0.0,0.0,0.0,0.0,0.0,0.0,0.0,0.0,0.0,0.0,0.0,0.0,0.0,0.7763,0.0,0.0,0.0,0.0,0.0,0.0,0.0,0.0,0.0,0.0,0.0,0.0,0.0,0.0,0.0,0.0,0.0,0.0,0.0,0.0,0.0,0.0,0.0,0.0,0.0,0.0,0.0,0.0,0.0,0.0,0.0,0.0,0.0,0.0,0.0,0.0,0.0,0.0,0.0,0.0,0.0,0.0,0.0,0.0,0.0,0.0,0.0,0.0,0.0,0.0,0.0,0.0,0.0,0.0,0.0,0.0,0.0,0.0,0.0,0.0,0.0,0.0,0.0,0.0,0.0,0.0,0.0,0.0,0.0,0.0,0.0,0.0,0.0,0.0,0.0,0.0,0.0,0.0,0.0,0.0,0.0,0.0,0.0,0.0,0.0,0.0,0.0,0.0,0.0,0.0,0.0,0.0,0.0,0.0,0.0,0.0,0.0,0.0,0.0,0.0,0.0,0.0,0.0,0.0,0.0,0.0,0.0,0.0,0.0,0.0,0.962,0.9706,0.9192,0.8436,0.7449,0.0,0.0,0.0,0.0,0.0,0.0,0.0,0.0,0.0,0.0,0.0,0.0,0.0,0.0,0.0,0.0,0.0,0.0,0.0,0.0,0.0,0.0,0.0,0.0,0.0,0.0,0.0,0.0,0.0,0.0,0.0,0.0,0.0,0.0,0.0,0.0,0.0,0.0,0.0,0.0,0.0,0.0,0.0,0.0,0.0,0.0,0.0,0.0,0.0,0.0,0.0,0.0,0.0,0.0,0.0,0.0,0.0,0.0,0.0,0.0,0.0,0.0,0.0,0.0,0.0,0.0,0.0,0.0,0.0,0.0,0.0,0.0,0.0,0.0,0.0,0.0,0.0,0.0,0.0,0.0,0.0,0.0,0.0,0.0,0.0,0.0,0.0,0.0,0.0,0.0,0.0,0.0,0.0,0.0,0.0,0.0,0.0,0.0,0.0,0.0,0.0,0.0,0.0,0.0,0.0,0.0,0.0,0.0,0.0,0.0,0.0,0.0,0.9473,0.8484,0.6984,0.0,0.0,0.0,0.0,0.0,0.0,0.0,0.0,0.0,0.0,0.0,0.0,0.0,0.0,0.0,0.0,0.0,0.0,0.0,0.0,0.0,0.0,0.0,0.0,0.0,0.0,0.0,0.0,0.0,0.0,0.0,0.0,0.0,0.0,0.0,0.0,0.0,0.0,0.0,0.0,0.0,0.0,0.0,0.0,0.0,0.0,0.0,0.0,0.0,0.0,0.0,0.0,0.0,0.0,0.0,0.0,0.0,0.0,0.0,0.0,0.0,0.0,0.0,0.0,0.0,0.0,0.0,0.0,0.0,0.0,0.0,0.0,0.0,0.0,0.0,0.0,0.0,0.0,0.0,0.0,0.0,0.0,0.0,0.0,0.0,0.0,0.0,0.0,0.0,0.0,0.0,0.0,0.0,0.0,0.0,0.0,0.0,0.0,0.0,0.0,0.0,0.0,0.0,0.0,0.0,0.0,0.0,0.0,0.0,0.0,0.9727,1.0575,1.0205,0.0,0.692,0.0,0.0,0.0,0.0,0.0,0.0,0.0,0.0,0.0,0.0,0.0,0.0,0.0,0.0,0.0,0.0,0.0,0.0,0.0,0.0,0.0,0.0,0.0,0.0,0.0,0.0,0.0,0.0,0.0,0.0,0.0,0.0,0.0,0.0,0.0,0.0,0.0,0.0,0.0,0.0,0.0,0.0,0.0,0.0,0.0,0.0,0.0,0.0,0.0,0.0,0.0,0.0,0.0,0.0,0.0,0.0,0.0,0.0,0.0,0.0,0.0,0.0,0.0,0.0,0.0,0.0,0.0,0.0,0.0,0.0,0.0,0.0,0.0,0.0,0.0,0.0,0.0,0.0,0.0,0.0,0.0,0.0,0.0,0.0,0.0,0.0,0.0,0.0,0.0,0.0,0.0,0.0,0.0,0.0,0.0,0.0,0.0,0.0,0.0,0.0,0.0,0.0,0.0,0.0,0.0,0.0,0.0,0.0,0.0,0.0,0.8478,0.902,0.8313,0.726,0.0,0.0,0.0,0.0,0.0,0.0,0.0,0.0,0.0,0.0,0.0,0.0,0.0,0.0,0.0,0.0,0.0,0.0,0.0,0.0,0.0,0.0,0.0,0.0,0.0,0.0,0.0,0.0,0.0,0.0,0.0,0.0,0.0,0.0,0.0,0.0,0.0,0.0,0.0,0.0,0.0,0.0,0.0,0.0,0.0,0.0,0.0,0.0,0.0,0.0,0.0,0.0,0.0,0.0,0.0,0.0,0.0,0.0,0.0,0.0,0.0,0.0,0.0,0.0,0.0,0.0,0.0,0.0,0.0,0.0,0.0,0.0,0.0,0.0,0.0,0.0,0.0,0.0,0.0,0.0,0.0,0.0,0.0,0.0,0.0,0.0,0.0,0.0,0.0,0.0,0.0,0.0,0.0,0.0,0.0,0.0,0.0,0.0,0.0,0.0,0.0,0.0,0.0,0.0,0.0,0.0,0.0,0.0,0.0,0.0,0.7249,0.7676,0.8096,0.718,0.6264,0.5457,0.0,0.0,0.0,0.0,0.0,0.0,0.0,0.0,0.0,0.0,0.0,0.0,0.0,0.0,0.0,0.0,0.0,0.0,0.0,0.0,0.0,0.0,0.0,0.0,0.0,0.0,0.0,0.0,0.0,0.0,0.0,0.0,0.0,0.0,0.0,0.0,0.0,0.0,0.0,0.0,0.0,0.0,0.0,0.0,0.0,0.0,0.0,0.0,0.0,0.0,0.0,0.0,0.0,0.0,0.0,0.0,0.0,0.0,0.0,0.0,0.0,0.0,0.0,0.0,0.0,0.0,0.0,0.0,0.0,0.0,0.0,0.0,0.0,0.0,0.0,0.0,0.0,0.0,0.0,0.0,0.0,0.0,0.0,0.0,0.0,0.0,0.0,0.0,0.0,0.0,0.0,0.0,0.0,0.0,0.0,0.0,0.0,0.0,0.0,0.0,0.0,0.0,0.0,0.0,0.0,0.0,0.0,0.0,0.8087,0.7532,0.7737,0.8732,0.7808,0.694,0.0,0.0,0.0,0.0,0.0,0.0,0.0,0.0,0.0,0.0,0.0,0.0,0.0,0.0,0.0,0.0,0.0,0.0,0.0,0.0,0.0,0.0,0.0,0.0,0.0,0.0,0.0,0.0,0.0,0.0,0.0,0.0,0.0,0.0,0.0,0.0,0.0,0.0,0.0,0.0,0.0,0.0,0.0,0.0,0.0,0.0,0.0,0.0,0.0,0.0,0.0,0.0,0.0,0.0,0.0,0.0,0.0,0.0,0.0,0.0,0.0,0.0,0.0,0.0,0.0,0.0,0.0,0.0,0.0,0.0,0.0,0.0,0.0,0.0,0.0,0.0,0.0,0.0,0.0,0.0,0.0,0.0,0.0,0.0,0.0,0.0,0.0,0.0,0.0,0.0,0.0,0.0,0.0,0.0,0.0,0.0,0.0,0.0,0.0,0.0,0.0,0.0,0.0,0.0,0.0,0.0,0.0,0.0,0.0,0.6355,0.6367,0.6742,0.7527,0.6489,0.5825,0.0,0.0,0.0,0.0,0.0,0.0,0.0,0.0,0.0,0.0,0.0,0.0,0.0,0.0,0.0,0.0,0.0,0.0,0.0,0.0,0.0,0.0,0.0,0.0,0.0,0.0,0.0,0.0,0.0,0.0,0.0,0.0,0.0,0.0,0.0,0.0,0.0,0.0,0.0,0.0,0.0,0.0,0.0,0.0,0.0,0.0,0.0,0.0,0.0,0.0,0.0,0.0,0.0,0.0,0.0,0.0,0.0,0.0,0.0,0.0,0.0,0.0,0.0,0.0,0.0,0.0,0.0,0.0,0.0,0.0,0.0,0.0,0.0,0.0,0.0,0.0,0.0,0.0,0.0,0.0,0.0,0.0,0.0,0.0,0.0,0.0,0.0,0.0,0.0,0.0,0.0,0.0,0.0,0.0,0.0,0.0,0.0,0.0,0.0,0.0,0.0,0.0,0.0,0.0,0.0,0.0,0.0,0.0,0.0,0.5545,0.0,0.6298,0.6475,0.5791,0.527,0.0,0.0,0.0,0.0,0.0,0.0,0.0,0.0,0.0,0.0,0.0,0.0,0.0,0.0,0.0,0.0,0.0,0.0,0.0,0.0,0.0,0.0,0.0,0.0,0.0,0.0,0.0,0.0,0.0,0.0,0.0,0.0,0.0,0.0,0.0,0.0,0.0,0.0,0.0,0.0,0.0,0.0,0.0,0.0,0.0,0.0,0.0,0.0,0.0,0.0,0.0,0.0,0.0,0.0,0.0,0.0,0.0,0.0,0.0,0.0,0.0,0.0,0.0,0.0,0.0,0.0,0.0,0.0,0.0,0.0,0.0,0.0,0.0,0.0,0.0,0.0,0.0,0.0,0.0,0.0,0.0,0.0,0.0,0.0,0.0,0.0,0.0,0.0,0.0,0.0,0.0,0.0,0.0,0.0,0.0,0.0,0.0,0.0,0.0,0.0,0.0,0.0,0.0,0.0,0.0,0.0,0.0,0.0,0.4717,0.5973,0.6546,0.6556,0.5864,0.5935,0.5356,0.0,0.0,0.0,0.0,0.0,0.0,0.0,0.0,0.0,0.0,0.0,0.0,0.0,0.0,0.0,0.0,0.0,0.0,0.0,0.0,0.0,0.0,0.0,0.0,0.0,0.0,0.0,0.0,0.0,0.0,0.0,0.0,0.0,0.0,0.0,0.0,0.0,0.0,0.0,0.0,0.0,0.0,0.0,0.0,0.0,0.0,0.0,0.0,0.0,0.0,0.0,0.0,0.0,0.0,0.0,0.0,0.0,0.0,0.0,0.0,0.0,0.0,0.0,0.0,0.0,0.0,0.0,0.0,0.0,0.0,0.0,0.0,0.0,0.0,0.0,0.0,0.0,0.0,0.0,0.0,0.0,0.0,0.0,0.0,0.0,0.0,0.0,0.0,0.0,0.0,0.0,0.0,0.0,0.0,0.0,0.0,0.0,0.0,0.0,0.0,0.0,0.0,0.0,0.0,0.0,0.0,0.0,0.0,0.0,0.5841,0.6356,0.6651,0.665,0.5831,0.5376,0.0,0.0,0.0,0.0,0.0,0.0,0.0,0.0,0.0,0.0,0.0,0.0,0.0,0.0,0.0,0.0,0.0,0.0,0.0,0.0,0.0,0.0,0.0,0.0,0.0,0.0,0.0,0.0,0.0,0.0,0.0,0.0,0.0,0.0,0.0,0.0,0.0,0.0,0.0,0.0,0.0,0.0,0.0,0.0,0.0,0.0,0.0,0.0,0.0,0.0,0.0,0.0,0.0,0.0,0.0,0.0,0.0,0.0,0.0,0.0,0.0,0.0,0.0,0.0,0.0,0.0,0.0,0.0,0.0,0.0,0.0,0.0,0.0,0.0,0.0,0.0,0.0,0.0,0.0,0.0,0.0,0.0,0.0,0.0,0.0,0.0,0.0,0.0,0.0,0.0,0.0,0.0,0.0,0.0,0.0,0.0,0.0,0.0,0.0,0.0,0.0,0.0,0.0,0.0,0.0,0.0,0.0,0.0,0.0,0.5767,0.6572,0.6997,0.7014,0.6091,0.5623,0.5561,0.0,0.0,0.0,0.0,0.0,0.0,0.0,0.0,0.0,0.0,0.0,0.0,0.0,0.0,0.0,0.0,0.0,0.0,0.0,0.0,0.0,0.0,0.0,0.0,0.0,0.0,0.0,0.0,0.0,0.0,0.0,0.0,0.0,0.0,0.0,0.0,0.0,0.0,0.0,0.0,0.0,0.0,0.0,0.0,0.0,0.0,0.0,0.0,0.0,0.0,0.0,0.0,0.0,0.0,0.0,0.0,0.0,0.0,0.0,0.0,0.0,0.0,0.0,0.0,0.0,0.0,0.0,0.0,0.0,0.0,0.0,0.0,0.0,0.0,0.0,0.0,0.0,0.0,0.0,0.0,0.0,0.0,0.0,0.0,0.0,0.0,0.0,0.0,0.0,0.0,0.0,0.0,0.0,0.0,0.0,0.0,0.0,0.0,0.0,0.0,0.0,0.0,0.0,0.0,0.0,0.0,0.0,0.0,0.5746,0.7105,0.7587,0.7037,0.6654,0.6017,0.0,0.0,0.0,0.0,0.0,0.0,0.0,0.0,0.0,0.0,0.0,0.0,0.0,0.0,0.0,0.0,0.0,0.0,0.0,0.0,0.0,0.0,0.0,0.0,0.0,0.0,0.0,0.0,0.0,0.0,0.0,0.0,0.0,0.0,0.0,0.0,0.0,0.0,0.0,0.0,0.0,0.0,0.0,0.0,0.0,0.0,0.0,0.0,0.0,0.0,0.0,0.0,0.0,0.0,0.0,0.0,0.0,0.0,0.0,0.0,0.0,0.0,0.0,0.0,0.0,0.0,0.0,0.0,0.0,0.0,0.0,0.0,0.0,0.0,0.0,0.0,0.0,0.0,0.0,0.0,0.0,0.0,0.0,0.0,0.0,0.0,0.0,0.0,0.0,0.0,0.0,0.0,0.0,0.0,0.0,0.0,0.0,0.0,0.0,0.0,0.0,0.0,0.0,0.0,0.0,0.0,0.0,0.0,0.0,0.6247,0.7674,0.8296,0.7913,0.7026,0.64,0.0,0.0,0.0,0.0,0.0,0.0,0.0,0.0,0.0,0.0,0.0,0.0,0.0,0.0,0.0,0.0,0.0,0.0,0.0,0.0,0.0,0.0,0.0,0.0,0.0,0.0,0.0,0.0,0.0,0.0,0.0,0.0,0.0,0.0,0.0,0.0,0.0,0.0,0.0,0.0,0.0,0.0,0.0,0.0,0.0,0.0,0.0,0.0,0.0,0.0,0.0,0.0,0.0,0.0,0.0,0.0,0.0,0.0,0.0,0.0,0.0,0.0,0.0,0.0,0.0,0.0,0.0,0.0,0.0,0.0,0.0,0.0,0.0,0.0,0.0,0.0,0.0,0.0,0.0,0.0,0.0,0.0,0.0,0.0,0.0,0.0,0.0,0.0,0.0,0.0,0.0,0.0,0.0,0.0,0.0,0.0,0.0,0.0,0.0,0.0,0.0,0.0,0.0,0.0,0.0,0.0,0.0,0.0,0.5483,0.5897,0.7784,0.8693,0.8459,0.7597,0.6932,0.0,0.0,0.0,0.0,0.0,0.0,0.0,0.0,0.0,0.0,0.0,0.0,0.0,0.0,0.0,0.0,0.0,0.0,0.0,0.0,0.0,0.0,0.0,0.0,0.0,0.0,0.0,0.0,0.0,0.0,0.0,0.0,0.0,0.0,0.0,0.0,0.0,0.0,0.0,0.0,0.0,0.0,0.0,0.0,0.0,0.0,0.0,0.0,0.0,0.0,0.0,0.0,0.0,0.0,0.0,0.0,0.0,0.0,0.0,0.0,0.0,0.0,0.0,0.0,0.0,0.0,0.0,0.0,0.0,0.0,0.0,0.0,0.0,0.0,0.0,0.0,0.0,0.0,0.0,0.0,0.0,0.0,0.0,0.0,0.0,0.0,0.0,0.0,0.0,0.0,0.0,0.0,0.0,0.0,0.0,0.0,0.0,0.0,0.0,0.0,0.0,0.0,0.0,0.0,0.0,0.0,0.0,0.0,0.5608,0.5263,0.7507,0.8698,0.8706,0.8207,0.7489,0.0,0.0,0.0,0.0,0.0,0.0,0.0,0.0,0.0,0.0,0.0,0.0,0.0,0.0,0.0,0.0,0.0,0.0,0.0,0.0,0.0,0.0,0.0,0.0,0.0,0.0,0.0,0.0,0.0,0.0,0.0,0.0,0.0,0.0,0.0,0.0,0.0,0.0,0.0,0.0,0.0,0.0,0.0,0.0,0.0,0.0,0.0,0.0,0.0,0.0,0.0,0.0,0.0,0.0,0.0,0.0,0.0,0.0,0.0,0.0,0.0,0.0,0.0,0.0,0.0,0.0,0.0,0.0,0.0,0.0,0.0,0.0,0.0,0.0,0.0,0.0,0.0,0.0,0.0,0.0,0.0,0.0,0.0,0.0,0.0,0.0,0.0,0.0,0.0,0.0,0.0,0.0,0.0,0.0,0.0,0.0,0.0,0.0,0.0,0.0,0.0,0.0,0.0,0.0,0.0,0.0,0.0,0.0,0.4313,0.5216,0.6694,0.7871,0.8659,0.8157,0.7476,0.0,0.0,0.0,0.0,0.0,0.0,0.0,0.0,0.0,0.0,0.0,0.0,0.0,0.0,0.0,0.0,0.0,0.0,0.0,0.0,0.0,0.0,0.0,0.0,0.0,0.0,0.0,0.0,0.0,0.0,0.0,0.0,0.0,0.0,0.0,0.0,0.0,0.0,0.0,0.0,0.0,0.0,0.0,0.0,0.0,0.0,0.0,0.0,-1.2738,0.0,0.0,0.0,0.0,0.0,0.0,0.0,0.0,0.0,0.0,0.0,0.0,0.0,0.0,0.0,0.0,0.0,0.0,0.0,0.0,0.0,0.0,0.0,0.0,0.0,0.0,0.0,0.0,0.0,0.0,0.0,0.0,0.0,0.0,0.0,0.0,0.0,0.0,0.0,0.0,0.0,0.0,0.0,0.0,0.0,0.0,0.0,0.0,0.0,0.0,0.0,0.0,0.0,0.0,0.0,0.0,0.0,0.0,0.0,0.4457,0.5229,0.6448,0.7622,0.875,0.837,0.775,0.0,0.0,0.0,0.0,0.0,0.0,0.0,0.0,0.0,0.0,0.0,0.0,0.0,0.0,0.0,0.0,0.0,0.0,0.0,0.0,0.0,0.0,0.0,0.0,0.0,0.0,0.0,0.0,0.0,0.0,0.0,0.0,0.0,0.0,0.0,0.0,0.0,0.0,0.0,0.0,0.0,0.0,0.0,0.0,0.0,0.0,0.0,0.0,0.0,0.0,0.0,0.0,0.0,0.0,0.0,0.0,0.0,0.0,0.0,0.0,0.0,0.0,0.0,0.0,0.0,0.0,0.0,0.0,0.0,0.0,0.0,0.0,0.0,0.0,0.0,0.0,0.0,0.0,0.0,0.0,0.0,0.0,0.0,0.0,0.0,0.0,0.0,0.0,0.0,0.0,0.0,0.0,0.0,0.0,0.0,0.0,0.0,0.0,0.0,0.0,0.0,0.0,0.0,0.0,0.0,0.0,0.0,0.3605,0.486,0.5303,0.6314,0.7487,0.8823,0.8642,0.8004,0.696,0.0,0.0,0.0,0.0,0.0,0.0,0.0,0.0,0.0,0.0,0.0,0.0,0.0,0.0,0.0,0.0,0.0,0.0,0.0,0.0,0.0,0.0,0.0,0.0,0.0,0.0,0.0,0.0,0.0,0.0,0.0,0.0,0.0,0.0,0.0,0.0,0.0,0.0,-0.9836,-1.0464,0.0,0.0,0.0,0.0,0.0,0.0,0.0,0.0,-1.4531,0.0,0.0,0.0,0.0,0.0,0.0,0.0,0.0,0.0,0.0,0.0,0.0,0.0,0.0,0.0,0.0,0.0,0.0,0.0,0.0,0.0,0.0,0.0,0.0,0.0,0.0,0.0,0.0,0.0,0.0,0.0,0.0,0.0,0.0,0.0,0.0,0.0,0.0,0.0,0.0,0.0,0.0,0.0,0.0,0.0,0.0,0.0,0.0,0.0,0.0,0.0,0.0,0.0,0.0,0.0,0.0,0.2797,0.291,0.3714,0.525,0.5545,0.67,0.8761,0.8642,0.8048,0.7105,0.0,0.0,0.0,0.0,0.0,0.0,0.0,0.0,0.0,0.0,0.0,0.0,0.0,0.0,0.0,0.0,0.0,0.0,0.0,0.0,0.0,0.0,0.0,0.0,0.0,0.0,0.0,0.0,0.0,0.0,0.0,0.0,0.0,0.0,0.0,0.0,0.0,0.0,0.0,-1.2487,-1.3383,0.0,0.0,0.0,0.0,0.0,0.0,0.0,0.0,-1.6278,0.0,0.0,0.0,0.0,0.0,0.0,0.0,0.0,0.0,0.0,0.0,0.0,0.0,0.0,0.0,0.0,0.0,0.0,0.0,0.0,0.0,0.0,0.0,0.0,0.0,0.0,0.0,0.0,0.0,0.0,0.0,0.0,0.0,0.0,0.0,0.0,0.0,0.0,0.0,0.0,0.0,0.0,0.0,0.0,0.0,0.0,0.0,0.0,0.0,0.0,0.0,0.0,0.0,0.0,0.0,0.355,0.3761,0.4616,0.6047,0.6203,0.7064,0.8706,0.8374,0.7787,0.0,0.0,0.0,0.0,0.0,0.0,0.0,0.0,0.0,0.0,0.0,0.0,0.0,0.0,0.0,0.0,0.0,0.0,0.0,0.0,0.0,0.0,0.0,0.0,0.0,0.0,0.0,0.0,0.0,0.0,0.0,0.0,0.0,0.0,0.0,0.0,0.0,0.0,0.0,0.0,-1.3755,-1.4668,-1.4762,0.0,0.0,0.0,0.0,0.0,0.0,-1.7158,-1.73,0.0,0.0,0.0,0.0,0.0,0.0,0.0,0.0,0.0,0.0,0.0,0.0,0.0,0.0,0.0,0.0,0.0,0.0,0.0,0.0,0.0,0.0,0.0,0.0,0.0,0.0,0.0,0.0,0.0,0.0,0.0,0.0,0.0,0.0,0.0,0.0,0.0,0.0,0.0,0.0,0.0,0.0,0.0,0.0,0.0,0.0,0.0,0.0,0.0,0.0,0.0,0.0,0.0,0.0,0.0,0.3996,0.4873,0.5827,0.6846,0.7027,0.759,0.8649,0.8184,0.7597,0.0,0.0,0.0,0.0,0.0,0.0,0.0,0.0,0.0,0.0,0.0,0.0,0.0,0.0,0.0,0.0,0.0,0.0,0.0,0.0,0.0,0.0,0.0,0.0,0.0,0.0,0.0,0.0,0.0,0.0,0.0,0.0,0.0,0.0,0.0,0.0,0.0,0.0,0.0,0.0,0.0,-1.6046,-1.5889,-1.6647,0.0,0.0,0.0,0.0,-1.8712,-1.8818,0.0,0.0,0.0,0.0,0.0,0.0,0.0,0.0,0.0,0.0,0.0,0.0,0.0,0.0,0.0,0.0,0.0,0.0,0.0,0.0,0.0,0.0,0.0,0.0,0.0,0.0,0.0,0.0,0.0,0.0,0.0,0.0,0.0,0.0,0.0,0.0,0.0,0.0,0.0,0.0,0.0,0.0,0.0,0.0,0.0,0.0,0.0,0.0,0.0,0.0,0.0,0.0,0.0,0.0,0.0,0.0,0.4066,0.5244,0.6213,0.6887,0.7027,0.7593,0.8659,0.8387,0.7811,0.0,0.0,0.0,0.0,0.0,0.0,0.0,0.0,0.0,0.0,0.0,0.0,0.0,0.0,0.0,0.0,0.0,0.0,0.0,0.0,0.0,0.0,0.0,0.0,0.0,0.0,0.0,0.0,0.0,0.0,0.0,0.0,0.0,0.0,0.0,0.0,0.0,0.0,0.0,0.0,0.0,-1.8146,-1.8137,-1.9093,-2.0049,0.0,0.0,-2.0758,-2.0782,-2.1739,0.0,0.0,0.0,0.0,0.0,0.0,0.0,0.0,0.0,0.0,0.0,0.0,0.0,0.0,0.0,0.0,0.0,0.0,0.0,0.0,0.0,0.0,0.0,0.0,0.0,0.0,0.0,0.0,0.0,0.0,0.0,0.0,0.0,0.0,0.0,0.0,0.0,0.0,0.0,0.0,0.0,0.0,0.0,0.0,0.0,0.0,0.0,0.0,0.0,0.0,0.0,0.0,0.0,0.0,0.0,0.452,0.5493,0.6081,0.6867,0.7787,0.7936,0.8189,0.8584,0.8133,0.7506,0.0,0.0,0.0,0.0,0.0,0.0,0.0,0.0,0.0,0.0,0.0,0.0,0.0,0.0,0.0,0.0,0.0,0.0,0.0,0.0,0.0,0.0,0.0,0.0,0.0,0.0,0.0,0.0,0.0,0.0,0.0,0.0,0.0,0.0,0.0,0.0,0.0,0.0,0.0,0.0,0.0,0.0,-2.0345,-2.1374,0.0,0.0,0.0,-2.3098,-2.4163,0.0,0.0,0.0,0.0,0.0,0.0,0.0,0.0,0.0,0.0,0.0,0.0,0.0,0.0,0.0,0.0,0.0,0.0,0.0,0.0,0.0,0.0,0.0,0.0,0.0,0.0,0.0,0.0,0.0,0.0,0.0,0.0,0.0,0.0,0.0,0.0,0.0,0.0,0.0,0.0,0.0,0.0,0.0,0.0,0.0,0.0,0.0,0.0,0.0,0.0,0.0,0.0,0.0,0.0,0.0,0.0,0.0,0.6664,0.6923,0.7497,0.8428,0.8577,0.8584,0.8477,0.7923,0.0,0.0,0.0,0.0,0.0,0.0,0.0,0.0,0.0,0.0,0.0,0.0,0.0,0.0,0.0,0.0,0.0,0.0,0.0,0.0,0.0,0.0,0.0,0.0,0.0,0.0,0.0,-0.5924,0.0,0.0,0.0,0.0,0.0,0.0,0.0,0.0,0.0,0.0,0.0,0.0,0.0,0.0,-2.209,-2.2429,-2.3534,-2.4793,0.0,0.0,-2.5287,-2.6576,-2.5406,-2.392,0.0,0.0,0.0,0.0,0.0,0.0,0.0,0.0,0.0,0.0,0.0,0.0,0.0,0.0,0.0,0.0,0.0,0.0,0.0,0.0,0.0,0.0,0.0,0.0,0.0,0.0,0.0,0.0,0.0,0.0,0.0,0.0,0.0,0.0,0.0,0.0,0.0,0.0,0.0,0.0,0.0,0.0,0.0,0.0,0.0,0.0,0.0,0.0,0.0,0.0,0.0,0.0,0.0,0.0,0.0,0.6705,0.75,0.8026,0.8333,0.8473,0.8428,0.8337,0.7967,0.738,0.0,0.0,0.0,0.0,0.0,0.0,0.0,0.0,0.0,0.0,0.0,0.0,0.0,0.0,0.0,0.0,0.0,0.0,0.0,0.0,0.0,0.0,0.0,0.0,0.0,0.0,0.0,0.0,0.0,0.0,0.0,0.0,0.0,0.0,0.0,0.0,0.0,0.0,0.0,0.0,0.0,-2.355,-2.4218,-2.5453,-2.6619,0.0,0.0,-2.7213,-2.6862,-2.7623,-2.675,-2.2406,0.0,0.0,0.0,0.0,0.0,0.0,0.0,0.0,0.0,0.0,0.0,0.0,0.0,0.0,0.0,0.0,0.0,0.0,0.0,0.0,0.0,0.0,0.0,0.0,0.0,0.0,0.0,0.0,0.0,0.0,0.0,0.0,0.0,0.0,0.0,0.0,0.0,0.0,0.0,0.0,0.0,0.0,0.0,0.0,0.0,0.0,0.0,0.0,0.0,0.0,0.0,0.0,0.0,0.7065,0.7342,0.8908,0.9587,0.9267,0.9894,0.9945,0.9227,0.8943,0.7882,0.0,0.0,0.0,0.0,0.0,0.0,0.0,0.0,0.0,0.0,0.0,0.0,0.0,0.0,0.0,0.0,0.0,0.0,0.0,0.0,0.0,0.0,0.0,0.0,0.0,0.0,0.0,0.0,-0.7247,-0.7812,-0.8089,0.0,0.0,0.0,0.0,0.0,0.0,0.0,0.0,0.0,0.0,-2.4927,-2.7285,-2.785,0.0,0.0,-2.9906,-2.9601,-3.0155,-2.919,-2.7508,-2.4912,-2.3251,0.0,0.0,0.0,0.0,0.0,0.0,0.0,0.0,0.0,0.0,0.0,0.0,0.0,0.0,0.0,0.0,0.0,0.0,0.0,0.0,0.0,0.0,0.0,0.0,0.0,0.0,0.0,0.0,0.0,0.0,0.0,0.0,0.0,0.0,0.0,0.0,0.0,0.0,0.0,0.0,0.0,0.0,0.0,0.0,0.0,0.0,0.0,0.0,0.0,0.0,0.0,0.0,0.7866,0.8192,0.9867,1.0539,1.0238,1.0943,1.0847,0.9791,0.9498,0.817,0.0,0.0,0.0,0.0,0.0,0.0,0.0,0.0,0.0,0.0,0.0,0.0,0.0,0.0,0.0,0.0,0.0,0.0,0.0,0.0,0.0,0.0,0.0,0.0,0.0,0.0,0.0,0.0,-0.7337,-0.8054,-0.9043,0.0,0.0,0.0,0.0,0.0,0.0,0.0,0.0,0.0,0.0,-2.6757,-2.9254,-2.9608,-3.02,-3.1774,-3.1094,-3.0718,-3.1557,-3.013,-2.829,-2.6481,0.0,0.0,0.0,0.0,0.0,0.0,0.0,0.0,0.0,0.0,0.0,0.0,0.0,0.0,0.0,0.0,0.0,0.0,0.0,0.0,0.0,0.0,0.0,0.0,0.0,0.0,0.0,0.0,0.0,0.0,0.0,0.0,0.0,0.0,0.0,0.0,0.0,0.0,0.0,0.0,0.0,0.0,0.0,0.0,0.0,0.0,0.0,0.0,0.0,0.0,0.0,0.0,0.0,0.831,0.9289,1.0233,1.0863,1.1165,1.1228,1.0743,0.971,0.9477,0.8176,0.5529,0.0,0.0,0.0,0.0,0.0,0.0,0.0,0.0,0.0,0.0,0.0,0.0,0.0,0.0,0.0,0.0,0.0,0.0,0.0,0.0,0.0,0.0,0.0,0.0,0.0,0.0,-0.7128,-0.711,-0.7799,0.0,0.0,0.0,0.0,0.0,0.0,0.0,0.0,0.0,0.0,-2.7033,-2.9077,-2.9687,-3.0593,-3.1204,-3.1215,-3.068,-3.0263,-3.0306,-3.0236,-2.9259,0.0,0.0,0.0,0.0,0.0,0.0,0.0,0.0,0.0,0.0,0.0,0.0,0.0,0.0,0.0,0.0,0.0,0.0,0.0,0.0,0.0,0.0,0.0,0.0,0.0,0.0,0.0,0.3213,0.2914,0.0,0.0,0.0,0.0,0.0,0.0,0.0,0.0,0.0,0.0,0.0,0.5235,0.6255,0.0,0.0,0.0,0.0,0.0,0.0,0.0,0.0,0.0,0.0,0.0,0.0,1.0081,1.0378,1.2143,1.2797,1.2231,1.2877,1.2436,1.0681,0.9795,0.7556,0.3782,0.0,0.0,0.0,0.0,0.0,0.0,0.0,0.0,0.0,0.0,0.0,0.0,0.0,0.0,0.0,0.0,0.0,0.0,0.0,0.0,0.0,0.0,0.0,0.0,0.0,-0.831,0.0,0.0,0.0,0.0,0.0,0.0,0.0,0.0,0.0,0.0,0.0,-2.2951,-2.6485,-2.7704,-2.9185,-3.1672,-3.1799,-3.2059,0.0,0.0,0.0,0.0,0.0,0.0,0.0,0.0,0.0,0.0,0.0,0.0,0.0,0.0,-2.3058,-2.0308,-1.9145,-1.8561,-1.8522,0.0,0.0,0.0,0.0,0.0,0.0,0.0,0.0,0.0,0.0,0.0,0.0,0.0,0.0,0.0,0.0,0.3482,0.0,0.0,0.0,0.0,0.0,0.0,0.0,0.0,0.4797,0.5468,0.5778,0.6786,0.742,0.0,0.808,0.7804,0.0,0.0,0.0,0.0,0.0,0.0,0.0,0.0,1.1345,1.1637,1.3366,1.3938,1.3307,1.395,1.3318,1.1209,0.8941,0.6176,0.2983,0.0755,-0.0722,0.0,0.0,0.0,0.0,0.0,0.0,0.0,0.0,0.0,0.0,0.0,0.0,0.0,0.0,0.0,0.0,0.0,0.0,0.0,0.0,0.0,0.0,0.0,-0.9274,0.0,0.0,0.0,0.0,0.0,0.0,0.0,0.0,0.0,-1.892,-2.1538,-2.4532,-2.7825,-2.8926,-3.027,-3.2395,0.0,0.0,0.0,0.0,0.0,0.0,0.0,-3.1128,-3.0369,-2.882,-2.7264,-2.6169,-2.6571,-2.6976,-2.6749,0.0,0.0,-2.2526,-2.1168,-2.0418,-2.0388,-1.9901,-1.958,-2.0016,-2.0117,-2.019,0.0,0.0,0.0,0.0,0.0,0.0,0.0,0.0,0.4865,0.473,0.0,0.4261,0.0,0.0,0.0,0.0,0.0,0.0,0.0,0.0,0.5939,0.6369,0.6365,0.6849,0.7363,0.7951,0.8457,0.8706,0.8696,0.7869,0.0,0.0,0.0,0.0,0.0,0.0,1.2082,1.307,1.394,1.4286,1.4286,1.4244,1.3216,1.0991,0.6873,0.4199,0.3064,0.0328,-0.1538,-0.2334,-0.3796,0.0,0.0,0.0,0.0,0.0,0.0,0.0,0.0,0.0,0.0,0.0,0.0,0.0,0.0,0.0,0.0,0.0,0.0,0.0,0.0,-1.0239,0.0,0.0,0.0,0.0,0.0,0.0,0.0,0.0,0.0,0.0,-2.0847,-2.3645,-2.6313,-2.8154,0.0,0.0,0.0,0.0,-3.3518,-3.3249,-3.3184,-3.3201,-3.3211,-3.3722,-3.3616,-3.2249,0.0,0.0,-2.74,-2.7385,-2.7608,-2.6927,-2.6863,-2.6749,-2.6652,-2.3912,-2.2158,-2.2981,-2.162,-2.0724,-2.1685,-2.1873,-2.2113,1.0829,0.0,0.0,0.0,0.0,0.5787,0.5901,0.606,0.5976,0.5803,0.5598,0.523,0.0,0.0,0.0,0.0,0.0,0.0,0.5082,0.5315,0.5928,0.6546,0.7226,0.797,0.8686,0.9377,0.9718,0.9805,0.9683,0.897,0.8639,0.8666,0.0,0.0,0.0,0.0,1.3325,1.3685,1.4452,1.4709,1.4298,1.3559,1.1409,0.7786,0.5099,0.2821,0.0985,-0.106,-0.2619,-0.3546,-0.4584,0.0,0.0,0.0,0.0,0.0,0.0,0.0,0.0,0.0,0.0,0.0,0.0,0.0,0.0,0.0,0.0,0.0,0.0,0.0,-1.0466,-1.1033,-1.137,0.0,0.0,0.0,0.0,0.0,0.0,0.0,0.0,0.0,-2.4731,-2.6031,-2.7598,0.0,0.0,-3.1913,-3.2688,-3.3494,-3.4146,-3.4538,0.0,0.0,0.0,-3.3939,-3.3333,-3.316,-3.2235,-3.1176,-3.0279,-2.9652,-2.92,-2.8989,-2.8551,-2.8029,-2.7385,-2.5354,-2.3774,-2.3851,-2.2948,-2.2222,-2.2548,-2.2649,-2.2693,1.2126,0.9116,0.8066,0.7211,0.6487,0.6363,0.6469,0.6687,0.6613,0.627,0.5724,0.5431,0.4481,0.302,0.3298,0.0,0.0,0.0,0.5151,0.5786,0.6096,0.6542,0.7176,0.7925,0.8726,0.9521,0.9813,1.0004,1.0228,0.9596,0.9253,0.9257,0.0,0.0,1.2587,1.35,1.4068,1.4174,1.4376,1.4196,1.3661,1.2242,0.9995,0.7022,0.4565,0.2279,0.0134,-0.1888,-0.3557,-0.4914,-0.5797,-0.6762,0.0,0.0,0.0,0.0,0.0,0.0,0.0,0.0,0.0,0.0,0.0,-1.4169,-1.3218,0.0,0.0,0.0,-1.2089,-1.2031,-1.1749,-1.2894,0.0,0.0,0.0,0.0,0.0,0.0,0.0,-1.9416,-2.1977,-2.4519,-2.6793,-2.7574,-2.8703,-3.0837,-3.1488,-3.2186,-3.3451,0.0,-3.4835,-3.5526,-3.5832,-3.5934,-3.5656,-3.4924,-3.4257,-3.3884,-3.3018,-3.2031,-3.1336,-3.0577,-3.0055,-2.9827,-2.907,-2.8223,-2.7786,-2.598,-2.4472,-2.4338,-2.3696,-2.3142,-2.2933,-2.2888,-2.291,1.2917,1.0272,0.8879,0.7849,0.7067,0.7067,0.6888,0.6672,0.6672,0.608,0.5058,0.4952,0.4121,0.2889,0.2416,0.0,0.0,0.4167,0.5008,0.6134,0.6234,0.6337,0.6434,0.7232,0.7975,0.8726,0.897,0.9414,1.001,0.9571,0.9512,0.9872,1.0318,1.1691,1.391,1.4082,1.4289,1.4502,1.3784,1.3071,1.2441,1.0485,0.8892,0.7617,0.4663,0.2082,0.0045,-0.2349,-0.4536,-0.6324,-0.719,-0.7957,-0.8693,0.0,0.0,0.0,0.0,0.0,0.0,0.0,0.0,0.0,0.0,0.0,0.0,0.0,0.0,0.0,-1.4302,0.0,-1.3614,-1.5331,0.0,0.0,0.0,-1.6243,-1.5572,-1.8216,-2.0367,-2.1151,0.0,0.0,-2.7656,0.0,-2.9707,-3.1582,-3.2148,-3.2841,-3.4047,-3.4743,-3.5436,-3.6028,-3.6259,-3.6284,-3.6232,-3.6159,-3.5728,-3.4636,-3.3914,-3.2908,-3.1472,-3.0577,-3.0222,-2.9946,-2.8741,-2.7786,-2.7737,-2.6254,-2.4882,-2.44,-2.3909,-2.3458,-2.3023,-2.2888,-2.2947,1.1999,1.1064,0.9175,0.8055,0.759,0.7362,0.668,0.5751,0.5746,0.5004,0.3814,0.3783,0.354,0.3114,0.2159,0.2334,0.3357,0.347,0.3693,0.4026,0.4782,0.5479,0.6121,0.7129,0.7829,0.8173,0.8028,0.7872,0.7664,0.7319,0.8006,0.9598,0.9789,1.0986,1.3168,1.2961,1.3117,1.376,1.285,1.1707,1.0342,0.9049,0.743,0.5509,0.2666,0.0268,-0.1569,-0.3756,-0.5833,-0.7735,-0.8139,-0.9097,-1.0773,-1.0572,0.0,0.0,0.0,0.0,0.0,0.0,0.0,0.0,0.0,-1.6134,-1.4381,0.0,-1.5477,0.0,-1.531,-1.5604,-1.5593,-1.6263,0.0,0.0,-1.6674,-1.7141,-1.8737,-1.9979,-2.156,-2.3832,-2.5889,-2.7783,-2.9457,-3.0262,-3.1254,-3.2681,-3.2606,-3.2668,-3.3375,-3.4471,-3.5247,-3.5481,-3.5963,-3.6284,-3.6284,-3.6284,-3.6147,-3.5779,-3.4338,-3.3072,-3.2629,-3.1117,-2.9989,-2.9853,-2.9183,-2.8385,-2.7802,-2.6913,-2.5803,-2.4606,-2.3915,-2.3458,-2.3,-2.2888,-2.2925,1.1727,1.0878,0.9493,0.838,0.7483,0.6852,0.6141,0.5426,0.4825,0.3895,0.2646,0.2136,0.1829,0.1731,0.1145,0.1444,0.2448,0.2478,0.2771,0.3224,0.3827,0.4327,0.477,0.572,0.6371,0.6769,0.6822,0.6869,0.6766,0.652,0.7018,0.8153,0.8202,0.9038,1.0734,1.1323,1.1953,1.263,1.1063,0.9337,0.7508,0.6454,0.5083,0.3427,0.1048,-0.1148,-0.3025,-0.4874,-0.6839,-0.8855,-0.9462,-1.0381,-1.1895,-1.1918,-1.1922,0.0,0.0,0.0,0.0,0.0,0.0,0.0,0.0,0.0,0.0,0.0,-1.6885,0.0,-1.7388,-1.7912,-1.7905,-1.8507,-1.8899,-1.886,-1.8517,-1.8896,-2.0468,-2.1369,-2.2613,-2.4556,-2.6158,-2.7645,-2.9098,-2.9745,-3.0771,-3.2625,-3.2613,-3.2765,-3.3732,-3.4649,-3.527,-3.5453,-3.5941,-3.628,-3.6255,-3.628,-3.6032,-3.529,-3.4317,-3.3267,-3.2298,-3.1143,-3.0215,-2.9903,-2.9038,-2.8207,-2.7733,-2.6879,-2.5782,-2.4688,-2.4078,-2.3674,-2.3045,-2.2888,-2.291,1.1358,0.9755,0.9487,0.8407,0.6913,0.5806,0.5244,0.5036,0.3896,0.2747,0.1511,0.0442,0.0,0.0,0.0,0.0519,0.1394,0.1371,0.1916,0.2771,0.2922,0.2972,0.3022,0.3867,0.4414,0.4818,0.5268,0.5667,0.6014,0.5817,0.577,0.5869,0.5872,0.636,0.7338,0.8743,0.9828,1.0556,0.8488,0.641,0.4416,0.3399,0.2471,0.158,-0.0452,-0.2411,-0.4232,-0.5987,-0.7832,-0.9798,-1.087,-1.1831,-1.2638,-1.3133,-1.3093,0.0,-1.3277,0.0,0.0,0.0,0.0,0.0,0.0,0.0,0.0,-1.8562,-1.8662,-1.8462,-1.9799,-2.0512,-2.0179,-2.0995,-2.113,-2.0187,-2.0257,-2.0707,-2.136,-2.2402,-2.3463,-2.4591,-2.5533,-2.665,-2.8187,-2.8565,-2.9715,-3.1962,-3.2502,-3.2917,-3.4118,-3.4778,-3.5247,-3.5655,-3.6023,-3.6212,-3.6148,-3.6212,-3.5805,-3.4509,-3.3978,-3.326,-3.1462,-3.0858,-3.0493,-2.9903,-2.8843,-2.7899,-2.7753,-2.6571,-2.533,-2.4332,-2.4097,-2.3794,-2.3113,-2.2888,-2.2933,0.9359,0.7061,0.7715,0.7093,0.5626,0.4158,0.3299,0.2868,0.2631,0.1701,0.0336,0.0112,0.0,0.0,0.0,0.0104,0.0305,0.0303,0.0404,0.0606,0.1513,0.1915,0.1965,0.297,0.312,0.2619,0.2719,0.2467,0.1911,0.1861,0.2312,0.3162,0.3162,0.3357,0.3748,0.0,0.0,0.0,0.4453,0.3504,0.2249,0.123,0.0626,0.0374,-0.2111,0.0,-0.4971,-0.7549,-0.9465,-1.0434,-1.2197,0.0,0.0,0.0,0.0,0.0,0.0,0.0,0.0,0.0,0.0,0.0,-1.9875,-1.9598,-1.9282,-2.0128,-2.0422,-1.9831,-2.1029,-2.1767,-2.1541,-2.1261,-2.1028,-2.0802,-2.0319,-2.0602,-2.2037,-2.2493,-2.3543,-2.6133,-2.6328,-2.7152,-2.9305,-2.9909,-3.0541,-3.205,-3.2624,-3.2883,-3.3145,-3.4127,-3.4883,-3.5211,-3.565,-3.5975,-3.5866,-3.5954,-3.5681,-3.4857,-3.3756,-3.2827,-3.1857,-3.0772,-3.0098,-2.9886,-2.9183,-2.8336,-2.7781,-2.6568,-2.5128,-2.3747,-2.3456,-2.3305,-2.2958,-2.2888,-2.2933,0.7626,0.0,0.6717,0.6051,0.0,0.3796,0.2824,0.1881,0.1678,0.1196,0.0448,0.0278,0.022,0.0216,0.0053,0.0,0.0,0.0,0.0,0.0,0.0555,0.0807,0.0807,0.1361,0.1564,0.1413,0.1261,0.116,0.1008,0.0857,0.1058,0.1609,0.161,0.1558,0.1355,0.01,-0.005,0.1003,0.1405,0.1103,0.005,-0.1329,-0.2019,-0.1961,0.0,0.0,0.0,0.0,0.0,0.0,0.0,0.0,0.0,0.0,0.0,-1.5817,-1.6413,-1.727,-1.8411,-1.8965,-1.9952,-2.1579,-2.142,-2.1031,-2.0607,-2.1407,-2.1823,-2.1699,-2.2019,-2.2273,-2.2401,-2.1612,-2.1068,-2.1021,-2.0522,-2.0828,-2.2211,-2.2494,-2.3262,-2.4982,-2.5707,-2.6614,-2.8368,-2.9066,-2.9993,-3.15,-3.2075,-3.2401,-3.2746,-3.3594,-3.435,-3.469,-3.4981,-3.5237,-3.5362,-3.526,-3.4834,-3.3851,-3.3156,-3.2254,-3.0986,-3.0402,-3.0065,-2.9865,-2.9021,-2.8126,-2.7688,-2.628,-2.4714,-2.3593,-2.2978,-2.2677,-2.2505,-2.2738,-2.3037,0.6051,0.5513,0.5755,0.4973,0.3647,0.3593,0.2683,0.1199,0.0,0.0,0.0,-0.0055,-0.0164,-0.0217,-0.0423,-0.0572,-0.0568,-0.0559,-0.0555,-0.0555,-0.0555,-0.0555,-0.0555,-0.0555,-0.0353,0.0,-0.0252,-0.0202,0.0201,-0.005,-0.0201,-0.0201,-0.0201,-0.0453,-0.1107,-0.2509,-0.3012,-0.2567,-0.1556,-0.1506,-0.2566,-0.4237,-0.4936,-0.4717,-0.6911,-0.8603,-0.9688,-1.045,-1.1754,-1.3579,-1.4613,-1.5369,-1.5839,-1.6598,-1.7096,-1.7238,-1.8141,-1.9158,-2.0185,-2.0567,-2.1308,-2.2585,-2.2303,-2.2002,-2.1778,-2.2321,-2.2843,-2.3239,-2.2678,-2.2553,-2.292,-2.1778,-2.0975,-2.0935,-2.0492,-2.0739,-2.1958,-2.213,-2.2482,-2.3606,-2.4665,-2.5623,-2.6694,-2.7732,-2.8871,-3.0435,-3.119,-3.1751,-3.2394,-3.323,-3.3951,-3.4219,-3.439,-3.4471,-3.4681,-3.4585,-3.3818,-3.2699,-3.234,-3.1575,-3.0198,-2.9805,-2.9918,-2.9946,-2.8859,-2.8174,-2.7636,-2.6041,-2.4332,-2.3313,-2.2474,-2.189,-2.1917,-2.2447,-2.2996,0.4923,0.2763,0.3951,0.364,0.2267,0.2298,0.1517,0.0236,-0.0406,-0.1253,-0.2184,-0.2235,-0.2362,-0.251,-0.2549,-0.2657,-0.2732,-0.2774,-0.272,0.0,-0.2771,-0.2771,-0.2772,-0.272,-0.2821,-0.2972,-0.3222,-0.347,-0.3623,-0.382,-0.4019,-0.3969,-0.4019,-0.437,-0.5175,-0.6077,-0.6478,-0.6381,-0.5363,-0.5313,-0.6379,-0.7514,-0.8018,-0.793,-0.9766,-1.0894,-1.1015,-1.2587,-1.3521,-1.3673,-1.5793,-1.6783,-1.6239,-1.7528,-1.8272,-1.815,-1.8738,-1.951,-2.0398,-2.102,-2.159,-2.2149,-2.2146,-2.2085,-2.2048,-2.2582,-2.2974,-2.304,-2.2907,-2.2914,-2.2879,-2.1494,-2.0498,-2.0312,-1.9678,-1.9715,-2.0899,-2.0781,-2.1327,-2.3187,-2.4011,-2.479,-2.5953,-2.7371,-2.8487,-2.9286,-3.0329,-3.1058,-3.1879,-3.29,-3.3652,-3.3806,-3.3951,-3.407,-3.4119,-3.4095,-3.3445,-3.2336,-3.1429,-3.0723,-2.9896,-2.9275,-2.914,-2.9745,-2.9502,-2.8946,-2.7923,-2.6218,-2.4444,-2.2945,-2.1782,-2.1093,-2.1266,-2.1935,-2.2664,0.3349,0.2264,0.2822,0.2263,0.0892,0.0124,-0.0852,-0.2022,-0.2284,-0.2293,-0.224,-0.233,-0.2451,-0.2552,-0.2842,-0.2997,-0.3022,-0.3123,-0.3225,-0.3225,-0.3225,-0.3225,-0.3225,-0.3225,-0.3275,-0.3425,-0.3823,-0.4074,-0.4225,-0.4574,-0.4774,-0.4824,-0.5227,-0.5874,-0.6628,-0.7431,-0.8035,-0.8428,-0.7176,-0.6725,-0.7185,-0.8101,-0.8802,-0.937,-1.0758,-1.1921,-1.2839,-1.3761,-1.4655,-1.5646,-1.677,-1.7538,-1.7889,-1.8588,-1.9049,-1.9163,-1.966,-2.0432,-2.1417,-2.199,-2.2179,-2.1977,-2.1924,-2.185,-2.1626,-2.2462,-2.2927,-2.2703,-2.2505,-2.2155,-2.169,-2.0537,-1.9795,-1.9717,-1.9262,-1.9258,-1.9754,-1.9899,-2.0297,-2.1371,-2.2736,-2.3967,-2.4909,-2.6771,-2.8241,-2.8871,-2.9979,-3.1029,-3.1625,-3.2425,-3.298,-3.2996,-3.3071,-3.3266,-3.3485,-3.3277,-3.2732,-3.1758,-3.08,-2.991,-2.915,-2.8568,-2.8785,-2.913,-2.9102,-2.8494,-2.7502,-2.5825,-2.4182,-2.2877,-2.1812,-2.1337,-2.1576,-2.2241,-2.295,0.202,0.168,0.1657,0.0847,-0.0448,-0.1563,-0.2694,-0.3729,-0.3728,-0.3296,-0.2702,-0.282,-0.2931,-0.2923,-0.3354,-0.355,-0.3531,-0.3726,-0.3879,-0.3925,-0.3927,-0.3927,-0.3927,-0.3925,-0.3925,-0.3977,-0.4427,-0.4676,-0.4776,-0.5179,-0.5477,-0.5577,-0.6229,-0.6877,-0.7574,-0.823,-0.8931,-0.948,-0.8627,-0.8071,-0.8124,-0.916,-1.0188,-1.1071,-1.2044,-1.3191,-1.4509,-1.466,-1.5433,-1.6812,-1.7144,-1.7704,-1.8648,-1.9115,-1.9496,-1.9868,-2.0324,-2.0954,-2.1871,-2.2168,-2.2117,-2.1645,-2.1454,-2.129,-2.1233,-2.1939,-2.2429,-2.2128,-2.1738,-2.1231,-2.0615,-1.9766,-1.9222,-1.9152,-1.9002,-1.887,-1.898,-1.9288,-1.9531,-1.9796,-2.1596,-2.3225,-2.3916,-2.5711,-2.7432,-2.847,-2.9864,-3.097,-3.1466,-3.1951,-3.2259,-3.2398,-3.2398,-3.2574,-3.2906,-3.2551,-3.1911,-3.1149,-3.0148,-2.9304,-2.8548,-2.8446,-2.8656,-2.8925,-2.852,-2.7936,-2.7142,-2.5466,-2.391,-2.2761,-2.1913,-2.1547,-2.1957,-2.2403,-2.3105,0.1413,0.0268,0.0,-0.0647,-0.1833,-0.2076,-0.2844,-0.3793,-0.373,-0.4307,-0.4975,-0.5124,-0.505,-0.5175,-0.5208,-0.5311,-0.5598,-0.5739,-0.5789,-0.5984,-0.6084,-0.6087,-0.5984,-0.6034,-0.6087,-0.6084,-0.6289,-0.6537,-0.6833,-0.7188,-0.749,-0.7736,-0.8035,-0.8375,-0.8673,-0.9031,-0.9331,-0.9628,-1.0395,-1.0828,-1.0925,-1.2732,-1.3915,-1.4161,-1.5107,-1.5708,-1.5713,-1.5755,-1.5716,-1.5658,-1.638,-1.683,-1.7106,-1.8444,-1.9478,-1.9869,-2.0139,-2.0546,-2.0941,-2.0508,-2.0489,-2.0895,-2.0459,-2.0333,-2.0769,-2.0914,-2.1106,-2.1155,-2.0885,-2.0615,-2.0459,-1.9618,-1.8993,-1.8749,-1.8559,-1.8435,-1.8454,-1.8926,-1.9269,-1.9389,-2.1121,-2.2377,-2.2446,-2.4225,-2.6134,-2.7935,-2.9402,-3.0539,-3.0969,-3.139,-3.1827,-3.2195,-3.2367,-3.2364,-3.2396,-3.1909,-3.125,-3.0531,-2.941,-2.8737,-2.8599,-2.8404,-2.8392,-2.8786,-2.8698,-2.7816,-2.681,-2.5369,-2.3634,-2.2814,-2.1999,-2.1389,-2.1999,-2.2228,-2.2513,0.1346,0.0,0.0,-0.1245,-0.3192,-0.4046,-0.4669,-0.4997,-0.4873,-0.5093,-0.5514,-0.5443,-0.5363,-0.5349,-0.5456,-0.5563,-0.5634,-0.5871,-0.6044,-0.6189,-0.6339,-0.6387,-0.6387,-0.6387,-0.6387,-0.6437,-0.6642,-0.7285,-0.8223,-0.9209,-0.9801,-0.9903,-1.0145,-1.044,-1.0681,-1.093,-1.1175,-1.1473,-1.249,-1.3028,-1.3028,-1.3221,-1.3843,-1.4732,-1.5093,-1.565,-1.6395,-1.6294,-1.629,-1.6477,-1.6807,-1.7056,-1.7165,-1.8075,-1.864,-1.8766,-1.9392,-1.9851,-2.0023,-1.9927,-2.0021,-2.0294,-2.006,-1.9982,-2.0051,-1.9754,-1.9629,-1.9875,-2.0138,-2.0177,-1.9657,-1.9112,-1.8683,-1.8399,-1.814,-1.7873,-1.7448,-1.7926,-1.8272,-1.8286,-2.0154,-2.1599,-2.188,-2.4099,-2.663,-2.8408,-2.9588,-3.0063,-3.0368,-3.064,-3.09,-3.1159,-3.1228,-3.1413,-3.1628,-3.1259,-3.0571,-2.9879,-2.9058,-2.8486,-2.8054,-2.7876,-2.7827,-2.8322,-2.8008,-2.7342,-2.6321,-2.5417,-2.4114,-2.3135,-2.2644,-2.2294,-2.279,-2.2534,-2.2511,0.0471,-0.1142,-0.1612,-0.2841,-0.4631,-0.5605,-0.6023,-0.5904,-0.5749,-0.5611,-0.557,-0.5484,-0.5365,-0.5277,-0.5349,-0.5404,-0.5442,-0.5768,-0.5969,-0.6044,-0.6287,-0.6387,-0.6387,-0.6387,-0.6387,-0.6437,-0.6592,-0.7431,-0.8852,-1.0431,-1.1219,-1.1219,-1.1468,-1.176,-1.1999,-1.2198,-1.2436,-1.2732,-1.3757,-1.4298,-1.4202,-1.3896,-1.4226,-1.5311,-1.523,-1.5689,-1.6857,-1.6675,-1.6616,-1.6846,-1.6858,-1.683,-1.6793,-1.7371,-1.7749,-1.7866,-1.8517,-1.8995,-1.9005,-1.9028,-1.9193,-1.9403,-1.9139,-1.887,-1.8797,-1.8285,-1.797,-1.807,-1.8836,-1.9067,-1.8993,-1.8634,-1.8364,-1.8179,-1.7843,-1.7348,-1.7035,-1.7415,-1.7662,-1.7697,-1.9583,-2.1062,-2.1778,-2.4268,-2.691,-2.8074,-2.8923,-2.9456,-2.9595,-2.9666,-2.9668,-2.989,-2.995,-3.0297,-3.0894,-3.0566,-2.9925,-2.9454,-2.8784,-2.8058,-2.757,-2.7524,-2.7517,-2.806,-2.7582,-2.6915,-2.5997,-2.5177,-2.4307,-2.3368,-2.2904,-2.295,-2.3165,-2.2706,-2.205,-0.1545,-0.4099,-0.5579,-0.5946,-0.6114,-0.6168,-0.6074,-0.591,-0.5812,-0.5725,-0.558,-0.5541,-0.5453,-0.5365,-0.5277,-0.5305,-0.541,-0.5688,-0.5887,-0.6007,-0.6242,-0.6387,-0.6387,-0.6387,-0.6387,-0.6387,-0.6437,-0.7329,-0.8905,-1.0431,-1.1219,-1.1268,-1.1658,-1.1809,-1.2145,-1.2441,-1.2484,-1.3022,-1.3902,-1.4394,-1.449,-1.5452,-1.6069,-1.6393,-1.6466,-1.66,-1.6863,-1.6881,-1.6632,-1.6029,-1.6042,-1.574,-1.5264,-1.6214,-1.7034,-1.7428,-1.7765,-1.796,-1.7885,-1.7476,-1.7482,-1.8092,-1.722,-1.6557,-1.7098,-1.6514,-1.6056,-1.5856,-1.6766,-1.752,-1.8407,-1.8154,-1.8018,-1.8184,-1.7454,-1.713,-1.7356,-1.746,-1.7774,-1.8123,-1.9495,-2.1013,-2.2084,-2.4336,-2.5772,-2.6516,-2.7427,-2.8379,-2.8632,-2.8439,-2.8368,-2.864,-2.8875,-2.9238,-3.0098,-2.9863,-2.9479,-2.9056,-2.8438,-2.7835,-2.7904,-2.7893,-2.7871,-2.7655,-2.7075,-2.6409,-2.5663,-2.4798,-2.3862,-2.3202,-2.3052,-2.3142,-2.3142,-2.2109,-2.1449,-0.2484,-0.443,-0.5789,-0.6294,-0.618,-0.6123,-0.6029,-0.5912,-0.5821,-0.5729,-0.5639,-0.5549,-0.5461,-0.538,-0.5347,-0.532,-0.5303,-0.5448,-0.5677,-0.5887,-0.6075,-0.6239,-0.6387,-0.6387,-0.6387,-0.6387,-0.6437,-0.7617,-0.978,-1.1404,-1.2538,-1.3125,-1.3468,-1.3709,-1.395,-1.4238,-1.4472,-1.4717,-1.5105,-1.535,-1.5404,-1.5981,-1.6407,-1.6831,-1.6878,-1.6962,-1.7157,-1.7005,-1.6697,-1.6221,-1.6023,-1.574,-1.5436,-1.5862,-1.6213,-1.6413,-1.6752,-1.6928,-1.6907,-1.6614,-1.6526,-1.6806,-1.6147,-1.5716,-1.5784,-1.543,-1.5216,-1.5383,-1.5461,-1.6154,-1.713,-1.7531,-1.754,-1.7364,-1.6898,-1.6493,-1.6524,-1.7009,-1.7559,-1.7935,-1.9535,-2.1543,-2.3099,-2.4602,-2.5464,-2.6003,-2.6578,-2.7042,-2.7262,-2.7157,-2.7145,-2.738,-2.7586,-2.7835,-2.8132,-2.8661,-2.8676,-2.8383,-2.7931,-2.7514,-2.7393,-2.7352,-2.7282,-2.7077,-2.6512,-2.5909,-2.5173,-2.4116,-2.3233,-2.3099,-2.2986,-2.2814,-2.2904,-2.1948,-2.1181,-0.4086,-0.4999,-0.5946,-0.6247,-0.6137,-0.6017,-0.594,-0.5914,-0.5851,-0.5757,-0.5588,-0.5578,-0.549,-0.5396,-0.5382,-0.5351,-0.5271,-0.5367,-0.5521,-0.5686,-0.579,-0.5989,-0.6239,-0.6289,-0.6337,-0.6487,-0.6977,-0.8212,-0.9927,-1.1799,-1.3022,-1.3703,-1.4442,-1.4933,-1.5083,-1.5118,-1.5207,-1.5255,-1.5003,-1.486,-1.5105,-1.5343,-1.5642,-1.5967,-1.6258,-1.6723,-1.7271,-1.7121,-1.6844,-1.6455,-1.617,-1.5978,-1.5822,-1.5424,-1.532,-1.5596,-1.5501,-1.5516,-1.5581,-1.5472,-1.5458,-1.561,-1.5127,-1.4776,-1.4847,-1.4439,-1.4233,-1.43,-1.4559,-1.5008,-1.5911,-1.6557,-1.6899,-1.6935,-1.6613,-1.6392,-1.6459,-1.7015,-1.7805,-1.878,-2.0068,-2.1775,-2.3362,-2.4277,-2.4911,-2.5484,-2.5774,-2.6072,-2.6159,-2.5988,-2.5937,-2.6153,-2.6553,-2.6817,-2.7184,-2.7663,-2.7896,-2.769,-2.7471,-2.7104,-2.6907,-2.6829,-2.6692,-2.6448,-2.596,-2.5394,-2.4554,-2.3466,-2.2997,-2.2818,-2.2532,-2.231,-2.2147,-2.1827,-2.1168,-0.6332,-0.6195,-0.6315,-0.6208,-0.6009,-0.5984,-0.5934,-0.5923,-0.5912,-0.5806,-0.5594,-0.5578,-0.5537,-0.5408,-0.5382,-0.538,-0.5394,-0.5446,-0.5481,-0.5451,-0.5542,-0.5789,-0.6042,-0.6042,-0.6189,-0.6487,-0.7918,-0.8658,-0.9049,-1.1161,-1.2484,-1.2926,-1.4052,-1.4598,-1.4981,-1.4394,-1.4244,-1.4148,-1.3511,-1.3017,-1.2829,-1.38,-1.4238,-1.4238,-1.486,-1.5859,-1.7138,-1.7196,-1.6883,-1.6448,-1.6375,-1.632,-1.5885,-1.4942,-1.4434,-1.4895,-1.4242,-1.3785,-1.3991,-1.4086,-1.4328,-1.458,-1.4028,-1.3692,-1.3818,-1.3277,-1.2782,-1.2794,-1.3393,-1.4282,-1.5006,-1.5375,-1.6053,-1.7065,-1.6653,-1.6608,-1.7389,-1.7632,-1.8387,-2.0359,-2.1006,-2.1272,-2.235,-2.3526,-2.4278,-2.4405,-2.494,-2.5431,-2.5403,-2.5097,-2.4803,-2.5104,-2.5729,-2.6244,-2.6537,-2.6811,-2.6982,-2.706,-2.6867,-2.6616,-2.6578,-2.6498,-2.6395,-2.6146,-2.5317,-2.4714,-2.3822,-2.2837,-2.2456,-2.2231,-2.1973,-2.1831,-2.1698,-2.1489,-2.1117,-0.6343,-0.6302,-0.612,-0.6043,-0.5982,-0.5926,-0.5941,-0.5919,-0.5919,-0.5754,-0.5609,-0.5586,-0.5489,-0.5412,-0.5382,-0.5382,-0.5365,-0.5306,-0.5305,-0.5413,-0.5368,-0.5539,-0.5942,-0.5992,-0.6139,-0.6484,-0.7282,-0.8124,-0.8909,-1.0043,-1.0877,-1.1707,-1.2344,-1.2786,-1.3022,-1.2931,-1.3028,-1.3216,-1.3613,-1.3559,-1.3167,-1.4232,-1.4669,-1.4274,-1.4758,-1.5337,-1.5758,-1.6039,-1.6284,-1.6337,-1.617,-1.5801,-1.5253,-1.48,-1.458,-1.4535,-1.4271,-1.4081,-1.4089,-1.3805,-1.3694,-1.3757,-1.3284,-1.2912,-1.2856,-1.2606,-1.2409,-1.2318,-1.2682,-1.3424,-1.4805,-1.4832,-1.538,-1.6788,-1.6253,-1.6173,-1.7159,-1.7974,-1.9336,-2.0969,-2.1265,-2.1469,-2.2067,-2.3047,-2.3536,-2.3348,-2.4017,-2.459,-2.4524,-2.4564,-2.465,-2.4991,-2.5439,-2.5811,-2.615,-2.6351,-2.6431,-2.659,-2.6457,-2.6351,-2.6285,-2.6297,-2.6181,-2.5583,-2.4772,-2.3914,-2.3008,-2.2334,-2.1896,-2.1684,-2.153,-2.1458,-2.1458,-2.1218,-2.0877,-0.6278,-0.6208,-0.6037,-0.597,-0.5938,-0.5939,-0.5919,-0.591,-0.588,-0.5782,-0.5598,-0.5548,-0.5514,-0.5404,-0.5382,-0.5382,-0.5365,-0.5224,-0.5194,-0.5299,-0.5127,-0.5292,-0.5691,-0.5942,-0.6139,-0.6437,-0.6839,-0.7434,-0.8219,-0.9065,-0.985,-1.0583,-1.1365,-1.1858,-1.195,-1.1901,-1.1999,-1.2193,-1.2349,-1.2398,-1.2398,-1.3216,-1.3703,-1.3553,-1.395,-1.434,-1.4609,-1.4831,-1.5153,-1.5421,-1.5273,-1.493,-1.4639,-1.4328,-1.4093,-1.406,-1.365,-1.3411,-1.35,-1.317,-1.3134,-1.3112,-1.2898,-1.2584,-1.2379,-1.2312,-1.2312,-1.2312,-1.269,-1.3406,-1.4557,-1.4724,-1.5028,-1.5968,-1.5818,-1.5952,-1.6895,-1.8197,-1.9593,-2.073,-2.0879,-2.114,-2.1822,-2.25,-2.296,-2.2787,-2.3454,-2.4125,-2.4141,-2.4245,-2.4549,-2.4863,-2.5188,-2.5508,-2.5839,-2.5948,-2.5948,-2.6084,-2.615,-2.6096,-2.6069,-2.6217,-2.6197,-2.504,-2.4124,-2.3228,-2.2327,-2.1629,-2.1129,-2.108,-2.1055,-2.0945,-2.0909,-2.0934,-2.0718,-0.614,-0.5996,-0.5984,-0.5994,-0.5929,-0.5919,-0.5919,-0.5904,-0.5825,-0.5735,-0.5641,-0.5557,-0.5467,-0.5398,-0.5382,-0.5382,-0.5363,-0.5225,-0.5181,-0.5081,-0.4939,-0.5054,-0.5391,-0.5792,-0.6139,-0.6439,-0.6689,-0.6989,-0.7434,-0.8428,-0.9262,-0.9608,-1.0783,-1.1712,-1.1414,-1.1268,-1.1028,-1.0979,-1.0404,-1.0306,-1.0627,-1.1243,-1.1658,-1.2134,-1.2662,-1.3188,-1.367,-1.3614,-1.374,-1.4116,-1.3994,-1.3962,-1.405,-1.347,-1.3257,-1.3559,-1.2581,-1.2353,-1.2359,-1.2471,-1.2516,-1.2698,-1.2687,-1.2572,-1.2265,-1.224,-1.2199,-1.2281,-1.2911,-1.3615,-1.4128,-1.4401,-1.4741,-1.5016,-1.5458,-1.6126,-1.6999,-1.8305,-1.9519,-2.0262,-2.0146,-2.0164,-2.1594,-2.2238,-2.2487,-2.2768,-2.3424,-2.3878,-2.4112,-2.4216,-2.4405,-2.4721,-2.5047,-2.5411,-2.5784,-2.5893,-2.5893,-2.5866,-2.5907,-2.5811,-2.5751,-2.5854,-2.5706,-2.4569,-2.3314,-2.2428,-2.1713,-2.1023,-2.066,-2.066,-2.0573,-2.0385,-2.0448,-2.0599,-2.066,-0.6033,-0.5984,-0.592,-0.5939,-0.5919,-0.5919,-0.5919,-0.5906,-0.5821,-0.5729,-0.5637,-0.5547,-0.5461,-0.5388,-0.5382,-0.5382,-0.5361,-0.529,-0.514,-0.51,-0.4992,-0.515,-0.55,-0.5842,-0.6139,-0.6387,-0.6642,-0.6942,-0.7235,-0.7789,-0.8237,-0.8428,-0.9167,-0.9558,-0.9558,-0.9764,-0.9817,-1.0109,-1.0645,-1.0476,-1.0439,-1.156,-1.2088,-1.1743,-1.2225,-1.2606,-1.2747,-1.2424,-1.281,-1.3825,-1.3466,-1.3215,-1.333,-1.3007,-1.2873,-1.2897,-1.274,-1.2499,-1.2524,-1.2409,-1.2367,-1.2361,-1.2415,-1.23,-1.2012,-1.2029,-1.1982,-1.2073,-1.2382,-1.2923,-1.3634,-1.3811,-1.388,-1.4196,-1.5311,-1.6308,-1.6822,-1.7854,-1.9022,-1.9871,-1.9803,-2.024,-2.1099,-2.1832,-2.2237,-2.2604,-2.3143,-2.376,-2.3995,-2.4112,-2.4303,-2.4721,-2.509,-2.5397,-2.5674,-2.5839,-2.5866,-2.5784,-2.5701,-2.5494,-2.5337,-2.5196,-2.4826,-2.4112,-2.2442,-2.1354,-2.0926,-2.0384,-2.0308,-2.0321,-2.0296,-2.0258,-2.0448,-2.0599,-2.0608,-0.5968,-0.593,-0.5939,-0.5919,-0.5919,-0.5919,-0.5919,-0.59,-0.5821,-0.5729,-0.558,-0.5547,-0.5461,-0.5386,-0.5382,-0.5382,-0.5373,-0.5326,-0.5233,-0.5098,-0.4969,-0.5187,-0.5543,-0.5789,-0.6039,-0.6387,-0.6539,-0.6839,-0.7185,-0.7388,-0.764,-0.8038,-0.8237,-0.8531,-0.8924,-0.9084,-0.9331,-0.9673,-1.0252,-1.0409,-1.0494,-1.1341,-1.1917,-1.1904,-1.2267,-1.2382,-1.2231,-1.1898,-1.2104,-1.2604,-1.258,-1.2497,-1.2589,-1.2577,-1.2619,-1.2662,-1.2699,-1.2662,-1.2536,-1.2391,-1.2264,-1.2174,-1.2149,-1.2011,-1.1784,-1.1718,-1.1718,-1.1739,-1.2254,-1.2846,-1.3156,-1.3258,-1.3486,-1.4074,-1.5102,-1.5947,-1.6088,-1.732,-1.8478,-1.9225,-1.9518,-1.9815,-2.101,-2.1588,-2.2051,-2.2543,-2.3065,-2.3599,-2.3966,-2.4054,-2.416,-2.4498,-2.4712,-2.4896,-2.4982,-2.5108,-2.5067,-2.5066,-2.4792,-2.4722,-2.4436,-2.4192,-2.3739,-2.2957,-2.15,-2.051,-2.0245,-2.0105,-2.0118,-2.0118,-2.0131,-2.0258,-2.0434,-2.0235,-2.0296,-0.593,-0.5919,-0.5919,-0.5919,-0.5919,-0.5919,-0.5919,-0.59,-0.5818,-0.5729,-0.5639,-0.5547,-0.5461,-0.5384,-0.5382,-0.5382,-0.5382,-0.5371,-0.5259,-0.5102,-0.4943,-0.509,-0.5491,-0.5636,-0.5887,-0.6287,-0.6387,-0.6686,-0.7036,-0.7185,-0.7487,-0.7892,-0.8237,-0.8528,-0.8779,-0.9084,-0.9331,-0.9579,-0.9723,-1.0135,-1.0548,-1.0929,-1.1395,-1.2072,-1.2206,-1.214,-1.1962,-1.1747,-1.1608,-1.1321,-1.157,-1.1914,-1.2043,-1.2289,-1.2491,-1.2662,-1.2693,-1.2602,-1.2361,-1.2288,-1.2103,-1.1944,-1.1878,-1.1763,-1.1525,-1.1489,-1.1519,-1.1601,-1.2609,-1.2893,-1.2993,-1.3054,-1.3477,-1.409,-1.4637,-1.5045,-1.562,-1.6784,-1.8043,-1.8825,-1.8954,-1.9671,-2.072,-2.1526,-2.1908,-2.2267,-2.2811,-2.3275,-2.3747,-2.3995,-2.4024,-2.4083,-2.4197,-2.4266,-2.4313,-2.4331,-2.4194,-2.4086,-2.3642,-2.3387,-2.3026,-2.2724,-2.2418,-2.1706,-2.0887,-2.0335,-1.9978,-1.9901,-1.9927,-1.9965,-1.9978,-2.0192,-2.0391,-1.9882,-1.9708,-0.5935,-0.5919,-0.5919,-0.5919,-0.5919,-0.5919,-0.5919,-0.591,-0.5821,-0.5729,-0.5639,-0.5549,-0.5461,-0.5382,-0.5326,-0.5382,-0.5377,-0.5365,-0.5284,-0.51,-0.4867,-0.4993,-0.5288,-0.5486,-0.5787,-0.6087,-0.6287,-0.6589,-0.6892,-0.7138,-0.7388,-0.7693,-0.8137,-0.8528,-0.8775,-0.9031,-0.9331,-0.9529,-0.9624,-0.9951,-1.0485,-1.0749,-1.1148,-1.181,-1.1887,-1.1752,-1.1509,-1.1407,-1.1359,-1.1408,-1.1699,-1.1957,-1.2037,-1.2369,-1.2625,-1.2662,-1.2693,-1.259,-1.2337,-1.2119,-1.1896,-1.1621,-1.1561,-1.1465,-1.1218,-1.1215,-1.1395,-1.1614,-1.2063,-1.2574,-1.2982,-1.314,-1.3455,-1.3905,-1.4517,-1.5114,-1.5723,-1.6545,-1.7511,-1.8279,-1.8643,-1.9144,-2.0506,-2.0764,-2.125,-2.1908,-2.2463,-2.2962,-2.3352,-2.375,-2.3713,-2.3563,-2.3293,-2.3267,-2.3398,-2.3306,-2.3061,-2.2857,-2.2448,-2.219,-2.1798,-2.157,-2.1367,-2.1069,-2.0643,-2.0181,-1.9837,-1.9723,-1.9736,-1.9788,-1.9837,-1.9846,-1.9786,-1.9378,-1.9107,-0.5919,-0.5919,-0.5919,-0.5919,-0.5919,-0.5919,-0.5919,-0.59,-0.5821,-0.5729,-0.5522,-0.5259,-0.5064,-0.499,-0.4987,-0.4987,-0.502,-0.5174,-0.5204,-0.5075,-0.4924,-0.4889,-0.5085,-0.5386,-0.5737,-0.5992,-0.6289,-0.6539,-0.6792,-0.7092,-0.7338,-0.7593,-0.8041,-0.8432,-0.8726,-0.8931,-0.9229,-0.9529,-0.9624,-0.9924,-1.056,-1.066,-1.1025,-1.155,-1.1698,-1.1628,-1.1542,-1.1364,-1.1321,-1.1397,-1.1742,-1.2,-1.2,-1.2246,-1.2454,-1.2662,-1.2699,-1.2499,-1.2204,-1.1986,-1.1751,-1.1333,-1.1335,-1.1181,-1.1016,-1.1003,-1.1187,-1.1534,-1.1861,-1.2305,-1.3046,-1.2973,-1.3193,-1.376,-1.4302,-1.4903,-1.5578,-1.6289,-1.7097,-1.7901,-1.8273,-1.8877,-1.9573,-2.0063,-2.0784,-2.1534,-2.1753,-2.2237,-2.265,-2.3009,-2.2976,-2.2782,-2.2331,-2.2201,-2.2388,-2.227,-2.1865,-2.1571,-2.1148,-2.0979,-2.0767,-2.0603,-2.0486,-2.0295,-2.022,-2.0079,-1.9786,-1.9685,-1.961,-1.9725,-1.9723,-1.9501,-1.9223,-1.8936,-1.8692,-0.5919,-0.5919,-0.5919,-0.5919,-0.5919,-0.5919,-0.5919,-0.5906,-0.5837,-0.5749,-0.5526,-0.4924,-0.4686,-0.4496,-0.4424,-0.4369,-0.4441,-0.4608,-0.4689,-0.4824,-0.4663,-0.4696,-0.4885,-0.5286,-0.5636,-0.5942,-0.6239,-0.6539,-0.6742,-0.7042,-0.7288,-0.7543,-0.7889,-0.8233,-0.863,-0.8825,-0.9027,-0.943,-0.9575,-0.9975,-1.0587,-1.0641,-1.0928,-1.1444,-1.1612,-1.1607,-1.1542,-1.1396,-1.1311,-1.1305,-1.1693,-1.1909,-1.2,-1.2123,-1.2246,-1.2705,-1.2705,-1.2457,-1.2089,-1.1862,-1.1663,-1.1178,-1.1086,-1.1011,-1.0862,-1.0798,-1.1023,-1.154,-1.2003,-1.2526,-1.3046,-1.2863,-1.3039,-1.3579,-1.4049,-1.4653,-1.5365,-1.6079,-1.6811,-1.7398,-1.774,-1.824,-1.8967,-1.9595,-2.0376,-2.1028,-2.123,-2.1506,-2.1982,-2.2198,-2.2164,-2.1799,-2.1299,-2.0866,-2.0984,-2.0999,-2.064,-2.049,-2.0039,-2.0001,-1.9939,-2.0078,-2.009,-1.9976,-1.9875,-1.9798,-1.9673,-1.9459,-1.9472,-1.9649,-1.9303,-1.8783,-1.8551,-1.8481,-1.8252,-0.5919,-0.5919,-0.5919,-0.5919,-0.5919,-0.5919,-0.5919,-0.5914,-0.5892,-0.5796,-0.5477,-0.4982,-0.4599,-0.4341,-0.3921,-0.3755,-0.3835,-0.39,-0.4045,-0.4339,-0.4314,-0.4334,-0.4834,-0.5135,-0.5436,-0.5737,-0.6137,-0.6387,-0.6589,-0.6939,-0.7235,-0.7388,-0.7789,-0.8187,-0.8482,-0.8676,-0.8973,-0.9331,-0.9525,-1.0023,-1.0557,-1.0743,-1.0829,-1.1363,-1.1407,-1.1402,-1.1386,-1.1343,-1.1311,-1.1311,-1.1613,-1.1828,-1.1995,-1.2289,-1.254,-1.2656,-1.2668,-1.2427,-1.1976,-1.1856,-1.1636,-1.123,-1.0962,-1.085,-1.0738,-1.0594,-1.0962,-1.1744,-1.2452,-1.2973,-1.2936,-1.2709,-1.2813,-1.328,-1.3825,-1.4446,-1.5125,-1.5736,-1.6298,-1.6899,-1.7176,-1.7476,-1.8162,-1.89,-1.9562,-2.0247,-2.0709,-2.1049,-2.1471,-2.15,-2.1367,-2.0844,-2.0207,-1.9791,-1.9514,-1.95,-1.9407,-1.9492,-1.9282,-1.9336,-1.9405,-1.9715,-1.9734,-1.9488,-1.9593,-1.9761,-1.9572,-1.9259,-1.9145,-1.9194,-1.8618,-1.7952,-1.8,-1.8011,-1.7705,-0.5919,-0.5919,-0.5919,-0.5919,-0.5919,-0.5919,-0.5919,-0.591,-0.5865,-0.5592,-0.5075,-0.4548,-0.396,-0.3605,-0.3309,-0.3307,-0.3499,-0.3462,-0.3731,-0.4069,-0.4111,-0.4284,-0.4784,-0.5087,-0.5338,-0.5636,-0.5987,-0.6287,-0.6437,-0.6936,-0.7185,-0.7338,-0.7739,-0.8184,-0.8528,-0.8726,-0.9027,-0.9327,-0.9567,-0.9975,-1.0772,-1.0918,-1.1237,-1.1233,-1.1311,-1.1311,-1.1311,-1.1311,-1.1311,-1.1354,-1.1564,-1.1748,-1.1914,-1.2166,-1.2454,-1.2601,-1.2548,-1.2307,-1.1928,-1.1772,-1.1477,-1.1008,-1.0812,-1.0663,-1.0625,-1.0663,-1.1074,-1.1966,-1.2599,-1.2973,-1.2753,-1.2496,-1.2409,-1.2586,-1.3135,-1.376,-1.4374,-1.4982,-1.563,-1.6272,-1.6656,-1.6985,-1.7285,-1.7993,-1.87,-1.9408,-2.0085,-2.0484,-2.0815,-2.0562,-2.0281,-2.0091,-1.9486,-1.912,-1.8758,-1.861,-1.8536,-1.8536,-1.8575,-1.8655,-1.8682,-1.891,-1.891,-1.8738,-1.9032,-1.949,-1.9371,-1.9033,-1.8907,-1.8668,-1.812,-1.7702,-1.7641,-1.7527,-1.7341,-0.5669,-0.5919,-0.5919,-0.5919,-0.5919,-0.5919,-0.5794,-0.5716,-0.5659,-0.5214,-0.4529,-0.3893,-0.3262,-0.2817,-0.2637,-0.2803,-0.3239,-0.3029,-0.3358,-0.3858,-0.3851,-0.4133,-0.4734,-0.4987,-0.5238,-0.5489,-0.5789,-0.6089,-0.6437,-0.6936,-0.7185,-0.7338,-0.7736,-0.8184,-0.8528,-0.8676,-0.9076,-0.9327,-0.962,-1.0015,-1.0698,-1.1248,-1.1497,-1.1332,-1.1311,-1.1311,-1.1311,-1.1311,-1.1311,-1.1354,-1.1527,-1.1699,-1.1742,-1.1914,-1.216,-1.2419,-1.2331,-1.2087,-1.1796,-1.1577,-1.1262,-1.0784,-1.0706,-1.0481,-1.0481,-1.0812,-1.1409,-1.2157,-1.2606,-1.2746,-1.2562,-1.2231,-1.2003,-1.2003,-1.2372,-1.2849,-1.3499,-1.4178,-1.4939,-1.5551,-1.6079,-1.6542,-1.6915,-1.7182,-1.7891,-1.8488,-1.9162,-1.919,-1.9432,-1.919,-1.901,-1.9134,-1.8891,-1.8568,-1.8281,-1.8034,-1.7945,-1.7918,-1.7957,-1.8011,-1.7995,-1.7995,-1.805,-1.8228,-1.8632,-1.8998,-1.8891,-1.8684,-1.8324,-1.7958,-1.7618,-1.74,-1.7295,-1.7481,-1.754,-0.4803,-0.5857,-0.5857,-0.5919,-0.5855,-0.5855,-0.5546,-0.5109,-0.5093,-0.4592,-0.3886,-0.3341,-0.288,-0.2596,-0.2132,-0.2019,-0.2054,-0.2168,-0.2608,-0.3387,-0.3441,-0.3932,-0.4684,-0.4784,-0.5037,-0.5288,-0.5536,-0.5937,-0.6387,-0.6889,-0.7188,-0.7288,-0.7686,-0.8088,-0.8283,-0.8627,-0.8829,-0.8977,-0.9373,-0.9942,-1.051,-1.093,-1.1149,-1.1288,-1.1311,-1.1311,-1.1311,-1.1311,-1.1311,-1.1305,-1.1527,-1.1656,-1.1742,-1.1871,-1.2,-1.208,-1.2006,-1.1876,-1.1491,-1.1311,-1.1064,-1.0598,-1.04,-1.0293,-1.0519,-1.0893,-1.1484,-1.1972,-1.2378,-1.2526,-1.2342,-1.2114,-1.1848,-1.1818,-1.2046,-1.2335,-1.2769,-1.3745,-1.4466,-1.5046,-1.5657,-1.6158,-1.6542,-1.6777,-1.7026,-1.7654,-1.8111,-1.8158,-1.8218,-1.8134,-1.7798,-1.7915,-1.8085,-1.7823,-1.7707,-1.7473,-1.7341,-1.7313,-1.723,-1.7268,-1.7279,-1.7279,-1.7749,-1.7995,-1.8282,-1.8309,-1.8112,-1.7842,-1.756,-1.7433,-1.734,-1.7129,-1.6904,-1.7202,-1.7549,-0.2462,-0.3756,-0.4493,-0.474,-0.4865,-0.5546,-0.5485,-0.4979,-0.4882,-0.4266,-0.3358,-0.2971,-0.2636,-0.2195,-0.1907,-0.1795,-0.1782,-0.1732,-0.2289,-0.3064,-0.3293,-0.3783,-0.4583,-0.4834,-0.4935,-0.5138,-0.5338,-0.5689,-0.6189,-0.6689,-0.7039,-0.7291,-0.759,-0.7942,-0.8134,-0.8581,-0.8829,-0.9152,-0.9567,-1.0062,-1.0454,-1.0774,-1.1056,-1.1283,-1.1311,-1.1311,-1.1311,-1.1311,-1.1311,-1.1305,-1.144,-1.1483,-1.1478,-1.1564,-1.1613,-1.1596,-1.1459,-1.1394,-1.1278,-1.1038,-1.0699,-1.0426,-1.0293,-1.04,-1.0775,-1.0999,-1.1484,-1.2268,-1.2378,-1.2342,-1.2114,-1.1855,-1.1632,-1.1601,-1.1713,-1.1972,-1.2372,-1.3273,-1.4106,-1.4689,-1.5232,-1.563,-1.5965,-1.6062,-1.6365,-1.703,-1.7373,-1.7434,-1.7571,-1.7686,-1.7231,-1.6746,-1.6953,-1.7054,-1.6994,-1.6866,-1.6754,-1.6613,-1.6226,-1.6322,-1.6457,-1.6655,-1.7067,-1.7151,-1.7123,-1.714,-1.7185,-1.7444,-1.7562,-1.7372,-1.7147,-1.7085,-1.7015,-1.6872,-1.7264,0.0123,-0.1046,-0.2646,-0.3383,-0.3629,-0.4679,-0.4805,-0.4427,-0.4369,-0.3704,-0.2877,-0.2538,-0.2269,-0.1912,-0.1795,-0.1794,-0.179,-0.1732,-0.2243,-0.2841,-0.3196,-0.3587,-0.4232,-0.4583,-0.4734,-0.5087,-0.5188,-0.5489,-0.5889,-0.6339,-0.6739,-0.7188,-0.749,-0.7842,-0.8237,-0.8531,-0.8829,-0.9171,-0.9607,-1.0039,-1.0431,-1.0639,-1.0923,-1.1163,-1.1311,-1.1311,-1.1311,-1.1311,-1.1311,-1.1311,-1.1305,-1.1354,-1.1354,-1.1354,-1.1354,-1.1327,-1.1143,-1.1002,-1.0951,-1.0729,-1.0372,-1.0165,-0.9992,-1.0099,-1.0545,-1.07,-1.0999,-1.1892,-1.2187,-1.2077,-1.1855,-1.1558,-1.1446,-1.1298,-1.126,-1.1558,-1.1966,-1.2806,-1.331,-1.3608,-1.4186,-1.4991,-1.5242,-1.5317,-1.5704,-1.6394,-1.6654,-1.6649,-1.6701,-1.6789,-1.6447,-1.5806,-1.5892,-1.6122,-1.6208,-1.6179,-1.6083,-1.6054,-1.5661,-1.5623,-1.5923,-1.6066,-1.6314,-1.6278,-1.6249,-1.6449,-1.6758,-1.7203,-1.7569,-1.7147,-1.6871,-1.721,-1.7227,-1.702,-1.7267,0.259,0.1973,-0.0554,-0.1969,-0.2524,-0.2709,-0.2896,-0.3134,-0.3091,-0.2683,-0.2105,-0.1942,-0.1913,-0.1795,-0.1794,-0.1794,-0.179,-0.1731,-0.2134,-0.2418,-0.2575,-0.3185,-0.383,-0.4234,-0.4383,-0.4834,-0.5037,-0.5288,-0.5639,-0.5939,-0.6489,-0.7138,-0.7391,-0.769,-0.8038,-0.8336,-0.8733,-0.9106,-0.9425,-0.9871,-1.0236,-1.0445,-1.0642,-1.1119,-1.1278,-1.1311,-1.1311,-1.1311,-1.1311,-1.1311,-1.1311,-1.1311,-1.1311,-1.1219,-1.1176,-1.1043,-1.0674,-1.0534,-1.0439,-1.0326,-1.0187,-0.9916,-0.962,-0.9501,-1.0019,-1.0319,-1.0657,-1.1186,-1.1744,-1.1781,-1.1595,-1.1409,-1.1298,-1.1186,-1.1074,-1.1186,-1.1601,-1.2114,-1.2592,-1.2629,-1.3237,-1.4163,-1.4368,-1.4414,-1.5073,-1.5754,-1.5537,-1.5551,-1.5315,-1.5333,-1.5218,-1.4951,-1.4951,-1.5128,-1.5352,-1.5439,-1.5642,-1.5748,-1.5555,-1.5565,-1.573,-1.5788,-1.5933,-1.6048,-1.6163,-1.6249,-1.6363,-1.6754,-1.6897,-1.663,-1.6582,-1.6893,-1.7262,-1.7286,-1.7809,0.3022,0.3022,0.1972,0.08,-0.0431,-0.123,-0.1776,-0.2003,-0.1972,-0.1931,-0.183,-0.1806,-0.1795,-0.1795,-0.1793,-0.1784,-0.1763,-0.1725,-0.2016,-0.2295,-0.2557,-0.3082,-0.3681,-0.4034,-0.4284,-0.4734,-0.4935,-0.5087,-0.534,-0.5639,-0.6087,-0.6637,-0.7141,-0.749,-0.7789,-0.8237,-0.8684,-0.9072,-0.931,-0.9627,-1.0112,-1.0376,-1.0624,-1.0967,-1.1261,-1.1278,-1.1311,-1.1311,-1.1311,-1.1311,-1.1311,-1.1311,-1.1224,-1.1084,-1.093,-1.0762,-1.0264,-0.9908,-0.9776,-0.9678,-0.9561,-0.9171,-0.8861,-0.8937,-0.9604,-1.0019,-1.0619,-1.1143,-1.1521,-1.1521,-1.1446,-1.1298,-1.1149,-1.0999,-1.0962,-1.0962,-1.1211,-1.1687,-1.1959,-1.21,-1.2793,-1.3627,-1.362,-1.3497,-1.4303,-1.5044,-1.4709,-1.4396,-1.4205,-1.4148,-1.416,-1.4339,-1.4419,-1.4656,-1.4911,-1.5108,-1.5313,-1.5391,-1.5478,-1.5546,-1.5643,-1.5788,-1.5933,-1.6019,-1.6124,-1.6278,-1.6345,-1.6374,-1.6446,-1.6564,-1.6504,-1.6486,-1.6917,-1.7384,-1.7898,0.3331,0.3517,0.3579,0.2773,0.1354,0.0123,-0.0671,-0.1083,-0.1482,-0.1619,-0.1795,-0.1795,-0.1795,-0.1793,-0.1782,-0.1828,-0.1799,-0.1764,-0.1946,-0.207,-0.2246,-0.2829,-0.3429,-0.3882,-0.4083,-0.4583,-0.4834,-0.4985,-0.524,-0.5489,-0.5887,-0.6337,-0.6839,-0.7241,-0.7693,-0.8187,-0.873,-0.8985,-0.932,-0.9539,-1.0079,-1.0206,-1.037,-1.0657,-1.0894,-1.1008,-1.1089,-1.1176,-1.1311,-1.1311,-1.1311,-1.1311,-1.1176,-1.0966,-1.0691,-1.028,-0.9858,-0.9399,-0.9192,-0.9039,-0.8946,-0.8594,-0.8289,-0.8742,-0.9382,-0.9679,-1.0126,-1.1068,-1.1292,-1.1366,-1.1335,-1.1149,-1.0999,-1.0887,-1.0775,-1.0769,-1.0797,-1.115,-1.1366,-1.157,-1.2108,-1.2309,-1.2783,-1.2666,-1.2972,-1.3576,-1.3357,-1.3211,-1.3264,-1.3299,-1.3511,-1.3752,-1.4031,-1.433,-1.4656,-1.4893,-1.5167,-1.5391,-1.5449,-1.5478,-1.5604,-1.5759,-1.5933,-1.6038,-1.6163,-1.6316,-1.6374,-1.6402,-1.6581,-1.6814,-1.6652,-1.6404,-1.6676,-1.7137,-1.7319,0.3703,0.3517,0.3762,0.3267,0.2278,0.1355,0.0427,-0.0599,-0.1476,-0.1847,-0.1797,-0.1795,-0.1795,-0.1789,-0.1825,-0.1807,-0.1788,-0.1745,-0.1766,-0.1804,-0.1833,-0.2325,-0.2877,-0.338,-0.3831,-0.4583,-0.4834,-0.4935,-0.5138,-0.5486,-0.5787,-0.6089,-0.6642,-0.7141,-0.7646,-0.8382,-0.8775,-0.8878,-0.9327,-0.962,-0.9892,-0.9934,-1.0062,-1.0178,-1.0499,-1.0603,-1.0689,-1.0911,-1.1003,-1.1046,-1.1046,-1.1046,-1.1046,-1.0959,-1.0663,-1.0213,-0.9925,-0.9551,-0.9104,-0.8817,-0.846,-0.8102,-0.7834,-0.8208,-0.8589,-0.9003,-0.975,-1.0807,-1.1074,-1.1223,-1.1149,-1.0962,-1.0856,-1.0743,-1.0625,-1.0576,-1.0611,-1.0605,-1.0844,-1.0973,-1.0653,-1.058,-1.1337,-1.1826,-1.1848,-1.1984,-1.1911,-1.2011,-1.2343,-1.2673,-1.2978,-1.3169,-1.3502,-1.3713,-1.4082,-1.4656,-1.4981,-1.5245,-1.542,-1.5449,-1.5546,-1.5672,-1.5846,-1.6009,-1.6153,-1.6239,-1.6306,-1.6402,-1.6524,-1.6637,-1.6552,-1.6438,-1.6666,-1.6807,-1.6965,0.3826,0.3699,0.3173,0.2794,0.249,0.2186,0.1077,-0.0409,-0.1321,-0.1814,-0.1798,-0.1795,-0.1795,-0.1785,-0.1817,-0.1792,-0.1766,-0.1738,-0.171,-0.1632,-0.1621,-0.2022,-0.2574,-0.3078,-0.3581,-0.4183,-0.4533,-0.4784,-0.4935,-0.5334,-0.5586,-0.5887,-0.6589,-0.7191,-0.7593,-0.8088,-0.8382,-0.873,-0.9011,-0.9241,-0.9596,-0.9742,-0.9732,-0.9764,-1.0011,-1.0168,-1.0207,-1.0477,-1.0564,-1.0564,-1.0559,-1.0516,-1.0472,-1.0342,-0.9833,-0.9336,-0.8959,-0.8434,-0.7985,-0.7697,-0.7646,-0.7526,-0.7488,-0.7863,-0.8813,-0.896,-0.9755,-1.0588,-1.0999,-1.1111,-1.0925,-1.085,-1.0738,-1.0481,-1.0368,-1.04,-1.0387,-1.0321,-1.0381,-1.0406,-1.0219,-1.0207,-1.0695,-1.0847,-1.0869,-1.1152,-1.1196,-1.1606,-1.1927,-1.2328,-1.2634,-1.2726,-1.2948,-1.31,-1.3433,-1.4133,-1.4686,-1.4981,-1.5245,-1.542,-1.5517,-1.5643,-1.5759,-1.5961,-1.6066,-1.6142,-1.6278,-1.6345,-1.6374,-1.6402,-1.6402,-1.6402,-1.6506,-1.6563,-1.6563,0.3888,0.382,0.3216,0.2583,0.2033,0.1674,0.0589,-0.0862,-0.1526,-0.1795,-0.1795,-0.1795,-0.1787,-0.1828,-0.1802,-0.1771,-0.1688,-0.1659,-0.1694,-0.1618,-0.1566,-0.1969,-0.2423,-0.2775,-0.3328,-0.3882,-0.4284,-0.4585,-0.4834,-0.5236,-0.5536,-0.5939,-0.6587,-0.7089,-0.749,-0.7889,-0.8382,-0.8711,-0.892,-0.9121,-0.9351,-0.9418,-0.935,-0.9386,-0.9509,-0.9733,-0.982,-0.9907,-0.9994,-0.9994,-0.9994,-0.9994,-0.9859,-0.9636,-0.917,-0.8715,-0.8033,-0.7593,-0.7258,-0.715,-0.7138,-0.7026,-0.6992,-0.7748,-0.877,-0.896,-0.9793,-1.055,-1.0962,-1.0887,-1.0738,-1.07,-1.0519,-1.0261,-1.018,-1.018,-1.0168,-1.0075,-1.0022,-1.0027,-1.0071,-1.0108,-1.0109,-0.9877,-0.9865,-1.0245,-1.0591,-1.1024,-1.143,-1.1679,-1.1958,-1.205,-1.2266,-1.2489,-1.2978,-1.3765,-1.4252,-1.4686,-1.4951,-1.5177,-1.5546,-1.5672,-1.5798,-1.5856,-1.5961,-1.6077,-1.622,-1.6316,-1.6374,-1.6402,-1.6402,-1.6402,-1.6402,-1.6402,-1.6402,0.3883,0.3936,0.382,0.2741,0.1118,0.0117,-0.0873,-0.1778,-0.1751,-0.1795,-0.1795,-0.1792,-0.1778,-0.1803,-0.1718,-0.169,-0.1717,-0.1635,-0.1623,-0.1618,-0.1566,-0.1918,-0.217,-0.2472,-0.3077,-0.363,-0.4085,-0.4435,-0.4784,-0.5186,-0.5591,-0.5992,-0.6542,-0.6992,-0.7391,-0.7809,-0.8294,-0.8596,-0.8833,-0.8968,-0.9107,-0.9003,-0.8943,-0.8959,-0.9128,-0.9231,-0.9393,-0.9563,-0.9738,-0.9825,-0.982,-0.9859,-0.9808,-0.9729,-0.9224,-0.8514,-0.7601,-0.7228,-0.6948,-0.6872,-0.6791,-0.6679,-0.6563,-0.7514,-0.8428,-0.896,-0.9717,-1.0363,-1.0775,-1.0663,-1.0513,-1.0406,-1.0255,-1.0105,-0.9992,-0.9976,-0.9911,-0.9867,-0.9802,-0.9818,-0.9852,-0.9881,-0.9957,-0.9745,-0.95,-0.9792,-1.0148,-1.0181,-1.051,-1.051,-1.0787,-1.1045,-1.1351,-1.1849,-1.2428,-1.3031,-1.3485,-1.3795,-1.449,-1.4815,-1.5245,-1.5556,-1.5585,-1.5643,-1.5827,-1.6,-1.623,-1.6345,-1.6374,-1.6402,-1.6402,-1.6402,-1.6402,-1.6402,-1.6402,0.3822,0.3755,0.3051,0.209,0.0866,-0.0686,-0.1589,-0.175,-0.1798,-0.1795,-0.1793,-0.1827,-0.1812,-0.18,-0.1751,-0.1726,-0.1654,-0.1635,-0.1622,-0.1566,-0.1566,-0.1717,-0.1918,-0.222,-0.2825,-0.333,-0.3783,-0.4183,-0.4784,-0.5188,-0.5589,-0.6042,-0.6492,-0.6842,-0.7201,-0.754,-0.7906,-0.8288,-0.8523,-0.8689,-0.8827,-0.8736,-0.8661,-0.8698,-0.8745,-0.8872,-0.8959,-0.9003,-0.9135,-0.9047,-0.8819,-0.8727,-0.8711,-0.8535,-0.8163,-0.781,-0.7307,-0.7004,-0.6751,-0.6676,-0.6563,-0.637,-0.6254,-0.7049,-0.8114,-0.8912,-0.949,-0.99,-1.0201,-1.0051,-0.99,-0.9793,-0.9685,-0.9571,-0.9496,-0.9485,-0.9417,-0.935,-0.9325,-0.9359,-0.9401,-0.9534,-0.9633,-0.9679,-0.9499,-0.9667,-0.9732,-0.9763,-0.9798,-0.9894,-1.0047,-1.0364,-1.0649,-1.1202,-1.1476,-1.1996,-1.2451,-1.294,-1.3696,-1.4332,-1.4617,-1.4893,-1.5167,-1.5498,-1.5788,-1.6058,-1.6316,-1.6374,-1.6402,-1.6402,-1.6402,-1.6402,-1.6402,-1.6402,-1.6402,0.3827,0.3702,0.3124,0.2118,0.0738,-0.1014,-0.1795,-0.1795,-0.1795,-0.179,-0.1776,-0.1814,-0.1791,-0.1763,-0.1731,-0.1707,-0.1641,-0.1627,-0.1566,-0.1566,-0.1566,-0.1617,-0.1768,-0.1969,-0.2372,-0.2876,-0.3278,-0.3629,-0.4483,-0.5138,-0.5591,-0.5839,-0.6292,-0.6658,-0.697,-0.7223,-0.7414,-0.775,-0.8027,-0.8219,-0.8387,-0.8489,-0.8468,-0.8504,-0.8524,-0.8568,-0.8568,-0.8568,-0.8568,-0.8476,-0.8248,-0.8157,-0.8113,-0.7885,-0.755,-0.7247,-0.7022,-0.6683,-0.6383,-0.6293,-0.6215,-0.6138,-0.6173,-0.6784,-0.7314,-0.7965,-0.8571,-0.9059,-0.921,-0.9291,-0.9178,-0.9102,-0.8993,-0.8922,-0.8884,-0.8884,-0.8831,-0.8773,-0.8762,-0.8798,-0.8905,-0.9057,-0.9192,-0.9354,-0.9471,-0.9612,-0.9631,-0.9623,-0.9708,-0.9798,-0.9926,-1.0149,-1.0339,-1.0649,-1.0926,-1.1327,-1.1934,-1.2543,-1.3152,-1.3704,-1.3983,-1.4469,-1.4981,-1.543,-1.5846,-1.6048,-1.6249,-1.6345,-1.6402,-1.6402,-1.6402,-1.6402,-1.6402,-1.6402,-1.6402,0.3811,0.3745,0.3578,0.2274,0.0674,-0.1065,-0.1793,-0.1791,-0.1733,-0.1776,-0.1808,-0.1797,-0.171,-0.1678,-0.1605,-0.164,-0.1629,-0.1568,-0.1566,-0.1566,-0.1566,-0.1566,-0.1566,-0.1667,-0.207,-0.2322,-0.2674,-0.3226,-0.4033,-0.4788,-0.5388,-0.5586,-0.5889,-0.631,-0.6799,-0.6947,-0.7169,-0.7329,-0.7561,-0.7759,-0.8008,-0.8124,-0.8204,-0.8248,-0.834,-0.8476,-0.8524,-0.8476,-0.8432,-0.8248,-0.8116,-0.8028,-0.7764,-0.7621,-0.7236,-0.6958,-0.6778,-0.6458,-0.6152,-0.5996,-0.5847,-0.5993,-0.6325,-0.644,-0.6707,-0.7391,-0.8071,-0.8262,-0.8414,-0.8414,-0.83,-0.8262,-0.819,-0.8152,-0.8152,-0.8152,-0.8129,-0.8174,-0.8274,-0.8388,-0.8678,-0.8888,-0.9388,-0.9574,-0.9588,-0.9635,-0.9545,-0.9482,-0.9558,-0.9681,-0.9815,-0.997,-1.0155,-1.0378,-1.0839,-1.1264,-1.1717,-1.2266,-1.2665,-1.3152,-1.3494,-1.4133,-1.4824,-1.5216,-1.5575,-1.5894,-1.6095,-1.621,-1.6306,-1.6402,-1.6402,-1.6402,-1.6402,-1.6374,-1.6402,0.3631,0.3518,0.2146,0.09,-0.0168,-0.129,-0.167,-0.1431,-0.143,-0.1535,-0.1688,-0.1544,-0.152,-0.1609,-0.1433,-0.1421,-0.1569,-0.1465,-0.1566,-0.1566,-0.1566,-0.1566,-0.1566,-0.1617,-0.1919,-0.2271,-0.2573,-0.2925,-0.3882,-0.4688,-0.529,-0.5586,-0.5832,-0.6192,-0.6642,-0.679,-0.6858,-0.6953,-0.7178,-0.7357,-0.7622,-0.786,-0.7988,-0.7984,-0.8076,-0.812,-0.8124,-0.8076,-0.8032,-0.7944,-0.7768,-0.7544,-0.7272,-0.7231,-0.7031,-0.6744,-0.6606,-0.6293,-0.5972,-0.579,-0.572,-0.5581,-0.5712,-0.567,-0.6012,-0.6965,-0.7464,-0.7498,-0.746,-0.7425,-0.7387,-0.7349,-0.7349,-0.7349,-0.7349,-0.7349,-0.7349,-0.7502,-0.7693,-0.7939,-0.8292,-0.8731,-0.922,-0.9513,-0.97,-0.9609,-0.9435,-0.9347,-0.9376,-0.9477,-0.9652,-0.9823,-0.9995,-1.0257,-1.0715,-1.0965,-1.1296,-1.1413,-1.1663,-1.2274,-1.297,-1.3726,-1.4451,-1.4883,-1.5274,-1.5468,-1.5729,-1.6056,-1.6153,-1.6249,-1.6316,-1.6288,-1.6316,-1.6345,-1.6374,0.3586,0.2801,0.1177,0.0224,-0.0336,-0.1057,-0.1268,-0.1146,-0.1131,-0.1229,-0.1388,-0.131,-0.1345,-0.1388,-0.1217,-0.1212,-0.1364,-0.1263,-0.1414,-0.1516,-0.1465,-0.1516,-0.1516,-0.1566,-0.1718,-0.202,-0.2371,-0.2875,-0.3682,-0.4284,-0.4786,-0.5379,-0.5712,-0.5953,-0.6306,-0.6449,-0.6573,-0.6658,-0.6871,-0.7069,-0.7258,-0.7503,-0.768,-0.7724,-0.7812,-0.7856,-0.79,-0.79,-0.7812,-0.768,-0.7459,-0.7238,-0.7054,-0.6966,-0.6762,-0.6529,-0.6367,-0.6204,-0.5849,-0.5666,-0.5585,-0.542,-0.5249,-0.5285,-0.5285,-0.6089,-0.6128,-0.6128,-0.6128,-0.6093,-0.6089,-0.6089,-0.6089,-0.6089,-0.6089,-0.6089,-0.6089,-0.6128,-0.6244,-0.6353,-0.6643,-0.6942,-0.7362,-0.7616,-0.7897,-0.8441,-0.8451,-0.8585,-0.8728,-0.9103,-0.9326,-0.9608,-0.9775,-1.0094,-1.0464,-1.0592,-1.0681,-1.0744,-1.087,-1.1632,-1.2512,-1.3326,-1.4046,-1.4302,-1.4599,-1.4894,-1.5157,-1.5478,-1.5884,-1.6019,-1.6087,-1.6144,-1.6173,-1.6192,-1.622,0.3639,0.2296,0.0729,0.0112,0.0,-0.066,-0.0872,-0.0864,-0.0843,-0.083,-0.0829,-0.1035,-0.1024,-0.0965,-0.096,-0.1061,-0.1111,-0.101,-0.1162,-0.1313,-0.1263,-0.1364,-0.1465,-0.1566,-0.1667,-0.1869,-0.217,-0.2675,-0.3331,-0.3883,-0.4529,-0.507,-0.5344,-0.5545,-0.5804,-0.607,-0.6331,-0.6399,-0.6575,-0.6782,-0.6987,-0.719,-0.737,-0.7547,-0.7632,-0.7764,-0.7808,-0.7768,-0.7632,-0.7411,-0.7146,-0.6922,-0.6789,-0.6741,-0.6518,-0.6315,-0.6251,-0.5987,-0.5653,-0.5537,-0.5328,-0.5162,-0.5003,-0.4976,-0.4976,-0.4976,-0.5054,-0.5054,-0.5054,-0.5093,-0.509,-0.5051,-0.5051,-0.5129,-0.5129,-0.5129,-0.5132,-0.5135,-0.521,-0.5246,-0.5515,-0.5783,-0.611,-0.6317,-0.6622,-0.7126,-0.7345,-0.7463,-0.7699,-0.8229,-0.8628,-0.9109,-0.9536,-0.9866,-1.0319,-1.0457,-1.0515,-1.0561,-1.0807,-1.1389,-1.2058,-1.3,-1.3515,-1.3476,-1.3777,-1.4195,-1.4492,-1.4796,-1.5196,-1.5604,-1.5633,-1.5643,-1.573,-1.5788,-1.599,0.3752,0.3469,0.1289,0.0445,0.0494,-0.0437,-0.0754,-0.0525,-0.0521,-0.0361,-0.0306,-0.0457,-0.0607,-0.0758,-0.0606,-0.0657,-0.0859,-0.0758,-0.0808,-0.0909,-0.1061,-0.1212,-0.1313,-0.1465,-0.1566,-0.1768,-0.212,-0.2675,-0.3078,-0.3681,-0.4381,-0.5072,-0.5134,-0.5363,-0.5777,-0.5974,-0.5977,-0.6105,-0.6292,-0.6466,-0.6608,-0.6833,-0.7143,-0.7231,-0.7231,-0.7231,-0.7231,-0.7231,-0.7102,-0.6922,-0.6722,-0.6533,-0.648,-0.643,-0.6271,-0.6136,-0.6031,-0.5818,-0.5557,-0.5383,-0.5165,-0.5034,-0.4909,-0.474,-0.474,-0.4621,-0.4659,-0.4621,-0.4659,-0.474,-0.4737,-0.4659,-0.4659,-0.4896,-0.4976,-0.5015,-0.5015,-0.5132,-0.521,-0.5476,-0.5822,-0.6202,-0.6647,-0.6742,-0.6619,-0.697,-0.6859,-0.6961,-0.711,-0.7528,-0.7875,-0.8457,-0.9062,-0.9811,-1.0288,-1.0493,-1.0575,-1.0624,-1.0744,-1.124,-1.188,-1.2803,-1.3161,-1.2909,-1.3152,-1.3584,-1.3876,-1.4046,-1.4481,-1.4854,-1.501,-1.5079,-1.5225,-1.5498,-1.5759]}]]